<?xml version="1.0" encoding="UTF-8" standalone="no" ?>
<gpx xmlns="http://www.topografix.com/GPX/1/1" xmlns:xsi="http://www.w3.org/2001/XMLSchema-instance" xsi:schemaLocation="http://www.topografix.com/GPX/1/1 http://www.topografix.com/GPX/1/1/gpx.xsd" version="1.1" creator="VisuGPX - https://www.visugpx.com">
  <metadata>
    <name>parcours vesseaux</name>
    <desc><![CDATA[joli tracé
pas mal de single]]></desc>
  </metadata>
  <trk>
    <name><![CDATA[15 déc. 2019 14:06:49]]></name>
    <trkseg>
      <trkpt lat="44.65273" lon="4.44427">
        <ele>333.52</ele>
        <time>2019-12-15T13:06:50.999Z</time>
      </trkpt>
      <trkpt lat="44.65282" lon="4.44427">
        <ele>336.65</ele>
        <time>2019-12-15T13:07:25.999Z</time>
      </trkpt>
      <trkpt lat="44.65283" lon="4.44441">
        <ele>336.64</ele>
        <time>2019-12-15T13:07:37.999Z</time>
      </trkpt>
      <trkpt lat="44.65278" lon="4.44452">
        <ele>336.66</ele>
        <time>2019-12-15T13:07:43.999Z</time>
      </trkpt>
      <trkpt lat="44.65273" lon="4.44463">
        <ele>336.62</ele>
        <time>2019-12-15T13:07:48.999Z</time>
      </trkpt>
      <trkpt lat="44.65265" lon="4.44475">
        <ele>336.57</ele>
        <time>2019-12-15T13:07:55.999Z</time>
      </trkpt>
      <trkpt lat="44.65259" lon="4.44486">
        <ele>336.48</ele>
        <time>2019-12-15T13:08:00.999Z</time>
      </trkpt>
      <trkpt lat="44.6525" lon="4.44491">
        <ele>336.41</ele>
        <time>2019-12-15T13:08:04.999Z</time>
      </trkpt>
      <trkpt lat="44.6524" lon="4.44494">
        <ele>336.32</ele>
        <time>2019-12-15T13:08:08.999Z</time>
      </trkpt>
      <trkpt lat="44.6523" lon="4.44498">
        <ele>336.21</ele>
        <time>2019-12-15T13:08:12.999Z</time>
      </trkpt>
      <trkpt lat="44.6522" lon="4.44502">
        <ele>336.13</ele>
        <time>2019-12-15T13:08:15.999Z</time>
      </trkpt>
      <trkpt lat="44.65212" lon="4.44505">
        <ele>336.06</ele>
        <time>2019-12-15T13:08:18.999Z</time>
      </trkpt>
      <trkpt lat="44.65202" lon="4.44509">
        <ele>336</ele>
        <time>2019-12-15T13:08:22.999Z</time>
      </trkpt>
      <trkpt lat="44.65192" lon="4.44514">
        <ele>335.92</ele>
        <time>2019-12-15T13:08:26.999Z</time>
      </trkpt>
      <trkpt lat="44.65183" lon="4.44518">
        <ele>335.83</ele>
        <time>2019-12-15T13:08:30.999Z</time>
      </trkpt>
      <trkpt lat="44.65174" lon="4.44522">
        <ele>335.7</ele>
        <time>2019-12-15T13:08:34.999Z</time>
      </trkpt>
      <trkpt lat="44.65164" lon="4.44527">
        <ele>335.52</ele>
        <time>2019-12-15T13:08:39.999Z</time>
      </trkpt>
      <trkpt lat="44.65155" lon="4.44531">
        <ele>335.36</ele>
        <time>2019-12-15T13:08:44.999Z</time>
      </trkpt>
      <trkpt lat="44.65145" lon="4.44533">
        <ele>335.23</ele>
        <time>2019-12-15T13:08:49.999Z</time>
      </trkpt>
      <trkpt lat="44.65134" lon="4.44532">
        <ele>335.2</ele>
        <time>2019-12-15T13:08:54.999Z</time>
      </trkpt>
      <trkpt lat="44.65124" lon="4.44532">
        <ele>335.18</ele>
        <time>2019-12-15T13:08:59.999Z</time>
      </trkpt>
      <trkpt lat="44.65114" lon="4.44531">
        <ele>335.31</ele>
        <time>2019-12-15T13:09:04.999Z</time>
      </trkpt>
      <trkpt lat="44.65105" lon="4.44529">
        <ele>335.53</ele>
        <time>2019-12-15T13:09:08.999Z</time>
      </trkpt>
      <trkpt lat="44.65095" lon="4.44527">
        <ele>335.9</ele>
        <time>2019-12-15T13:09:13.999Z</time>
      </trkpt>
      <trkpt lat="44.65085" lon="4.44527">
        <ele>336.3</ele>
        <time>2019-12-15T13:09:18.999Z</time>
      </trkpt>
      <trkpt lat="44.65075" lon="4.44529">
        <ele>336.82</ele>
        <time>2019-12-15T13:09:24.999Z</time>
      </trkpt>
      <trkpt lat="44.6507" lon="4.4454">
        <ele>337.33</ele>
        <time>2019-12-15T13:09:30.999Z</time>
      </trkpt>
      <trkpt lat="44.65062" lon="4.4455">
        <ele>337.89</ele>
        <time>2019-12-15T13:09:37.999Z</time>
      </trkpt>
      <trkpt lat="44.65056" lon="4.4456">
        <ele>338.25</ele>
        <time>2019-12-15T13:09:42.999Z</time>
      </trkpt>
      <trkpt lat="44.65048" lon="4.44568">
        <ele>338.59</ele>
        <time>2019-12-15T13:09:47.999Z</time>
      </trkpt>
      <trkpt lat="44.65038" lon="4.44571">
        <ele>339.13</ele>
        <time>2019-12-15T13:09:55.999Z</time>
      </trkpt>
      <trkpt lat="44.65031" lon="4.44564">
        <ele>339.69</ele>
        <time>2019-12-15T13:10:02.999Z</time>
      </trkpt>
      <trkpt lat="44.65025" lon="4.44553">
        <ele>340.45</ele>
        <time>2019-12-15T13:10:08.999Z</time>
      </trkpt>
      <trkpt lat="44.65017" lon="4.44548">
        <ele>341.3</ele>
        <time>2019-12-15T13:10:14.999Z</time>
      </trkpt>
      <trkpt lat="44.65007" lon="4.44545">
        <ele>341.95</ele>
        <time>2019-12-15T13:10:18.999Z</time>
      </trkpt>
      <trkpt lat="44.64998" lon="4.44542">
        <ele>342.76</ele>
        <time>2019-12-15T13:10:23.999Z</time>
      </trkpt>
      <trkpt lat="44.64988" lon="4.44541">
        <ele>343.88</ele>
        <time>2019-12-15T13:10:30.999Z</time>
      </trkpt>
      <trkpt lat="44.64977" lon="4.4454">
        <ele>344.71</ele>
        <time>2019-12-15T13:10:35.999Z</time>
      </trkpt>
      <trkpt lat="44.64968" lon="4.44539">
        <ele>345.53</ele>
        <time>2019-12-15T13:10:40.999Z</time>
      </trkpt>
      <trkpt lat="44.64958" lon="4.44538">
        <ele>346.62</ele>
        <time>2019-12-15T13:10:47.999Z</time>
      </trkpt>
      <trkpt lat="44.6495" lon="4.44546">
        <ele>347.9</ele>
        <time>2019-12-15T13:10:56.999Z</time>
      </trkpt>
      <trkpt lat="44.6494" lon="4.44549">
        <ele>348.88</ele>
        <time>2019-12-15T13:11:03.999Z</time>
      </trkpt>
      <trkpt lat="44.64931" lon="4.44554">
        <ele>349.54</ele>
        <time>2019-12-15T13:11:08.999Z</time>
      </trkpt>
      <trkpt lat="44.64921" lon="4.44559">
        <ele>350.35</ele>
        <time>2019-12-15T13:11:14.999Z</time>
      </trkpt>
      <trkpt lat="44.64911" lon="4.44563">
        <ele>351.14</ele>
        <time>2019-12-15T13:11:20.999Z</time>
      </trkpt>
      <trkpt lat="44.64902" lon="4.44562">
        <ele>351.78</ele>
        <time>2019-12-15T13:11:25.999Z</time>
      </trkpt>
      <trkpt lat="44.64893" lon="4.44562">
        <ele>352.4</ele>
        <time>2019-12-15T13:11:30.999Z</time>
      </trkpt>
      <trkpt lat="44.64883" lon="4.4456">
        <ele>353.01</ele>
        <time>2019-12-15T13:11:35.999Z</time>
      </trkpt>
      <trkpt lat="44.64874" lon="4.4456">
        <ele>353.65</ele>
        <time>2019-12-15T13:11:40.999Z</time>
      </trkpt>
      <trkpt lat="44.64864" lon="4.44562">
        <ele>354.28</ele>
        <time>2019-12-15T13:11:45.999Z</time>
      </trkpt>
      <trkpt lat="44.64858" lon="4.44574">
        <ele>355.06</ele>
        <time>2019-12-15T13:11:51.999Z</time>
      </trkpt>
      <trkpt lat="44.64864" lon="4.44584">
        <ele>355.83</ele>
        <time>2019-12-15T13:11:57.999Z</time>
      </trkpt>
      <trkpt lat="44.64873" lon="4.44587">
        <ele>356.9</ele>
        <time>2019-12-15T13:12:05.999Z</time>
      </trkpt>
      <trkpt lat="44.64883" lon="4.44588">
        <ele>357.73</ele>
        <time>2019-12-15T13:12:11.999Z</time>
      </trkpt>
      <trkpt lat="44.64891" lon="4.44596">
        <ele>364.43</ele>
        <time>2019-12-15T13:13:49.000Z</time>
      </trkpt>
      <trkpt lat="44.64889" lon="4.4461">
        <ele>366.26</ele>
        <time>2019-12-15T13:13:56.000Z</time>
      </trkpt>
      <trkpt lat="44.6488" lon="4.44615">
        <ele>367.42</ele>
        <time>2019-12-15T13:14:01.000Z</time>
      </trkpt>
      <trkpt lat="44.6487" lon="4.44617">
        <ele>368.71</ele>
        <time>2019-12-15T13:14:07.000Z</time>
      </trkpt>
      <trkpt lat="44.6486" lon="4.44618">
        <ele>369.9</ele>
        <time>2019-12-15T13:14:13.000Z</time>
      </trkpt>
      <trkpt lat="44.6485" lon="4.44621">
        <ele>370.97</ele>
        <time>2019-12-15T13:14:19.000Z</time>
      </trkpt>
      <trkpt lat="44.6484" lon="4.44624">
        <ele>371.93</ele>
        <time>2019-12-15T13:14:25.000Z</time>
      </trkpt>
      <trkpt lat="44.6483" lon="4.44628">
        <ele>372.79</ele>
        <time>2019-12-15T13:14:31.000Z</time>
      </trkpt>
      <trkpt lat="44.64819" lon="4.44633">
        <ele>373.6</ele>
        <time>2019-12-15T13:14:37.000Z</time>
      </trkpt>
      <trkpt lat="44.6481" lon="4.44636">
        <ele>374.24</ele>
        <time>2019-12-15T13:14:42.000Z</time>
      </trkpt>
      <trkpt lat="44.648" lon="4.4464">
        <ele>374.95</ele>
        <time>2019-12-15T13:14:48.000Z</time>
      </trkpt>
      <trkpt lat="44.64792" lon="4.44646">
        <ele>375.7</ele>
        <time>2019-12-15T13:14:55.000Z</time>
      </trkpt>
      <trkpt lat="44.64781" lon="4.4465">
        <ele>376.36</ele>
        <time>2019-12-15T13:15:02.000Z</time>
      </trkpt>
      <trkpt lat="44.64771" lon="4.44653">
        <ele>376.99</ele>
        <time>2019-12-15T13:15:09.000Z</time>
      </trkpt>
      <trkpt lat="44.64761" lon="4.44658">
        <ele>377.54</ele>
        <time>2019-12-15T13:15:15.000Z</time>
      </trkpt>
      <trkpt lat="44.64753" lon="4.44665">
        <ele>378.15</ele>
        <time>2019-12-15T13:15:22.000Z</time>
      </trkpt>
      <trkpt lat="44.64745" lon="4.44676">
        <ele>378.64</ele>
        <time>2019-12-15T13:15:28.000Z</time>
      </trkpt>
      <trkpt lat="44.64737" lon="4.44684">
        <ele>379.03</ele>
        <time>2019-12-15T13:15:33.000Z</time>
      </trkpt>
      <trkpt lat="44.64728" lon="4.44692">
        <ele>379.41</ele>
        <time>2019-12-15T13:15:38.000Z</time>
      </trkpt>
      <trkpt lat="44.64721" lon="4.447">
        <ele>379.8</ele>
        <time>2019-12-15T13:15:43.000Z</time>
      </trkpt>
      <trkpt lat="44.64713" lon="4.44705">
        <ele>380.19</ele>
        <time>2019-12-15T13:15:48.000Z</time>
      </trkpt>
      <trkpt lat="44.64704" lon="4.44711">
        <ele>380.68</ele>
        <time>2019-12-15T13:15:54.000Z</time>
      </trkpt>
      <trkpt lat="44.64695" lon="4.44718">
        <ele>381.08</ele>
        <time>2019-12-15T13:15:59.000Z</time>
      </trkpt>
      <trkpt lat="44.64686" lon="4.44724">
        <ele>381.48</ele>
        <time>2019-12-15T13:16:04.000Z</time>
      </trkpt>
      <trkpt lat="44.64678" lon="4.44732">
        <ele>381.99</ele>
        <time>2019-12-15T13:16:10.000Z</time>
      </trkpt>
      <trkpt lat="44.64668" lon="4.44739">
        <ele>382.51</ele>
        <time>2019-12-15T13:16:16.000Z</time>
      </trkpt>
      <trkpt lat="44.6466" lon="4.44746">
        <ele>382.96</ele>
        <time>2019-12-15T13:16:21.000Z</time>
      </trkpt>
      <trkpt lat="44.64653" lon="4.44754">
        <ele>383.52</ele>
        <time>2019-12-15T13:16:27.000Z</time>
      </trkpt>
      <trkpt lat="44.64645" lon="4.44761">
        <ele>384</ele>
        <time>2019-12-15T13:16:32.000Z</time>
      </trkpt>
      <trkpt lat="44.64637" lon="4.44769">
        <ele>384.48</ele>
        <time>2019-12-15T13:16:37.000Z</time>
      </trkpt>
      <trkpt lat="44.6463" lon="4.44778">
        <ele>385.09</ele>
        <time>2019-12-15T13:16:43.000Z</time>
      </trkpt>
      <trkpt lat="44.6462" lon="4.44783">
        <ele>385.72</ele>
        <time>2019-12-15T13:16:49.000Z</time>
      </trkpt>
      <trkpt lat="44.64614" lon="4.44793">
        <ele>386.28</ele>
        <time>2019-12-15T13:16:54.000Z</time>
      </trkpt>
      <trkpt lat="44.64611" lon="4.44808">
        <ele>387.11</ele>
        <time>2019-12-15T13:17:01.000Z</time>
      </trkpt>
      <trkpt lat="44.64609" lon="4.44822">
        <ele>387.73</ele>
        <time>2019-12-15T13:17:06.000Z</time>
      </trkpt>
      <trkpt lat="44.64607" lon="4.44835">
        <ele>388.35</ele>
        <time>2019-12-15T13:17:11.000Z</time>
      </trkpt>
      <trkpt lat="44.64608" lon="4.44848">
        <ele>388.98</ele>
        <time>2019-12-15T13:17:16.000Z</time>
      </trkpt>
      <trkpt lat="44.64611" lon="4.44862">
        <ele>389.87</ele>
        <time>2019-12-15T13:17:23.000Z</time>
      </trkpt>
      <trkpt lat="44.6461" lon="4.44875">
        <ele>390.71</ele>
        <time>2019-12-15T13:17:29.000Z</time>
      </trkpt>
      <trkpt lat="44.64607" lon="4.44888">
        <ele>391.53</ele>
        <time>2019-12-15T13:17:35.000Z</time>
      </trkpt>
      <trkpt lat="44.64598" lon="4.44891">
        <ele>392.23</ele>
        <time>2019-12-15T13:17:40.000Z</time>
      </trkpt>
      <trkpt lat="44.64589" lon="4.44888">
        <ele>392.94</ele>
        <time>2019-12-15T13:17:45.000Z</time>
      </trkpt>
      <trkpt lat="44.64579" lon="4.44885">
        <ele>393.68</ele>
        <time>2019-12-15T13:17:50.000Z</time>
      </trkpt>
      <trkpt lat="44.6457" lon="4.44884">
        <ele>394.45</ele>
        <time>2019-12-15T13:17:55.000Z</time>
      </trkpt>
      <trkpt lat="44.64558" lon="4.44887">
        <ele>395.37</ele>
        <time>2019-12-15T13:18:01.000Z</time>
      </trkpt>
      <trkpt lat="44.6455" lon="4.44893">
        <ele>396.13</ele>
        <time>2019-12-15T13:18:06.000Z</time>
      </trkpt>
      <trkpt lat="44.64541" lon="4.44904">
        <ele>397.02</ele>
        <time>2019-12-15T13:18:12.000Z</time>
      </trkpt>
      <trkpt lat="44.64534" lon="4.44913">
        <ele>397.76</ele>
        <time>2019-12-15T13:18:17.000Z</time>
      </trkpt>
      <trkpt lat="44.64526" lon="4.44921">
        <ele>398.5</ele>
        <time>2019-12-15T13:18:22.000Z</time>
      </trkpt>
      <trkpt lat="44.64518" lon="4.4493">
        <ele>399.24</ele>
        <time>2019-12-15T13:18:27.000Z</time>
      </trkpt>
      <trkpt lat="44.64511" lon="4.44942">
        <ele>399.95</ele>
        <time>2019-12-15T13:18:32.000Z</time>
      </trkpt>
      <trkpt lat="44.64504" lon="4.4495">
        <ele>400.63</ele>
        <time>2019-12-15T13:18:37.000Z</time>
      </trkpt>
      <trkpt lat="44.64497" lon="4.44959">
        <ele>401.29</ele>
        <time>2019-12-15T13:18:42.000Z</time>
      </trkpt>
      <trkpt lat="44.6449" lon="4.44967">
        <ele>401.83</ele>
        <time>2019-12-15T13:18:46.000Z</time>
      </trkpt>
      <trkpt lat="44.64481" lon="4.44973">
        <ele>402.52</ele>
        <time>2019-12-15T13:18:51.000Z</time>
      </trkpt>
      <trkpt lat="44.64473" lon="4.4498">
        <ele>403.22</ele>
        <time>2019-12-15T13:18:56.000Z</time>
      </trkpt>
      <trkpt lat="44.64465" lon="4.44989">
        <ele>403.95</ele>
        <time>2019-12-15T13:19:01.000Z</time>
      </trkpt>
      <trkpt lat="44.64463" lon="4.45002">
        <ele>404.67</ele>
        <time>2019-12-15T13:19:06.000Z</time>
      </trkpt>
      <trkpt lat="44.64473" lon="4.45006">
        <ele>406.18</ele>
        <time>2019-12-15T13:19:16.000Z</time>
      </trkpt>
      <trkpt lat="44.64479" lon="4.44997">
        <ele>407.22</ele>
        <time>2019-12-15T13:19:22.000Z</time>
      </trkpt>
      <trkpt lat="44.64488" lon="4.44984">
        <ele>408.29</ele>
        <time>2019-12-15T13:19:28.000Z</time>
      </trkpt>
      <trkpt lat="44.64495" lon="4.44975">
        <ele>409.04</ele>
        <time>2019-12-15T13:19:32.000Z</time>
      </trkpt>
      <trkpt lat="44.64503" lon="4.44967">
        <ele>409.99</ele>
        <time>2019-12-15T13:19:37.000Z</time>
      </trkpt>
      <trkpt lat="44.64512" lon="4.44958">
        <ele>411.29</ele>
        <time>2019-12-15T13:19:44.000Z</time>
      </trkpt>
      <trkpt lat="44.64521" lon="4.4495">
        <ele>412.42</ele>
        <time>2019-12-15T13:19:50.000Z</time>
      </trkpt>
      <trkpt lat="44.6453" lon="4.44947">
        <ele>413.55</ele>
        <time>2019-12-15T13:19:56.000Z</time>
      </trkpt>
      <trkpt lat="44.64538" lon="4.44941">
        <ele>414.49</ele>
        <time>2019-12-15T13:20:01.000Z</time>
      </trkpt>
      <trkpt lat="44.64547" lon="4.44939">
        <ele>415.42</ele>
        <time>2019-12-15T13:20:06.000Z</time>
      </trkpt>
      <trkpt lat="44.64558" lon="4.44937">
        <ele>416.49</ele>
        <time>2019-12-15T13:20:12.000Z</time>
      </trkpt>
      <trkpt lat="44.64569" lon="4.44938">
        <ele>417.32</ele>
        <time>2019-12-15T13:20:17.000Z</time>
      </trkpt>
      <trkpt lat="44.64579" lon="4.44938">
        <ele>417.97</ele>
        <time>2019-12-15T13:20:21.000Z</time>
      </trkpt>
      <trkpt lat="44.64589" lon="4.44943">
        <ele>418.77</ele>
        <time>2019-12-15T13:20:26.000Z</time>
      </trkpt>
      <trkpt lat="44.64599" lon="4.44946">
        <ele>419.4</ele>
        <time>2019-12-15T13:20:30.000Z</time>
      </trkpt>
      <trkpt lat="44.64608" lon="4.4495">
        <ele>420.18</ele>
        <time>2019-12-15T13:20:35.000Z</time>
      </trkpt>
      <trkpt lat="44.64618" lon="4.44955">
        <ele>421.07</ele>
        <time>2019-12-15T13:20:41.000Z</time>
      </trkpt>
      <trkpt lat="44.64628" lon="4.44962">
        <ele>421.91</ele>
        <time>2019-12-15T13:20:47.000Z</time>
      </trkpt>
      <trkpt lat="44.64637" lon="4.44968">
        <ele>422.73</ele>
        <time>2019-12-15T13:20:53.000Z</time>
      </trkpt>
      <trkpt lat="44.64646" lon="4.44971">
        <ele>423.68</ele>
        <time>2019-12-15T13:21:00.000Z</time>
      </trkpt>
      <trkpt lat="44.64655" lon="4.44969">
        <ele>424.48</ele>
        <time>2019-12-15T13:21:06.000Z</time>
      </trkpt>
      <trkpt lat="44.6466" lon="4.44958">
        <ele>425.15</ele>
        <time>2019-12-15T13:21:11.000Z</time>
      </trkpt>
      <trkpt lat="44.64663" lon="4.44946">
        <ele>425.72</ele>
        <time>2019-12-15T13:21:15.000Z</time>
      </trkpt>
      <trkpt lat="44.64664" lon="4.44931">
        <ele>426.59</ele>
        <time>2019-12-15T13:21:21.000Z</time>
      </trkpt>
      <trkpt lat="44.64668" lon="4.44917">
        <ele>427.46</ele>
        <time>2019-12-15T13:21:27.000Z</time>
      </trkpt>
      <trkpt lat="44.64673" lon="4.44906">
        <ele>428.18</ele>
        <time>2019-12-15T13:21:32.000Z</time>
      </trkpt>
      <trkpt lat="44.64678" lon="4.44894">
        <ele>428.91</ele>
        <time>2019-12-15T13:21:37.000Z</time>
      </trkpt>
      <trkpt lat="44.64683" lon="4.44882">
        <ele>429.8</ele>
        <time>2019-12-15T13:21:43.000Z</time>
      </trkpt>
      <trkpt lat="44.64686" lon="4.4487">
        <ele>430.69</ele>
        <time>2019-12-15T13:21:49.000Z</time>
      </trkpt>
      <trkpt lat="44.64691" lon="4.44859">
        <ele>431.59</ele>
        <time>2019-12-15T13:21:55.000Z</time>
      </trkpt>
      <trkpt lat="44.64698" lon="4.44849">
        <ele>432.61</ele>
        <time>2019-12-15T13:22:02.000Z</time>
      </trkpt>
      <trkpt lat="44.64707" lon="4.44855">
        <ele>433.75</ele>
        <time>2019-12-15T13:22:10.000Z</time>
      </trkpt>
      <trkpt lat="44.64704" lon="4.44867">
        <ele>434.84</ele>
        <time>2019-12-15T13:22:18.000Z</time>
      </trkpt>
      <trkpt lat="44.64697" lon="4.44876">
        <ele>435.6</ele>
        <time>2019-12-15T13:22:24.000Z</time>
      </trkpt>
      <trkpt lat="44.6469" lon="4.44889">
        <ele>436.31</ele>
        <time>2019-12-15T13:22:30.000Z</time>
      </trkpt>
      <trkpt lat="44.64687" lon="4.44902">
        <ele>439.29</ele>
        <time>2019-12-15T13:23:35.000Z</time>
      </trkpt>
      <trkpt lat="44.64684" lon="4.44914">
        <ele>440.39</ele>
        <time>2019-12-15T13:23:41.000Z</time>
      </trkpt>
      <trkpt lat="44.64682" lon="4.44929">
        <ele>441.24</ele>
        <time>2019-12-15T13:23:46.000Z</time>
      </trkpt>
      <trkpt lat="44.64682" lon="4.44943">
        <ele>442.01</ele>
        <time>2019-12-15T13:23:51.000Z</time>
      </trkpt>
      <trkpt lat="44.64684" lon="4.44958">
        <ele>442.73</ele>
        <time>2019-12-15T13:23:56.000Z</time>
      </trkpt>
      <trkpt lat="44.64682" lon="4.44972">
        <ele>443.28</ele>
        <time>2019-12-15T13:24:00.000Z</time>
      </trkpt>
      <trkpt lat="44.64677" lon="4.44982">
        <ele>443.92</ele>
        <time>2019-12-15T13:24:05.000Z</time>
      </trkpt>
      <trkpt lat="44.64671" lon="4.44993">
        <ele>444.51</ele>
        <time>2019-12-15T13:24:10.000Z</time>
      </trkpt>
      <trkpt lat="44.64663" lon="4.45003">
        <ele>445.07</ele>
        <time>2019-12-15T13:24:15.000Z</time>
      </trkpt>
      <trkpt lat="44.64655" lon="4.45008">
        <ele>445.48</ele>
        <time>2019-12-15T13:24:19.000Z</time>
      </trkpt>
      <trkpt lat="44.64645" lon="4.45008">
        <ele>445.99</ele>
        <time>2019-12-15T13:24:24.000Z</time>
      </trkpt>
      <trkpt lat="44.64634" lon="4.45007">
        <ele>446.49</ele>
        <time>2019-12-15T13:24:29.000Z</time>
      </trkpt>
      <trkpt lat="44.64625" lon="4.45009">
        <ele>446.9</ele>
        <time>2019-12-15T13:24:33.000Z</time>
      </trkpt>
      <trkpt lat="44.64613" lon="4.45011">
        <ele>447.4</ele>
        <time>2019-12-15T13:24:38.000Z</time>
      </trkpt>
      <trkpt lat="44.64604" lon="4.45012">
        <ele>447.91</ele>
        <time>2019-12-15T13:24:43.000Z</time>
      </trkpt>
      <trkpt lat="44.64594" lon="4.45012">
        <ele>448.45</ele>
        <time>2019-12-15T13:24:48.000Z</time>
      </trkpt>
      <trkpt lat="44.64583" lon="4.45014">
        <ele>449.02</ele>
        <time>2019-12-15T13:24:53.000Z</time>
      </trkpt>
      <trkpt lat="44.64573" lon="4.45017">
        <ele>449.58</ele>
        <time>2019-12-15T13:24:58.000Z</time>
      </trkpt>
      <trkpt lat="44.64564" lon="4.45023">
        <ele>450.13</ele>
        <time>2019-12-15T13:25:03.000Z</time>
      </trkpt>
      <trkpt lat="44.64555" lon="4.45029">
        <ele>450.56</ele>
        <time>2019-12-15T13:25:07.000Z</time>
      </trkpt>
      <trkpt lat="44.64547" lon="4.45036">
        <ele>451.06</ele>
        <time>2019-12-15T13:25:12.000Z</time>
      </trkpt>
      <trkpt lat="44.64539" lon="4.45044">
        <ele>451.56</ele>
        <time>2019-12-15T13:25:17.000Z</time>
      </trkpt>
      <trkpt lat="44.6453" lon="4.45052">
        <ele>452.04</ele>
        <time>2019-12-15T13:25:22.000Z</time>
      </trkpt>
      <trkpt lat="44.64523" lon="4.45062">
        <ele>452.53</ele>
        <time>2019-12-15T13:25:27.000Z</time>
      </trkpt>
      <trkpt lat="44.64515" lon="4.45071">
        <ele>453.03</ele>
        <time>2019-12-15T13:25:32.000Z</time>
      </trkpt>
      <trkpt lat="44.64509" lon="4.45083">
        <ele>453.79</ele>
        <time>2019-12-15T13:25:39.000Z</time>
      </trkpt>
      <trkpt lat="44.64503" lon="4.45095">
        <ele>454.45</ele>
        <time>2019-12-15T13:25:45.000Z</time>
      </trkpt>
      <trkpt lat="44.64497" lon="4.45106">
        <ele>454.96</ele>
        <time>2019-12-15T13:25:50.000Z</time>
      </trkpt>
      <trkpt lat="44.64493" lon="4.45118">
        <ele>455.43</ele>
        <time>2019-12-15T13:25:55.000Z</time>
      </trkpt>
      <trkpt lat="44.64488" lon="4.4513">
        <ele>456.02</ele>
        <time>2019-12-15T13:26:01.000Z</time>
      </trkpt>
      <trkpt lat="44.64478" lon="4.45132">
        <ele>456.44</ele>
        <time>2019-12-15T13:26:06.000Z</time>
      </trkpt>
      <trkpt lat="44.64469" lon="4.45135">
        <ele>456.91</ele>
        <time>2019-12-15T13:26:11.000Z</time>
      </trkpt>
      <trkpt lat="44.64458" lon="4.45137">
        <ele>457.37</ele>
        <time>2019-12-15T13:26:16.000Z</time>
      </trkpt>
      <trkpt lat="44.64449" lon="4.4514">
        <ele>457.91</ele>
        <time>2019-12-15T13:26:21.000Z</time>
      </trkpt>
      <trkpt lat="44.64438" lon="4.45141">
        <ele>458.57</ele>
        <time>2019-12-15T13:26:26.000Z</time>
      </trkpt>
      <trkpt lat="44.64428" lon="4.45143">
        <ele>459.38</ele>
        <time>2019-12-15T13:26:31.000Z</time>
      </trkpt>
      <trkpt lat="44.64419" lon="4.45146">
        <ele>460.09</ele>
        <time>2019-12-15T13:26:35.000Z</time>
      </trkpt>
      <trkpt lat="44.6441" lon="4.45151">
        <ele>460.97</ele>
        <time>2019-12-15T13:26:40.000Z</time>
      </trkpt>
      <trkpt lat="44.64401" lon="4.45152">
        <ele>461.89</ele>
        <time>2019-12-15T13:26:45.000Z</time>
      </trkpt>
      <trkpt lat="44.64391" lon="4.45151">
        <ele>463.07</ele>
        <time>2019-12-15T13:26:51.000Z</time>
      </trkpt>
      <trkpt lat="44.64381" lon="4.45151">
        <ele>464.12</ele>
        <time>2019-12-15T13:26:56.000Z</time>
      </trkpt>
      <trkpt lat="44.64372" lon="4.45152">
        <ele>465.19</ele>
        <time>2019-12-15T13:27:01.000Z</time>
      </trkpt>
      <trkpt lat="44.64362" lon="4.45154">
        <ele>466.04</ele>
        <time>2019-12-15T13:27:05.000Z</time>
      </trkpt>
      <trkpt lat="44.64353" lon="4.45153">
        <ele>467</ele>
        <time>2019-12-15T13:27:10.000Z</time>
      </trkpt>
      <trkpt lat="44.64344" lon="4.45154">
        <ele>467.73</ele>
        <time>2019-12-15T13:27:14.000Z</time>
      </trkpt>
      <trkpt lat="44.64334" lon="4.45158">
        <ele>468.64</ele>
        <time>2019-12-15T13:27:19.000Z</time>
      </trkpt>
      <trkpt lat="44.64325" lon="4.45163">
        <ele>469.71</ele>
        <time>2019-12-15T13:27:25.000Z</time>
      </trkpt>
      <trkpt lat="44.64315" lon="4.45166">
        <ele>470.72</ele>
        <time>2019-12-15T13:27:31.000Z</time>
      </trkpt>
      <trkpt lat="44.64304" lon="4.45167">
        <ele>471.7</ele>
        <time>2019-12-15T13:27:37.000Z</time>
      </trkpt>
      <trkpt lat="44.64294" lon="4.45168">
        <ele>472.63</ele>
        <time>2019-12-15T13:27:43.000Z</time>
      </trkpt>
      <trkpt lat="44.64284" lon="4.45165">
        <ele>473.57</ele>
        <time>2019-12-15T13:27:49.000Z</time>
      </trkpt>
      <trkpt lat="44.64275" lon="4.45164">
        <ele>474.37</ele>
        <time>2019-12-15T13:27:54.000Z</time>
      </trkpt>
      <trkpt lat="44.64265" lon="4.45164">
        <ele>475.15</ele>
        <time>2019-12-15T13:27:59.000Z</time>
      </trkpt>
      <trkpt lat="44.64256" lon="4.45164">
        <ele>476.26</ele>
        <time>2019-12-15T13:28:07.000Z</time>
      </trkpt>
      <trkpt lat="44.64246" lon="4.45161">
        <ele>481.13</ele>
        <time>2019-12-15T13:28:50.000Z</time>
      </trkpt>
      <trkpt lat="44.64236" lon="4.45161">
        <ele>482.19</ele>
        <time>2019-12-15T13:28:56.000Z</time>
      </trkpt>
      <trkpt lat="44.64226" lon="4.4516">
        <ele>483.03</ele>
        <time>2019-12-15T13:29:01.000Z</time>
      </trkpt>
      <trkpt lat="44.64217" lon="4.45158">
        <ele>484.68</ele>
        <time>2019-12-15T13:29:20.000Z</time>
      </trkpt>
      <trkpt lat="44.64208" lon="4.45157">
        <ele>487.26</ele>
        <time>2019-12-15T13:29:42.000Z</time>
      </trkpt>
      <trkpt lat="44.64198" lon="4.45156">
        <ele>487.89</ele>
        <time>2019-12-15T13:29:47.000Z</time>
      </trkpt>
      <trkpt lat="44.64188" lon="4.45154">
        <ele>488.48</ele>
        <time>2019-12-15T13:29:52.000Z</time>
      </trkpt>
      <trkpt lat="44.64179" lon="4.45152">
        <ele>488.92</ele>
        <time>2019-12-15T13:29:56.000Z</time>
      </trkpt>
      <trkpt lat="44.64169" lon="4.4515">
        <ele>489.47</ele>
        <time>2019-12-15T13:30:01.000Z</time>
      </trkpt>
      <trkpt lat="44.6416" lon="4.4515">
        <ele>489.89</ele>
        <time>2019-12-15T13:30:05.000Z</time>
      </trkpt>
      <trkpt lat="44.64149" lon="4.45149">
        <ele>490.43</ele>
        <time>2019-12-15T13:30:10.000Z</time>
      </trkpt>
      <trkpt lat="44.64138" lon="4.4515">
        <ele>490.99</ele>
        <time>2019-12-15T13:30:15.000Z</time>
      </trkpt>
      <trkpt lat="44.64128" lon="4.45146">
        <ele>491.57</ele>
        <time>2019-12-15T13:30:20.000Z</time>
      </trkpt>
      <trkpt lat="44.64118" lon="4.45146">
        <ele>492.04</ele>
        <time>2019-12-15T13:30:24.000Z</time>
      </trkpt>
      <trkpt lat="44.64109" lon="4.45149">
        <ele>492.53</ele>
        <time>2019-12-15T13:30:28.000Z</time>
      </trkpt>
      <trkpt lat="44.64099" lon="4.45148">
        <ele>493.17</ele>
        <time>2019-12-15T13:30:33.000Z</time>
      </trkpt>
      <trkpt lat="44.64088" lon="4.45145">
        <ele>493.89</ele>
        <time>2019-12-15T13:30:38.000Z</time>
      </trkpt>
      <trkpt lat="44.64079" lon="4.45144">
        <ele>494.49</ele>
        <time>2019-12-15T13:30:42.000Z</time>
      </trkpt>
      <trkpt lat="44.64069" lon="4.45141">
        <ele>495.29</ele>
        <time>2019-12-15T13:30:47.000Z</time>
      </trkpt>
      <trkpt lat="44.64059" lon="4.45139">
        <ele>496.12</ele>
        <time>2019-12-15T13:30:52.000Z</time>
      </trkpt>
      <trkpt lat="44.64049" lon="4.45136">
        <ele>497</ele>
        <time>2019-12-15T13:30:57.000Z</time>
      </trkpt>
      <trkpt lat="44.64039" lon="4.45134">
        <ele>497.9</ele>
        <time>2019-12-15T13:31:02.000Z</time>
      </trkpt>
      <trkpt lat="44.64028" lon="4.45133">
        <ele>498.97</ele>
        <time>2019-12-15T13:31:08.000Z</time>
      </trkpt>
      <trkpt lat="44.64019" lon="4.45129">
        <ele>499.85</ele>
        <time>2019-12-15T13:31:13.000Z</time>
      </trkpt>
      <trkpt lat="44.6401" lon="4.45128">
        <ele>500.92</ele>
        <time>2019-12-15T13:31:19.000Z</time>
      </trkpt>
      <trkpt lat="44.64005" lon="4.45116">
        <ele>502.19</ele>
        <time>2019-12-15T13:31:26.000Z</time>
      </trkpt>
      <trkpt lat="44.63997" lon="4.45106">
        <ele>503.26</ele>
        <time>2019-12-15T13:31:32.000Z</time>
      </trkpt>
      <trkpt lat="44.63991" lon="4.45095">
        <ele>504.45</ele>
        <time>2019-12-15T13:31:39.000Z</time>
      </trkpt>
      <trkpt lat="44.63983" lon="4.45086">
        <ele>505.55</ele>
        <time>2019-12-15T13:31:46.000Z</time>
      </trkpt>
      <trkpt lat="44.63976" lon="4.45075">
        <ele>506.42</ele>
        <time>2019-12-15T13:31:52.000Z</time>
      </trkpt>
      <trkpt lat="44.63968" lon="4.45065">
        <ele>507.29</ele>
        <time>2019-12-15T13:31:58.000Z</time>
      </trkpt>
      <trkpt lat="44.63964" lon="4.45053">
        <ele>508</ele>
        <time>2019-12-15T13:32:02.999Z</time>
      </trkpt>
      <trkpt lat="44.63961" lon="4.45039">
        <ele>508.87</ele>
        <time>2019-12-15T13:32:08.999Z</time>
      </trkpt>
      <trkpt lat="44.63961" lon="4.45025">
        <ele>509.72</ele>
        <time>2019-12-15T13:32:14.999Z</time>
      </trkpt>
      <trkpt lat="44.63961" lon="4.45011">
        <ele>510.38</ele>
        <time>2019-12-15T13:32:19.999Z</time>
      </trkpt>
      <trkpt lat="44.63955" lon="4.45001">
        <ele>511.01</ele>
        <time>2019-12-15T13:32:24.999Z</time>
      </trkpt>
      <trkpt lat="44.63949" lon="4.44991">
        <ele>511.72</ele>
        <time>2019-12-15T13:32:30.999Z</time>
      </trkpt>
      <trkpt lat="44.63949" lon="4.44976">
        <ele>512.4</ele>
        <time>2019-12-15T13:32:36.999Z</time>
      </trkpt>
      <trkpt lat="44.63947" lon="4.44962">
        <ele>512.92</ele>
        <time>2019-12-15T13:32:41.999Z</time>
      </trkpt>
      <trkpt lat="44.63943" lon="4.44949">
        <ele>513.54</ele>
        <time>2019-12-15T13:32:47.999Z</time>
      </trkpt>
      <trkpt lat="44.63941" lon="4.44936">
        <ele>514.17</ele>
        <time>2019-12-15T13:32:53.999Z</time>
      </trkpt>
      <trkpt lat="44.63936" lon="4.44923">
        <ele>514.88</ele>
        <time>2019-12-15T13:33:00.999Z</time>
      </trkpt>
      <trkpt lat="44.6393" lon="4.44911">
        <ele>515.4</ele>
        <time>2019-12-15T13:33:05.999Z</time>
      </trkpt>
      <trkpt lat="44.6392" lon="4.44904">
        <ele>515.81</ele>
        <time>2019-12-15T13:33:09.999Z</time>
      </trkpt>
      <trkpt lat="44.63909" lon="4.44901">
        <ele>516.2</ele>
        <time>2019-12-15T13:33:13.999Z</time>
      </trkpt>
      <trkpt lat="44.63901" lon="4.44896">
        <ele>516.59</ele>
        <time>2019-12-15T13:33:17.999Z</time>
      </trkpt>
      <trkpt lat="44.63894" lon="4.44888">
        <ele>517.04</ele>
        <time>2019-12-15T13:33:22.999Z</time>
      </trkpt>
      <trkpt lat="44.63887" lon="4.44877">
        <ele>517.47</ele>
        <time>2019-12-15T13:33:27.999Z</time>
      </trkpt>
      <trkpt lat="44.63879" lon="4.44871">
        <ele>517.87</ele>
        <time>2019-12-15T13:33:32.999Z</time>
      </trkpt>
      <trkpt lat="44.63869" lon="4.44867">
        <ele>518.34</ele>
        <time>2019-12-15T13:33:38.999Z</time>
      </trkpt>
      <trkpt lat="44.6386" lon="4.44865">
        <ele>518.7</ele>
        <time>2019-12-15T13:33:43.999Z</time>
      </trkpt>
      <trkpt lat="44.63851" lon="4.4486">
        <ele>518.99</ele>
        <time>2019-12-15T13:33:47.999Z</time>
      </trkpt>
      <trkpt lat="44.63842" lon="4.44853">
        <ele>519.27</ele>
        <time>2019-12-15T13:33:51.999Z</time>
      </trkpt>
      <trkpt lat="44.63835" lon="4.44843">
        <ele>519.82</ele>
        <time>2019-12-15T13:33:59.999Z</time>
      </trkpt>
      <trkpt lat="44.63827" lon="4.44833">
        <ele>520.24</ele>
        <time>2019-12-15T13:34:05.999Z</time>
      </trkpt>
      <trkpt lat="44.63818" lon="4.44825">
        <ele>520.64</ele>
        <time>2019-12-15T13:34:11.999Z</time>
      </trkpt>
      <trkpt lat="44.6381" lon="4.44818">
        <ele>520.96</ele>
        <time>2019-12-15T13:34:16.999Z</time>
      </trkpt>
      <trkpt lat="44.63801" lon="4.44812">
        <ele>521.28</ele>
        <time>2019-12-15T13:34:21.999Z</time>
      </trkpt>
      <trkpt lat="44.63792" lon="4.44807">
        <ele>521.58</ele>
        <time>2019-12-15T13:34:26.999Z</time>
      </trkpt>
      <trkpt lat="44.63783" lon="4.44804">
        <ele>522.6</ele>
        <time>2019-12-15T13:35:04.999Z</time>
      </trkpt>
      <trkpt lat="44.63774" lon="4.44796">
        <ele>523.09</ele>
        <time>2019-12-15T13:35:09.999Z</time>
      </trkpt>
      <trkpt lat="44.63766" lon="4.44788">
        <ele>523.37</ele>
        <time>2019-12-15T13:35:12.999Z</time>
      </trkpt>
      <trkpt lat="44.63758" lon="4.4478">
        <ele>523.64</ele>
        <time>2019-12-15T13:35:15.999Z</time>
      </trkpt>
      <trkpt lat="44.6375" lon="4.4477">
        <ele>524.65</ele>
        <time>2019-12-15T13:35:18.999Z</time>
      </trkpt>
      <trkpt lat="44.63743" lon="4.44758">
        <ele>524.85</ele>
        <time>2019-12-15T13:35:21.999Z</time>
      </trkpt>
      <trkpt lat="44.63735" lon="4.44745">
        <ele>525.57</ele>
        <time>2019-12-15T13:35:24.999Z</time>
      </trkpt>
      <trkpt lat="44.63729" lon="4.44733">
        <ele>525.71</ele>
        <time>2019-12-15T13:35:27.999Z</time>
      </trkpt>
      <trkpt lat="44.6372" lon="4.44723">
        <ele>526.53</ele>
        <time>2019-12-15T13:35:30.999Z</time>
      </trkpt>
      <trkpt lat="44.63711" lon="4.44712">
        <ele>526.61</ele>
        <time>2019-12-15T13:35:33.999Z</time>
      </trkpt>
      <trkpt lat="44.63706" lon="4.44701">
        <ele>526.9</ele>
        <time>2019-12-15T13:35:36.999Z</time>
      </trkpt>
      <trkpt lat="44.63703" lon="4.44688">
        <ele>527.11</ele>
        <time>2019-12-15T13:35:38.999Z</time>
      </trkpt>
      <trkpt lat="44.63705" lon="4.44675">
        <ele>527.14</ele>
        <time>2019-12-15T13:35:42.999Z</time>
      </trkpt>
      <trkpt lat="44.63709" lon="4.44663">
        <ele>527.26</ele>
        <time>2019-12-15T13:36:07.999Z</time>
      </trkpt>
      <trkpt lat="44.63717" lon="4.44651">
        <ele>527.31</ele>
        <time>2019-12-15T13:36:11.999Z</time>
      </trkpt>
      <trkpt lat="44.63725" lon="4.44645">
        <ele>527.34</ele>
        <time>2019-12-15T13:36:14.999Z</time>
      </trkpt>
      <trkpt lat="44.63735" lon="4.44638">
        <ele>527.36</ele>
        <time>2019-12-15T13:36:17.999Z</time>
      </trkpt>
      <trkpt lat="44.63745" lon="4.44631">
        <ele>527.41</ele>
        <time>2019-12-15T13:36:20.999Z</time>
      </trkpt>
      <trkpt lat="44.63756" lon="4.44624">
        <ele>527.41</ele>
        <time>2019-12-15T13:36:23.999Z</time>
      </trkpt>
      <trkpt lat="44.63767" lon="4.4462">
        <ele>527.38</ele>
        <time>2019-12-15T13:36:26.999Z</time>
      </trkpt>
      <trkpt lat="44.6378" lon="4.44612">
        <ele>527.31</ele>
        <time>2019-12-15T13:36:29.999Z</time>
      </trkpt>
      <trkpt lat="44.63791" lon="4.44605">
        <ele>527.21</ele>
        <time>2019-12-15T13:36:32.999Z</time>
      </trkpt>
      <trkpt lat="44.63803" lon="4.446">
        <ele>527.11</ele>
        <time>2019-12-15T13:36:35.999Z</time>
      </trkpt>
      <trkpt lat="44.63816" lon="4.44597">
        <ele>527</ele>
        <time>2019-12-15T13:36:38.999Z</time>
      </trkpt>
      <trkpt lat="44.63826" lon="4.44596">
        <ele>526.94</ele>
        <time>2019-12-15T13:36:40.999Z</time>
      </trkpt>
      <trkpt lat="44.63837" lon="4.44594">
        <ele>526.88</ele>
        <time>2019-12-15T13:36:43.999Z</time>
      </trkpt>
      <trkpt lat="44.63848" lon="4.44593">
        <ele>526.83</ele>
        <time>2019-12-15T13:36:47.999Z</time>
      </trkpt>
      <trkpt lat="44.63855" lon="4.44586">
        <ele>526.78</ele>
        <time>2019-12-15T13:36:51.999Z</time>
      </trkpt>
      <trkpt lat="44.63846" lon="4.44584">
        <ele>526.65</ele>
        <time>2019-12-15T13:37:03.999Z</time>
      </trkpt>
      <trkpt lat="44.63835" lon="4.44577">
        <ele>526.56</ele>
        <time>2019-12-15T13:37:07.999Z</time>
      </trkpt>
      <trkpt lat="44.63824" lon="4.44573">
        <ele>526.1</ele>
        <time>2019-12-15T13:37:10.999Z</time>
      </trkpt>
      <trkpt lat="44.63811" lon="4.44574">
        <ele>525.9</ele>
        <time>2019-12-15T13:37:13.999Z</time>
      </trkpt>
      <trkpt lat="44.63801" lon="4.4457">
        <ele>525.48</ele>
        <time>2019-12-15T13:37:16.999Z</time>
      </trkpt>
      <trkpt lat="44.6379" lon="4.44569">
        <ele>525.45</ele>
        <time>2019-12-15T13:37:19.999Z</time>
      </trkpt>
      <trkpt lat="44.63782" lon="4.44562">
        <ele>525.42</ele>
        <time>2019-12-15T13:37:22.999Z</time>
      </trkpt>
      <trkpt lat="44.6377" lon="4.44555">
        <ele>525.19</ele>
        <time>2019-12-15T13:37:25.999Z</time>
      </trkpt>
      <trkpt lat="44.63761" lon="4.44554">
        <ele>525.15</ele>
        <time>2019-12-15T13:37:28.999Z</time>
      </trkpt>
      <trkpt lat="44.63748" lon="4.44552">
        <ele>525.1</ele>
        <time>2019-12-15T13:37:32.999Z</time>
      </trkpt>
      <trkpt lat="44.63734" lon="4.44552">
        <ele>524.77</ele>
        <time>2019-12-15T13:37:35.999Z</time>
      </trkpt>
      <trkpt lat="44.63724" lon="4.44549">
        <ele>524.5</ele>
        <time>2019-12-15T13:37:37.999Z</time>
      </trkpt>
      <trkpt lat="44.63714" lon="4.44547">
        <ele>524.37</ele>
        <time>2019-12-15T13:37:39.999Z</time>
      </trkpt>
      <trkpt lat="44.63703" lon="4.44546">
        <ele>524.07</ele>
        <time>2019-12-15T13:37:42.999Z</time>
      </trkpt>
      <trkpt lat="44.63691" lon="4.44541">
        <ele>523.73</ele>
        <time>2019-12-15T13:37:45.999Z</time>
      </trkpt>
      <trkpt lat="44.63682" lon="4.44538">
        <ele>523.54</ele>
        <time>2019-12-15T13:37:47.999Z</time>
      </trkpt>
      <trkpt lat="44.63672" lon="4.44532">
        <ele>523.38</ele>
        <time>2019-12-15T13:37:49.999Z</time>
      </trkpt>
      <trkpt lat="44.6366" lon="4.44525">
        <ele>523.16</ele>
        <time>2019-12-15T13:37:52.999Z</time>
      </trkpt>
      <trkpt lat="44.63648" lon="4.44522">
        <ele>522.97</ele>
        <time>2019-12-15T13:37:55.999Z</time>
      </trkpt>
      <trkpt lat="44.63639" lon="4.44516">
        <ele>522.78</ele>
        <time>2019-12-15T13:37:57.999Z</time>
      </trkpt>
      <trkpt lat="44.63628" lon="4.44511">
        <ele>522.59</ele>
        <time>2019-12-15T13:37:59.999Z</time>
      </trkpt>
      <trkpt lat="44.63616" lon="4.44505">
        <ele>522.37</ele>
        <time>2019-12-15T13:38:01.999Z</time>
      </trkpt>
      <trkpt lat="44.63605" lon="4.445">
        <ele>522.18</ele>
        <time>2019-12-15T13:38:03.999Z</time>
      </trkpt>
      <trkpt lat="44.63594" lon="4.44495">
        <ele>522</ele>
        <time>2019-12-15T13:38:05.999Z</time>
      </trkpt>
      <trkpt lat="44.63582" lon="4.4449">
        <ele>521.82</ele>
        <time>2019-12-15T13:38:07.999Z</time>
      </trkpt>
      <trkpt lat="44.63572" lon="4.44487">
        <ele>521.62</ele>
        <time>2019-12-15T13:38:09.999Z</time>
      </trkpt>
      <trkpt lat="44.63561" lon="4.44481">
        <ele>521.42</ele>
        <time>2019-12-15T13:38:11.999Z</time>
      </trkpt>
      <trkpt lat="44.63552" lon="4.44475">
        <ele>521.21</ele>
        <time>2019-12-15T13:38:13.999Z</time>
      </trkpt>
      <trkpt lat="44.63543" lon="4.4447">
        <ele>520.97</ele>
        <time>2019-12-15T13:38:15.999Z</time>
      </trkpt>
      <trkpt lat="44.63532" lon="4.44465">
        <ele>520.71</ele>
        <time>2019-12-15T13:38:17.999Z</time>
      </trkpt>
      <trkpt lat="44.63522" lon="4.44456">
        <ele>520.37</ele>
        <time>2019-12-15T13:38:19.999Z</time>
      </trkpt>
      <trkpt lat="44.6351" lon="4.44452">
        <ele>519.88</ele>
        <time>2019-12-15T13:38:21.999Z</time>
      </trkpt>
      <trkpt lat="44.63499" lon="4.44449">
        <ele>518.72</ele>
        <time>2019-12-15T13:38:23.999Z</time>
      </trkpt>
      <trkpt lat="44.63486" lon="4.44447">
        <ele>515.91</ele>
        <time>2019-12-15T13:38:26.999Z</time>
      </trkpt>
      <trkpt lat="44.63471" lon="4.4445">
        <ele>514.29</ele>
        <time>2019-12-15T13:38:30.999Z</time>
      </trkpt>
      <trkpt lat="44.63458" lon="4.44446">
        <ele>509.18</ele>
        <time>2019-12-15T13:38:33.999Z</time>
      </trkpt>
      <trkpt lat="44.63445" lon="4.44442">
        <ele>505.06</ele>
        <time>2019-12-15T13:38:36.999Z</time>
      </trkpt>
      <trkpt lat="44.63433" lon="4.44437">
        <ele>502.59</ele>
        <time>2019-12-15T13:38:38.999Z</time>
      </trkpt>
      <trkpt lat="44.63416" lon="4.44437">
        <ele>499.4</ele>
        <time>2019-12-15T13:38:41.999Z</time>
      </trkpt>
      <trkpt lat="44.63398" lon="4.44435">
        <ele>497.16</ele>
        <time>2019-12-15T13:38:44.999Z</time>
      </trkpt>
      <trkpt lat="44.63382" lon="4.44436">
        <ele>495.66</ele>
        <time>2019-12-15T13:38:47.999Z</time>
      </trkpt>
      <trkpt lat="44.63371" lon="4.44434">
        <ele>494.83</ele>
        <time>2019-12-15T13:38:49.999Z</time>
      </trkpt>
      <trkpt lat="44.63361" lon="4.44434">
        <ele>494.03</ele>
        <time>2019-12-15T13:38:51.999Z</time>
      </trkpt>
      <trkpt lat="44.6335" lon="4.4443">
        <ele>493.21</ele>
        <time>2019-12-15T13:38:53.999Z</time>
      </trkpt>
      <trkpt lat="44.63342" lon="4.44424">
        <ele>492.3</ele>
        <time>2019-12-15T13:38:55.999Z</time>
      </trkpt>
      <trkpt lat="44.63333" lon="4.4442">
        <ele>491.39</ele>
        <time>2019-12-15T13:38:57.999Z</time>
      </trkpt>
      <trkpt lat="44.63324" lon="4.44417">
        <ele>491.18</ele>
        <time>2019-12-15T13:39:01.999Z</time>
      </trkpt>
      <trkpt lat="44.6331" lon="4.4442">
        <ele>490.9</ele>
        <time>2019-12-15T13:39:06.999Z</time>
      </trkpt>
      <trkpt lat="44.633" lon="4.44415">
        <ele>490.61</ele>
        <time>2019-12-15T13:39:11.999Z</time>
      </trkpt>
      <trkpt lat="44.633" lon="4.44401">
        <ele>490.07</ele>
        <time>2019-12-15T13:39:20.999Z</time>
      </trkpt>
      <trkpt lat="44.63301" lon="4.44387">
        <ele>489.49</ele>
        <time>2019-12-15T13:39:29.999Z</time>
      </trkpt>
      <trkpt lat="44.63302" lon="4.44375">
        <ele>488.98</ele>
        <time>2019-12-15T13:39:36.999Z</time>
      </trkpt>
      <trkpt lat="44.63299" lon="4.44361">
        <ele>488.16</ele>
        <time>2019-12-15T13:39:47.999Z</time>
      </trkpt>
      <trkpt lat="44.63293" lon="4.4435">
        <ele>487.75</ele>
        <time>2019-12-15T13:39:52.999Z</time>
      </trkpt>
      <trkpt lat="44.63286" lon="4.4434">
        <ele>487.36</ele>
        <time>2019-12-15T13:39:57.999Z</time>
      </trkpt>
      <trkpt lat="44.63279" lon="4.44331">
        <ele>486.98</ele>
        <time>2019-12-15T13:40:02.999Z</time>
      </trkpt>
      <trkpt lat="44.63272" lon="4.44319">
        <ele>486.53</ele>
        <time>2019-12-15T13:40:08.999Z</time>
      </trkpt>
      <trkpt lat="44.63265" lon="4.4431">
        <ele>486.04</ele>
        <time>2019-12-15T13:40:16.999Z</time>
      </trkpt>
      <trkpt lat="44.63261" lon="4.44298">
        <ele>485.1</ele>
        <time>2019-12-15T13:40:41.999Z</time>
      </trkpt>
      <trkpt lat="44.63253" lon="4.44288">
        <ele>484.76</ele>
        <time>2019-12-15T13:40:46.999Z</time>
      </trkpt>
      <trkpt lat="44.63245" lon="4.44282">
        <ele>484.5</ele>
        <time>2019-12-15T13:40:50.999Z</time>
      </trkpt>
      <trkpt lat="44.63235" lon="4.44279">
        <ele>484.18</ele>
        <time>2019-12-15T13:40:55.999Z</time>
      </trkpt>
      <trkpt lat="44.63224" lon="4.4428">
        <ele>483.88</ele>
        <time>2019-12-15T13:41:00.999Z</time>
      </trkpt>
      <trkpt lat="44.63213" lon="4.44279">
        <ele>483.6</ele>
        <time>2019-12-15T13:41:05.999Z</time>
      </trkpt>
      <trkpt lat="44.63204" lon="4.44276">
        <ele>483.4</ele>
        <time>2019-12-15T13:41:09.999Z</time>
      </trkpt>
      <trkpt lat="44.63194" lon="4.44276">
        <ele>483.16</ele>
        <time>2019-12-15T13:41:14.999Z</time>
      </trkpt>
      <trkpt lat="44.63184" lon="4.44279">
        <ele>483.02</ele>
        <time>2019-12-15T13:41:17.999Z</time>
      </trkpt>
      <trkpt lat="44.63174" lon="4.44281">
        <ele>482.89</ele>
        <time>2019-12-15T13:41:20.999Z</time>
      </trkpt>
      <trkpt lat="44.63164" lon="4.44283">
        <ele>482.71</ele>
        <time>2019-12-15T13:41:24.999Z</time>
      </trkpt>
      <trkpt lat="44.63154" lon="4.44279">
        <ele>482.55</ele>
        <time>2019-12-15T13:41:28.999Z</time>
      </trkpt>
      <trkpt lat="44.63145" lon="4.44274">
        <ele>482.36</ele>
        <time>2019-12-15T13:41:33.999Z</time>
      </trkpt>
      <trkpt lat="44.63135" lon="4.44272">
        <ele>482.22</ele>
        <time>2019-12-15T13:41:37.999Z</time>
      </trkpt>
      <trkpt lat="44.63125" lon="4.44268">
        <ele>482.09</ele>
        <time>2019-12-15T13:41:41.999Z</time>
      </trkpt>
      <trkpt lat="44.63114" lon="4.44264">
        <ele>481.97</ele>
        <time>2019-12-15T13:41:45.999Z</time>
      </trkpt>
      <trkpt lat="44.63104" lon="4.44259">
        <ele>481.87</ele>
        <time>2019-12-15T13:41:48.999Z</time>
      </trkpt>
      <trkpt lat="44.63092" lon="4.44257">
        <ele>481.75</ele>
        <time>2019-12-15T13:41:52.999Z</time>
      </trkpt>
      <trkpt lat="44.63083" lon="4.44252">
        <ele>481.63</ele>
        <time>2019-12-15T13:41:56.999Z</time>
      </trkpt>
      <trkpt lat="44.63073" lon="4.44245">
        <ele>481.51</ele>
        <time>2019-12-15T13:42:00.999Z</time>
      </trkpt>
      <trkpt lat="44.63064" lon="4.44238">
        <ele>481.38</ele>
        <time>2019-12-15T13:42:05.999Z</time>
      </trkpt>
      <trkpt lat="44.63055" lon="4.44231">
        <ele>481.29</ele>
        <time>2019-12-15T13:42:09.999Z</time>
      </trkpt>
      <trkpt lat="44.63046" lon="4.44223">
        <ele>481.2</ele>
        <time>2019-12-15T13:42:13.999Z</time>
      </trkpt>
      <trkpt lat="44.63038" lon="4.44212">
        <ele>481.13</ele>
        <time>2019-12-15T13:42:17.999Z</time>
      </trkpt>
      <trkpt lat="44.6303" lon="4.44202">
        <ele>481.06</ele>
        <time>2019-12-15T13:42:21.999Z</time>
      </trkpt>
      <trkpt lat="44.63023" lon="4.44193">
        <ele>480.88</ele>
        <time>2019-12-15T13:42:32.999Z</time>
      </trkpt>
      <trkpt lat="44.63016" lon="4.44183">
        <ele>480.83</ele>
        <time>2019-12-15T13:42:35.999Z</time>
      </trkpt>
      <trkpt lat="44.63008" lon="4.44172">
        <ele>480.77</ele>
        <time>2019-12-15T13:42:38.999Z</time>
      </trkpt>
      <trkpt lat="44.63001" lon="4.44158">
        <ele>480.7</ele>
        <time>2019-12-15T13:42:42.999Z</time>
      </trkpt>
      <trkpt lat="44.62996" lon="4.44144">
        <ele>480.61</ele>
        <time>2019-12-15T13:42:46.999Z</time>
      </trkpt>
      <trkpt lat="44.62989" lon="4.44132">
        <ele>480.55</ele>
        <time>2019-12-15T13:42:49.999Z</time>
      </trkpt>
      <trkpt lat="44.62982" lon="4.44119">
        <ele>480.14</ele>
        <time>2019-12-15T13:42:52.999Z</time>
      </trkpt>
      <trkpt lat="44.62975" lon="4.44108">
        <ele>480.1</ele>
        <time>2019-12-15T13:42:55.999Z</time>
      </trkpt>
      <trkpt lat="44.62967" lon="4.44096">
        <ele>479.79</ele>
        <time>2019-12-15T13:42:58.999Z</time>
      </trkpt>
      <trkpt lat="44.62957" lon="4.44087">
        <ele>479.57</ele>
        <time>2019-12-15T13:43:01.999Z</time>
      </trkpt>
      <trkpt lat="44.62946" lon="4.4408">
        <ele>479.41</ele>
        <time>2019-12-15T13:43:04.999Z</time>
      </trkpt>
      <trkpt lat="44.62935" lon="4.44073">
        <ele>479.34</ele>
        <time>2019-12-15T13:43:07.999Z</time>
      </trkpt>
      <trkpt lat="44.62923" lon="4.44069">
        <ele>479.2</ele>
        <time>2019-12-15T13:43:10.999Z</time>
      </trkpt>
      <trkpt lat="44.62913" lon="4.44064">
        <ele>479.18</ele>
        <time>2019-12-15T13:43:13.999Z</time>
      </trkpt>
      <trkpt lat="44.62904" lon="4.44059">
        <ele>479.16</ele>
        <time>2019-12-15T13:43:16.999Z</time>
      </trkpt>
      <trkpt lat="44.62897" lon="4.44051">
        <ele>479.13</ele>
        <time>2019-12-15T13:43:20.999Z</time>
      </trkpt>
      <trkpt lat="44.6289" lon="4.44039">
        <ele>479.11</ele>
        <time>2019-12-15T13:43:23.999Z</time>
      </trkpt>
      <trkpt lat="44.62879" lon="4.44032">
        <ele>479.06</ele>
        <time>2019-12-15T13:43:27.999Z</time>
      </trkpt>
      <trkpt lat="44.62869" lon="4.44028">
        <ele>479.01</ele>
        <time>2019-12-15T13:43:31.999Z</time>
      </trkpt>
      <trkpt lat="44.62859" lon="4.44027">
        <ele>478.83</ele>
        <time>2019-12-15T13:43:34.999Z</time>
      </trkpt>
      <trkpt lat="44.62849" lon="4.44022">
        <ele>478.6</ele>
        <time>2019-12-15T13:43:36.999Z</time>
      </trkpt>
      <trkpt lat="44.6284" lon="4.4402">
        <ele>478.58</ele>
        <time>2019-12-15T13:43:38.999Z</time>
      </trkpt>
      <trkpt lat="44.6283" lon="4.44014">
        <ele>478.55</ele>
        <time>2019-12-15T13:43:41.999Z</time>
      </trkpt>
      <trkpt lat="44.62818" lon="4.4401">
        <ele>478.42</ele>
        <time>2019-12-15T13:43:44.999Z</time>
      </trkpt>
      <trkpt lat="44.62809" lon="4.44009">
        <ele>477.94</ele>
        <time>2019-12-15T13:44:32.999Z</time>
      </trkpt>
      <trkpt lat="44.62802" lon="4.43998">
        <ele>477.84</ele>
        <time>2019-12-15T13:44:35.999Z</time>
      </trkpt>
      <trkpt lat="44.62794" lon="4.43989">
        <ele>477.74</ele>
        <time>2019-12-15T13:44:38.999Z</time>
      </trkpt>
      <trkpt lat="44.62793" lon="4.43974">
        <ele>477.64</ele>
        <time>2019-12-15T13:44:41.999Z</time>
      </trkpt>
      <trkpt lat="44.62784" lon="4.43964">
        <ele>477.32</ele>
        <time>2019-12-15T13:44:50.999Z</time>
      </trkpt>
      <trkpt lat="44.62777" lon="4.43955">
        <ele>477.18</ele>
        <time>2019-12-15T13:44:54.999Z</time>
      </trkpt>
      <trkpt lat="44.6277" lon="4.43947">
        <ele>477.03</ele>
        <time>2019-12-15T13:44:58.999Z</time>
      </trkpt>
      <trkpt lat="44.62759" lon="4.43947">
        <ele>476.93</ele>
        <time>2019-12-15T13:45:01.999Z</time>
      </trkpt>
      <trkpt lat="44.6275" lon="4.43957">
        <ele>476.82</ele>
        <time>2019-12-15T13:45:04.999Z</time>
      </trkpt>
      <trkpt lat="44.62741" lon="4.43964">
        <ele>476.68</ele>
        <time>2019-12-15T13:45:08.999Z</time>
      </trkpt>
      <trkpt lat="44.62732" lon="4.43969">
        <ele>476.57</ele>
        <time>2019-12-15T13:45:11.999Z</time>
      </trkpt>
      <trkpt lat="44.62723" lon="4.43971">
        <ele>476.46</ele>
        <time>2019-12-15T13:45:14.999Z</time>
      </trkpt>
      <trkpt lat="44.62713" lon="4.43965">
        <ele>475.92</ele>
        <time>2019-12-15T13:45:17.999Z</time>
      </trkpt>
      <trkpt lat="44.62703" lon="4.43961">
        <ele>475.79</ele>
        <time>2019-12-15T13:45:20.999Z</time>
      </trkpt>
      <trkpt lat="44.62692" lon="4.43955">
        <ele>475.49</ele>
        <time>2019-12-15T13:45:26.999Z</time>
      </trkpt>
      <trkpt lat="44.62681" lon="4.43964">
        <ele>474.87</ele>
        <time>2019-12-15T13:45:29.999Z</time>
      </trkpt>
      <trkpt lat="44.62669" lon="4.43966">
        <ele>474.28</ele>
        <time>2019-12-15T13:45:32.999Z</time>
      </trkpt>
      <trkpt lat="44.6266" lon="4.43969">
        <ele>474.09</ele>
        <time>2019-12-15T13:45:36.999Z</time>
      </trkpt>
      <trkpt lat="44.62648" lon="4.43973">
        <ele>472.81</ele>
        <time>2019-12-15T13:45:39.999Z</time>
      </trkpt>
      <trkpt lat="44.62638" lon="4.43976">
        <ele>472.21</ele>
        <time>2019-12-15T13:45:41.999Z</time>
      </trkpt>
      <trkpt lat="44.62628" lon="4.43977">
        <ele>471.72</ele>
        <time>2019-12-15T13:45:43.999Z</time>
      </trkpt>
      <trkpt lat="44.62617" lon="4.43978">
        <ele>471.3</ele>
        <time>2019-12-15T13:45:45.999Z</time>
      </trkpt>
      <trkpt lat="44.62606" lon="4.4398">
        <ele>470.92</ele>
        <time>2019-12-15T13:45:47.999Z</time>
      </trkpt>
      <trkpt lat="44.62595" lon="4.43979">
        <ele>470.36</ele>
        <time>2019-12-15T13:45:49.999Z</time>
      </trkpt>
      <trkpt lat="44.62586" lon="4.43979">
        <ele>469.45</ele>
        <time>2019-12-15T13:45:51.999Z</time>
      </trkpt>
      <trkpt lat="44.62572" lon="4.4398">
        <ele>467.61</ele>
        <time>2019-12-15T13:45:54.999Z</time>
      </trkpt>
      <trkpt lat="44.6256" lon="4.43979">
        <ele>465.39</ele>
        <time>2019-12-15T13:45:57.999Z</time>
      </trkpt>
      <trkpt lat="44.62548" lon="4.43978">
        <ele>463.52</ele>
        <time>2019-12-15T13:46:00.999Z</time>
      </trkpt>
      <trkpt lat="44.62539" lon="4.43977">
        <ele>462.55</ele>
        <time>2019-12-15T13:46:02.999Z</time>
      </trkpt>
      <trkpt lat="44.62529" lon="4.43976">
        <ele>462.26</ele>
        <time>2019-12-15T13:46:05.999Z</time>
      </trkpt>
      <trkpt lat="44.6252" lon="4.43975">
        <ele>461.9</ele>
        <time>2019-12-15T13:46:08.999Z</time>
      </trkpt>
      <trkpt lat="44.62518" lon="4.43962">
        <ele>461.44</ele>
        <time>2019-12-15T13:46:11.999Z</time>
      </trkpt>
      <trkpt lat="44.62509" lon="4.43955">
        <ele>458.65</ele>
        <time>2019-12-15T13:46:39.999Z</time>
      </trkpt>
      <trkpt lat="44.625" lon="4.43942">
        <ele>455.44</ele>
        <time>2019-12-15T13:46:43.999Z</time>
      </trkpt>
      <trkpt lat="44.625" lon="4.43927">
        <ele>453.27</ele>
        <time>2019-12-15T13:46:45.999Z</time>
      </trkpt>
      <trkpt lat="44.625" lon="4.43911">
        <ele>452.79</ele>
        <time>2019-12-15T13:46:48.999Z</time>
      </trkpt>
      <trkpt lat="44.62493" lon="4.43897">
        <ele>452.17</ele>
        <time>2019-12-15T13:46:52.999Z</time>
      </trkpt>
      <trkpt lat="44.62488" lon="4.43886">
        <ele>451.73</ele>
        <time>2019-12-15T13:46:55.999Z</time>
      </trkpt>
      <trkpt lat="44.62483" lon="4.43873">
        <ele>451.3</ele>
        <time>2019-12-15T13:46:58.999Z</time>
      </trkpt>
      <trkpt lat="44.62477" lon="4.43861">
        <ele>450.89</ele>
        <time>2019-12-15T13:47:01.999Z</time>
      </trkpt>
      <trkpt lat="44.62475" lon="4.43845">
        <ele>449.15</ele>
        <time>2019-12-15T13:47:05.999Z</time>
      </trkpt>
      <trkpt lat="44.62474" lon="4.43828">
        <ele>448.82</ele>
        <time>2019-12-15T13:47:08.999Z</time>
      </trkpt>
      <trkpt lat="44.62468" lon="4.43812">
        <ele>446.75</ele>
        <time>2019-12-15T13:47:11.999Z</time>
      </trkpt>
      <trkpt lat="44.62462" lon="4.43798">
        <ele>446.54</ele>
        <time>2019-12-15T13:47:14.999Z</time>
      </trkpt>
      <trkpt lat="44.62454" lon="4.43786">
        <ele>445.69</ele>
        <time>2019-12-15T13:47:17.999Z</time>
      </trkpt>
      <trkpt lat="44.62445" lon="4.43776">
        <ele>445.01</ele>
        <time>2019-12-15T13:47:20.999Z</time>
      </trkpt>
      <trkpt lat="44.62442" lon="4.43763">
        <ele>444.86</ele>
        <time>2019-12-15T13:47:23.999Z</time>
      </trkpt>
      <trkpt lat="44.62432" lon="4.43752">
        <ele>444.25</ele>
        <time>2019-12-15T13:47:26.999Z</time>
      </trkpt>
      <trkpt lat="44.62426" lon="4.43738">
        <ele>444.12</ele>
        <time>2019-12-15T13:47:29.999Z</time>
      </trkpt>
      <trkpt lat="44.62418" lon="4.43726">
        <ele>443.99</ele>
        <time>2019-12-15T13:47:32.999Z</time>
      </trkpt>
      <trkpt lat="44.62414" lon="4.43712">
        <ele>443.8</ele>
        <time>2019-12-15T13:47:36.999Z</time>
      </trkpt>
      <trkpt lat="44.62403" lon="4.43704">
        <ele>443.66</ele>
        <time>2019-12-15T13:47:39.999Z</time>
      </trkpt>
      <trkpt lat="44.62394" lon="4.43695">
        <ele>443.51</ele>
        <time>2019-12-15T13:47:42.999Z</time>
      </trkpt>
      <trkpt lat="44.62392" lon="4.43681">
        <ele>443.11</ele>
        <time>2019-12-15T13:47:49.999Z</time>
      </trkpt>
      <trkpt lat="44.62384" lon="4.43673">
        <ele>442.6</ele>
        <time>2019-12-15T13:48:02.999Z</time>
      </trkpt>
      <trkpt lat="44.62377" lon="4.4366">
        <ele>442.4</ele>
        <time>2019-12-15T13:48:05.999Z</time>
      </trkpt>
      <trkpt lat="44.62375" lon="4.43647">
        <ele>441.45</ele>
        <time>2019-12-15T13:48:20.999Z</time>
      </trkpt>
      <trkpt lat="44.62371" lon="4.43634">
        <ele>441.04</ele>
        <time>2019-12-15T13:48:24.999Z</time>
      </trkpt>
      <trkpt lat="44.62361" lon="4.43628">
        <ele>440.48</ele>
        <time>2019-12-15T13:48:29.999Z</time>
      </trkpt>
      <trkpt lat="44.62355" lon="4.43619">
        <ele>440.01</ele>
        <time>2019-12-15T13:48:33.999Z</time>
      </trkpt>
      <trkpt lat="44.62352" lon="4.43606">
        <ele>439.63</ele>
        <time>2019-12-15T13:48:36.999Z</time>
      </trkpt>
      <trkpt lat="44.62346" lon="4.43592">
        <ele>439.08</ele>
        <time>2019-12-15T13:48:40.999Z</time>
      </trkpt>
      <trkpt lat="44.62337" lon="4.43581">
        <ele>438.62</ele>
        <time>2019-12-15T13:48:43.999Z</time>
      </trkpt>
      <trkpt lat="44.62329" lon="4.4357">
        <ele>437.93</ele>
        <time>2019-12-15T13:48:47.999Z</time>
      </trkpt>
      <trkpt lat="44.62322" lon="4.4356">
        <ele>437.2</ele>
        <time>2019-12-15T13:48:51.999Z</time>
      </trkpt>
      <trkpt lat="44.62317" lon="4.43548">
        <ele>436.64</ele>
        <time>2019-12-15T13:48:54.999Z</time>
      </trkpt>
      <trkpt lat="44.6231" lon="4.43539">
        <ele>436.26</ele>
        <time>2019-12-15T13:48:56.999Z</time>
      </trkpt>
      <trkpt lat="44.62301" lon="4.43531">
        <ele>435.64</ele>
        <time>2019-12-15T13:48:59.999Z</time>
      </trkpt>
      <trkpt lat="44.62294" lon="4.43522">
        <ele>435</ele>
        <time>2019-12-15T13:49:02.999Z</time>
      </trkpt>
      <trkpt lat="44.62294" lon="4.43507">
        <ele>434.3</ele>
        <time>2019-12-15T13:49:05.999Z</time>
      </trkpt>
      <trkpt lat="44.62289" lon="4.43497">
        <ele>433.51</ele>
        <time>2019-12-15T13:49:08.999Z</time>
      </trkpt>
      <trkpt lat="44.62279" lon="4.43487">
        <ele>432.62</ele>
        <time>2019-12-15T13:49:11.999Z</time>
      </trkpt>
      <trkpt lat="44.62267" lon="4.43482">
        <ele>431.33</ele>
        <time>2019-12-15T13:49:15.999Z</time>
      </trkpt>
      <trkpt lat="44.62259" lon="4.43476">
        <ele>429.98</ele>
        <time>2019-12-15T13:49:19.999Z</time>
      </trkpt>
      <trkpt lat="44.62253" lon="4.43465">
        <ele>428.93</ele>
        <time>2019-12-15T13:49:22.999Z</time>
      </trkpt>
      <trkpt lat="44.62248" lon="4.43453">
        <ele>427.13</ele>
        <time>2019-12-15T13:49:27.999Z</time>
      </trkpt>
      <trkpt lat="44.62241" lon="4.43444">
        <ele>422.62</ele>
        <time>2019-12-15T13:49:31.999Z</time>
      </trkpt>
      <trkpt lat="44.62234" lon="4.43433">
        <ele>421.76</ele>
        <time>2019-12-15T13:49:34.999Z</time>
      </trkpt>
      <trkpt lat="44.62227" lon="4.43422">
        <ele>420.62</ele>
        <time>2019-12-15T13:49:38.999Z</time>
      </trkpt>
      <trkpt lat="44.62218" lon="4.43417">
        <ele>416.34</ele>
        <time>2019-12-15T13:49:58.999Z</time>
      </trkpt>
      <trkpt lat="44.62211" lon="4.43429">
        <ele>393.2</ele>
        <time>2019-12-15T13:54:26.000Z</time>
      </trkpt>
      <trkpt lat="44.62206" lon="4.43443">
        <ele>390.66</ele>
        <time>2019-12-15T13:54:31.000Z</time>
      </trkpt>
      <trkpt lat="44.622" lon="4.43458">
        <ele>389.01</ele>
        <time>2019-12-15T13:54:34.000Z</time>
      </trkpt>
      <trkpt lat="44.62194" lon="4.43472">
        <ele>386.95</ele>
        <time>2019-12-15T13:54:37.000Z</time>
      </trkpt>
      <trkpt lat="44.62189" lon="4.43483">
        <ele>386.75</ele>
        <time>2019-12-15T13:54:40.000Z</time>
      </trkpt>
      <trkpt lat="44.6218" lon="4.43495">
        <ele>386.49</ele>
        <time>2019-12-15T13:54:44.000Z</time>
      </trkpt>
      <trkpt lat="44.6217" lon="4.43501">
        <ele>386.25</ele>
        <time>2019-12-15T13:54:48.000Z</time>
      </trkpt>
      <trkpt lat="44.62159" lon="4.43503">
        <ele>386.02</ele>
        <time>2019-12-15T13:54:52.000Z</time>
      </trkpt>
      <trkpt lat="44.62148" lon="4.43509">
        <ele>384.64</ele>
        <time>2019-12-15T13:54:55.000Z</time>
      </trkpt>
      <trkpt lat="44.62138" lon="4.43515">
        <ele>384.29</ele>
        <time>2019-12-15T13:54:58.000Z</time>
      </trkpt>
      <trkpt lat="44.62141" lon="4.43502">
        <ele>383.94</ele>
        <time>2019-12-15T13:55:12.000Z</time>
      </trkpt>
      <trkpt lat="44.62146" lon="4.43487">
        <ele>383.82</ele>
        <time>2019-12-15T13:55:16.000Z</time>
      </trkpt>
      <trkpt lat="44.62149" lon="4.43474">
        <ele>383.73</ele>
        <time>2019-12-15T13:55:19.000Z</time>
      </trkpt>
      <trkpt lat="44.62152" lon="4.43459">
        <ele>383.61</ele>
        <time>2019-12-15T13:55:23.000Z</time>
      </trkpt>
      <trkpt lat="44.62152" lon="4.43445">
        <ele>383.45</ele>
        <time>2019-12-15T13:55:28.000Z</time>
      </trkpt>
      <trkpt lat="44.62151" lon="4.43431">
        <ele>383.35</ele>
        <time>2019-12-15T13:55:31.000Z</time>
      </trkpt>
      <trkpt lat="44.62147" lon="4.43415">
        <ele>383.2</ele>
        <time>2019-12-15T13:55:35.000Z</time>
      </trkpt>
      <trkpt lat="44.62146" lon="4.43401">
        <ele>383.07</ele>
        <time>2019-12-15T13:55:38.000Z</time>
      </trkpt>
      <trkpt lat="44.62145" lon="4.43387">
        <ele>382.74</ele>
        <time>2019-12-15T13:55:44.000Z</time>
      </trkpt>
      <trkpt lat="44.62143" lon="4.43375">
        <ele>382.2</ele>
        <time>2019-12-15T13:55:55.000Z</time>
      </trkpt>
      <trkpt lat="44.62143" lon="4.4336">
        <ele>381.43</ele>
        <time>2019-12-15T13:56:07.000Z</time>
      </trkpt>
      <trkpt lat="44.62148" lon="4.43346">
        <ele>381.13</ele>
        <time>2019-12-15T13:56:11.000Z</time>
      </trkpt>
      <trkpt lat="44.62138" lon="4.43352">
        <ele>379.48</ele>
        <time>2019-12-15T13:56:23.000Z</time>
      </trkpt>
      <trkpt lat="44.62133" lon="4.43366">
        <ele>378.57</ele>
        <time>2019-12-15T13:56:26.000Z</time>
      </trkpt>
      <trkpt lat="44.62128" lon="4.43378">
        <ele>377.76</ele>
        <time>2019-12-15T13:56:29.000Z</time>
      </trkpt>
      <trkpt lat="44.62124" lon="4.4339">
        <ele>376.77</ele>
        <time>2019-12-15T13:56:31.000Z</time>
      </trkpt>
      <trkpt lat="44.62119" lon="4.43406">
        <ele>375.91</ele>
        <time>2019-12-15T13:56:34.000Z</time>
      </trkpt>
      <trkpt lat="44.62118" lon="4.43423">
        <ele>375.67</ele>
        <time>2019-12-15T13:56:37.000Z</time>
      </trkpt>
      <trkpt lat="44.62117" lon="4.43439">
        <ele>375.41</ele>
        <time>2019-12-15T13:56:40.000Z</time>
      </trkpt>
      <trkpt lat="44.62112" lon="4.43449">
        <ele>374.29</ele>
        <time>2019-12-15T13:56:43.000Z</time>
      </trkpt>
      <trkpt lat="44.62102" lon="4.43448">
        <ele>373.79</ele>
        <time>2019-12-15T13:56:47.000Z</time>
      </trkpt>
      <trkpt lat="44.62092" lon="4.43449">
        <ele>371.44</ele>
        <time>2019-12-15T13:56:51.000Z</time>
      </trkpt>
      <trkpt lat="44.6208" lon="4.43456">
        <ele>370.5</ele>
        <time>2019-12-15T13:56:56.000Z</time>
      </trkpt>
      <trkpt lat="44.62072" lon="4.43461">
        <ele>369.89</ele>
        <time>2019-12-15T13:56:59.000Z</time>
      </trkpt>
      <trkpt lat="44.62061" lon="4.43468">
        <ele>367.42</ele>
        <time>2019-12-15T13:57:02.000Z</time>
      </trkpt>
      <trkpt lat="44.62051" lon="4.43476">
        <ele>366.9</ele>
        <time>2019-12-15T13:57:05.000Z</time>
      </trkpt>
      <trkpt lat="44.62043" lon="4.43482">
        <ele>366.23</ele>
        <time>2019-12-15T13:57:08.000Z</time>
      </trkpt>
      <trkpt lat="44.62033" lon="4.43492">
        <ele>365.25</ele>
        <time>2019-12-15T13:57:12.000Z</time>
      </trkpt>
      <trkpt lat="44.62024" lon="4.435">
        <ele>364.56</ele>
        <time>2019-12-15T13:57:15.000Z</time>
      </trkpt>
      <trkpt lat="44.62017" lon="4.43508">
        <ele>360.19</ele>
        <time>2019-12-15T13:57:17.000Z</time>
      </trkpt>
      <trkpt lat="44.62008" lon="4.43513">
        <ele>356.85</ele>
        <time>2019-12-15T13:57:19.000Z</time>
      </trkpt>
      <trkpt lat="44.62" lon="4.43523">
        <ele>354.85</ele>
        <time>2019-12-15T13:57:22.000Z</time>
      </trkpt>
      <trkpt lat="44.61993" lon="4.43531">
        <ele>352.32</ele>
        <time>2019-12-15T13:57:24.000Z</time>
      </trkpt>
      <trkpt lat="44.61984" lon="4.43537">
        <ele>350.08</ele>
        <time>2019-12-15T13:57:26.000Z</time>
      </trkpt>
      <trkpt lat="44.61975" lon="4.43546">
        <ele>348.19</ele>
        <time>2019-12-15T13:57:28.000Z</time>
      </trkpt>
      <trkpt lat="44.61966" lon="4.43551">
        <ele>347.15</ele>
        <time>2019-12-15T13:57:30.000Z</time>
      </trkpt>
      <trkpt lat="44.61961" lon="4.43563">
        <ele>346.77</ele>
        <time>2019-12-15T13:57:34.000Z</time>
      </trkpt>
      <trkpt lat="44.61954" lon="4.43552">
        <ele>345.88</ele>
        <time>2019-12-15T13:57:40.000Z</time>
      </trkpt>
      <trkpt lat="44.6196" lon="4.43541">
        <ele>343.73</ele>
        <time>2019-12-15T13:57:51.000Z</time>
      </trkpt>
      <trkpt lat="44.61963" lon="4.43527">
        <ele>338.79</ele>
        <time>2019-12-15T13:57:54.000Z</time>
      </trkpt>
      <trkpt lat="44.61968" lon="4.43513">
        <ele>335.08</ele>
        <time>2019-12-15T13:57:56.000Z</time>
      </trkpt>
      <trkpt lat="44.61974" lon="4.43497">
        <ele>332.07</ele>
        <time>2019-12-15T13:57:58.000Z</time>
      </trkpt>
      <trkpt lat="44.61977" lon="4.43482">
        <ele>329.79</ele>
        <time>2019-12-15T13:58:00.000Z</time>
      </trkpt>
      <trkpt lat="44.6198" lon="4.43467">
        <ele>328</ele>
        <time>2019-12-15T13:58:02.000Z</time>
      </trkpt>
      <trkpt lat="44.61984" lon="4.43454">
        <ele>326.53</ele>
        <time>2019-12-15T13:58:04.000Z</time>
      </trkpt>
      <trkpt lat="44.61986" lon="4.43438">
        <ele>325.2</ele>
        <time>2019-12-15T13:58:06.000Z</time>
      </trkpt>
      <trkpt lat="44.6199" lon="4.43424">
        <ele>323.7</ele>
        <time>2019-12-15T13:58:08.000Z</time>
      </trkpt>
      <trkpt lat="44.61991" lon="4.4341">
        <ele>323.41</ele>
        <time>2019-12-15T13:58:11.000Z</time>
      </trkpt>
      <trkpt lat="44.61984" lon="4.43419">
        <ele>322.81</ele>
        <time>2019-12-15T13:58:15.000Z</time>
      </trkpt>
      <trkpt lat="44.61975" lon="4.43428">
        <ele>319.23</ele>
        <time>2019-12-15T13:58:18.000Z</time>
      </trkpt>
      <trkpt lat="44.61967" lon="4.43436">
        <ele>316.82</ele>
        <time>2019-12-15T13:58:20.000Z</time>
      </trkpt>
      <trkpt lat="44.61958" lon="4.43448">
        <ele>314.4</ele>
        <time>2019-12-15T13:58:23.000Z</time>
      </trkpt>
      <trkpt lat="44.61949" lon="4.43458">
        <ele>313.34</ele>
        <time>2019-12-15T13:58:25.000Z</time>
      </trkpt>
      <trkpt lat="44.61943" lon="4.43468">
        <ele>312.34</ele>
        <time>2019-12-15T13:58:27.000Z</time>
      </trkpt>
      <trkpt lat="44.61933" lon="4.43477">
        <ele>311.34</ele>
        <time>2019-12-15T13:58:29.000Z</time>
      </trkpt>
      <trkpt lat="44.61924" lon="4.43488">
        <ele>310.38</ele>
        <time>2019-12-15T13:58:31.000Z</time>
      </trkpt>
      <trkpt lat="44.61913" lon="4.43501">
        <ele>309.4</ele>
        <time>2019-12-15T13:58:33.000Z</time>
      </trkpt>
      <trkpt lat="44.61901" lon="4.43513">
        <ele>307.66</ele>
        <time>2019-12-15T13:58:35.000Z</time>
      </trkpt>
      <trkpt lat="44.6189" lon="4.43523">
        <ele>305.29</ele>
        <time>2019-12-15T13:58:37.000Z</time>
      </trkpt>
      <trkpt lat="44.6188" lon="4.43531">
        <ele>303.47</ele>
        <time>2019-12-15T13:58:39.000Z</time>
      </trkpt>
      <trkpt lat="44.61877" lon="4.43544">
        <ele>302.6</ele>
        <time>2019-12-15T13:58:42.000Z</time>
      </trkpt>
      <trkpt lat="44.61875" lon="4.43559">
        <ele>301.27</ele>
        <time>2019-12-15T13:58:45.000Z</time>
      </trkpt>
      <trkpt lat="44.61864" lon="4.43552">
        <ele>290.3</ele>
        <time>2019-12-15T13:58:50.000Z</time>
      </trkpt>
      <trkpt lat="44.6186" lon="4.4354">
        <ele>289.17</ele>
        <time>2019-12-15T13:58:53.000Z</time>
      </trkpt>
      <trkpt lat="44.61851" lon="4.43542">
        <ele>286.9</ele>
        <time>2019-12-15T13:58:59.000Z</time>
      </trkpt>
      <trkpt lat="44.61845" lon="4.43552">
        <ele>283.61</ele>
        <time>2019-12-15T13:59:13.000Z</time>
      </trkpt>
      <trkpt lat="44.6184" lon="4.43564">
        <ele>282.48</ele>
        <time>2019-12-15T13:59:17.000Z</time>
      </trkpt>
      <trkpt lat="44.61835" lon="4.43576">
        <ele>281.44</ele>
        <time>2019-12-15T13:59:21.000Z</time>
      </trkpt>
      <trkpt lat="44.6183" lon="4.43588">
        <ele>280.71</ele>
        <time>2019-12-15T13:59:24.000Z</time>
      </trkpt>
      <trkpt lat="44.61825" lon="4.43601">
        <ele>280.02</ele>
        <time>2019-12-15T13:59:27.000Z</time>
      </trkpt>
      <trkpt lat="44.61821" lon="4.43614">
        <ele>279.38</ele>
        <time>2019-12-15T13:59:30.000Z</time>
      </trkpt>
      <trkpt lat="44.61815" lon="4.43627">
        <ele>278.78</ele>
        <time>2019-12-15T13:59:33.000Z</time>
      </trkpt>
      <trkpt lat="44.6181" lon="4.43641">
        <ele>278.03</ele>
        <time>2019-12-15T13:59:37.000Z</time>
      </trkpt>
      <trkpt lat="44.61805" lon="4.43654">
        <ele>277.5</ele>
        <time>2019-12-15T13:59:40.000Z</time>
      </trkpt>
      <trkpt lat="44.61799" lon="4.43664">
        <ele>277.01</ele>
        <time>2019-12-15T13:59:43.000Z</time>
      </trkpt>
      <trkpt lat="44.61794" lon="4.43679">
        <ele>276.4</ele>
        <time>2019-12-15T13:59:47.000Z</time>
      </trkpt>
      <trkpt lat="44.61791" lon="4.43692">
        <ele>275.97</ele>
        <time>2019-12-15T13:59:50.000Z</time>
      </trkpt>
      <trkpt lat="44.61792" lon="4.43706">
        <ele>275.44</ele>
        <time>2019-12-15T13:59:54.000Z</time>
      </trkpt>
      <trkpt lat="44.61797" lon="4.43721">
        <ele>274.84</ele>
        <time>2019-12-15T13:59:59.000Z</time>
      </trkpt>
      <trkpt lat="44.61803" lon="4.4373">
        <ele>274.41</ele>
        <time>2019-12-15T14:00:03.000Z</time>
      </trkpt>
      <trkpt lat="44.61812" lon="4.43739">
        <ele>274</ele>
        <time>2019-12-15T14:00:07.000Z</time>
      </trkpt>
      <trkpt lat="44.61819" lon="4.43747">
        <ele>273.53</ele>
        <time>2019-12-15T14:00:12.000Z</time>
      </trkpt>
      <trkpt lat="44.61826" lon="4.43756">
        <ele>273.19</ele>
        <time>2019-12-15T14:00:16.000Z</time>
      </trkpt>
      <trkpt lat="44.61834" lon="4.43763">
        <ele>272.8</ele>
        <time>2019-12-15T14:00:21.000Z</time>
      </trkpt>
      <trkpt lat="44.61842" lon="4.4377">
        <ele>272.39</ele>
        <time>2019-12-15T14:00:27.000Z</time>
      </trkpt>
      <trkpt lat="44.6185" lon="4.43781">
        <ele>272.09</ele>
        <time>2019-12-15T14:00:32.000Z</time>
      </trkpt>
      <trkpt lat="44.61858" lon="4.43787">
        <ele>271.81</ele>
        <time>2019-12-15T14:00:37.000Z</time>
      </trkpt>
      <trkpt lat="44.61867" lon="4.43794">
        <ele>271.56</ele>
        <time>2019-12-15T14:00:42.000Z</time>
      </trkpt>
      <trkpt lat="44.61876" lon="4.43799">
        <ele>271.37</ele>
        <time>2019-12-15T14:00:46.000Z</time>
      </trkpt>
      <trkpt lat="44.61885" lon="4.43807">
        <ele>271.16</ele>
        <time>2019-12-15T14:00:51.000Z</time>
      </trkpt>
      <trkpt lat="44.61895" lon="4.43813">
        <ele>271.01</ele>
        <time>2019-12-15T14:00:55.000Z</time>
      </trkpt>
      <trkpt lat="44.61902" lon="4.43821">
        <ele>270.87</ele>
        <time>2019-12-15T14:00:59.000Z</time>
      </trkpt>
      <trkpt lat="44.61903" lon="4.43835">
        <ele>270.72</ele>
        <time>2019-12-15T14:01:04.000Z</time>
      </trkpt>
      <trkpt lat="44.619" lon="4.43848">
        <ele>270.6</ele>
        <time>2019-12-15T14:01:09.000Z</time>
      </trkpt>
      <trkpt lat="44.61893" lon="4.43858">
        <ele>270.48</ele>
        <time>2019-12-15T14:01:15.000Z</time>
      </trkpt>
      <trkpt lat="44.61884" lon="4.43866">
        <ele>270.37</ele>
        <time>2019-12-15T14:01:22.000Z</time>
      </trkpt>
      <trkpt lat="44.61876" lon="4.43871">
        <ele>270.33</ele>
        <time>2019-12-15T14:01:27.000Z</time>
      </trkpt>
      <trkpt lat="44.61868" lon="4.4388">
        <ele>270.37</ele>
        <time>2019-12-15T14:01:51.000Z</time>
      </trkpt>
      <trkpt lat="44.61858" lon="4.43889">
        <ele>270.45</ele>
        <time>2019-12-15T14:01:56.000Z</time>
      </trkpt>
      <trkpt lat="44.61852" lon="4.43898">
        <ele>270.52</ele>
        <time>2019-12-15T14:02:00.000Z</time>
      </trkpt>
      <trkpt lat="44.61847" lon="4.43911">
        <ele>270.59</ele>
        <time>2019-12-15T14:02:04.000Z</time>
      </trkpt>
      <trkpt lat="44.61842" lon="4.43925">
        <ele>270.67</ele>
        <time>2019-12-15T14:02:08.000Z</time>
      </trkpt>
      <trkpt lat="44.61837" lon="4.43937">
        <ele>270.75</ele>
        <time>2019-12-15T14:02:12.000Z</time>
      </trkpt>
      <trkpt lat="44.61835" lon="4.43952">
        <ele>270.83</ele>
        <time>2019-12-15T14:02:16.000Z</time>
      </trkpt>
      <trkpt lat="44.61833" lon="4.43967">
        <ele>270.92</ele>
        <time>2019-12-15T14:02:20.000Z</time>
      </trkpt>
      <trkpt lat="44.61835" lon="4.43981">
        <ele>271.01</ele>
        <time>2019-12-15T14:02:25.000Z</time>
      </trkpt>
      <trkpt lat="44.6184" lon="4.43996">
        <ele>271.11</ele>
        <time>2019-12-15T14:02:30.000Z</time>
      </trkpt>
      <trkpt lat="44.61843" lon="4.44008">
        <ele>271.18</ele>
        <time>2019-12-15T14:02:34.000Z</time>
      </trkpt>
      <trkpt lat="44.61847" lon="4.4402">
        <ele>271.24</ele>
        <time>2019-12-15T14:02:38.000Z</time>
      </trkpt>
      <trkpt lat="44.61851" lon="4.44032">
        <ele>271.29</ele>
        <time>2019-12-15T14:02:45.000Z</time>
      </trkpt>
      <trkpt lat="44.61858" lon="4.44041">
        <ele>271.78</ele>
        <time>2019-12-15T14:03:10.000Z</time>
      </trkpt>
      <trkpt lat="44.61864" lon="4.44053">
        <ele>271.95</ele>
        <time>2019-12-15T14:03:14.000Z</time>
      </trkpt>
      <trkpt lat="44.6187" lon="4.44065">
        <ele>272.11</ele>
        <time>2019-12-15T14:03:18.000Z</time>
      </trkpt>
      <trkpt lat="44.61875" lon="4.44076">
        <ele>272.23</ele>
        <time>2019-12-15T14:03:21.000Z</time>
      </trkpt>
      <trkpt lat="44.61882" lon="4.44089">
        <ele>272.39</ele>
        <time>2019-12-15T14:03:25.000Z</time>
      </trkpt>
      <trkpt lat="44.61889" lon="4.44102">
        <ele>272.55</ele>
        <time>2019-12-15T14:03:29.000Z</time>
      </trkpt>
      <trkpt lat="44.61898" lon="4.44113">
        <ele>272.71</ele>
        <time>2019-12-15T14:03:33.000Z</time>
      </trkpt>
      <trkpt lat="44.61903" lon="4.44127">
        <ele>273.21</ele>
        <time>2019-12-15T14:03:37.000Z</time>
      </trkpt>
      <trkpt lat="44.61894" lon="4.44133">
        <ele>273.59</ele>
        <time>2019-12-15T14:03:40.000Z</time>
      </trkpt>
      <trkpt lat="44.61888" lon="4.44122">
        <ele>273.74</ele>
        <time>2019-12-15T14:03:44.000Z</time>
      </trkpt>
      <trkpt lat="44.61881" lon="4.44111">
        <ele>273.92</ele>
        <time>2019-12-15T14:03:48.000Z</time>
      </trkpt>
      <trkpt lat="44.61875" lon="4.44101">
        <ele>274.11</ele>
        <time>2019-12-15T14:03:52.000Z</time>
      </trkpt>
      <trkpt lat="44.61867" lon="4.44093">
        <ele>274.31</ele>
        <time>2019-12-15T14:03:56.000Z</time>
      </trkpt>
      <trkpt lat="44.61859" lon="4.44085">
        <ele>274.53</ele>
        <time>2019-12-15T14:04:00.000Z</time>
      </trkpt>
      <trkpt lat="44.6185" lon="4.44078">
        <ele>274.8</ele>
        <time>2019-12-15T14:04:05.000Z</time>
      </trkpt>
      <trkpt lat="44.61842" lon="4.44069">
        <ele>275.03</ele>
        <time>2019-12-15T14:04:09.000Z</time>
      </trkpt>
      <trkpt lat="44.61833" lon="4.44061">
        <ele>275.33</ele>
        <time>2019-12-15T14:04:14.000Z</time>
      </trkpt>
      <trkpt lat="44.61825" lon="4.44053">
        <ele>275.57</ele>
        <time>2019-12-15T14:04:18.000Z</time>
      </trkpt>
      <trkpt lat="44.6182" lon="4.4404">
        <ele>275.86</ele>
        <time>2019-12-15T14:04:23.000Z</time>
      </trkpt>
      <trkpt lat="44.61818" lon="4.44027">
        <ele>276.04</ele>
        <time>2019-12-15T14:04:26.000Z</time>
      </trkpt>
      <trkpt lat="44.61817" lon="4.44014">
        <ele>276.28</ele>
        <time>2019-12-15T14:04:30.000Z</time>
      </trkpt>
      <trkpt lat="44.61815" lon="4.43998">
        <ele>276.6</ele>
        <time>2019-12-15T14:04:35.000Z</time>
      </trkpt>
      <trkpt lat="44.61814" lon="4.43982">
        <ele>276.93</ele>
        <time>2019-12-15T14:04:40.000Z</time>
      </trkpt>
      <trkpt lat="44.61812" lon="4.43969">
        <ele>277.19</ele>
        <time>2019-12-15T14:04:44.000Z</time>
      </trkpt>
      <trkpt lat="44.61812" lon="4.43956">
        <ele>277.44</ele>
        <time>2019-12-15T14:04:48.000Z</time>
      </trkpt>
      <trkpt lat="44.61811" lon="4.43942">
        <ele>277.73</ele>
        <time>2019-12-15T14:04:53.000Z</time>
      </trkpt>
      <trkpt lat="44.61812" lon="4.43929">
        <ele>277.95</ele>
        <time>2019-12-15T14:04:57.000Z</time>
      </trkpt>
      <trkpt lat="44.61813" lon="4.43914">
        <ele>278.17</ele>
        <time>2019-12-15T14:05:01.000Z</time>
      </trkpt>
      <trkpt lat="44.61814" lon="4.43899">
        <ele>278.45</ele>
        <time>2019-12-15T14:05:06.000Z</time>
      </trkpt>
      <trkpt lat="44.61815" lon="4.43884">
        <ele>278.8</ele>
        <time>2019-12-15T14:05:11.000Z</time>
      </trkpt>
      <trkpt lat="44.61818" lon="4.43872">
        <ele>279.15</ele>
        <time>2019-12-15T14:05:16.000Z</time>
      </trkpt>
      <trkpt lat="44.61822" lon="4.4386">
        <ele>279.43</ele>
        <time>2019-12-15T14:05:20.000Z</time>
      </trkpt>
      <trkpt lat="44.61818" lon="4.43848">
        <ele>279.72</ele>
        <time>2019-12-15T14:05:24.000Z</time>
      </trkpt>
      <trkpt lat="44.61808" lon="4.43848">
        <ele>280.18</ele>
        <time>2019-12-15T14:05:29.000Z</time>
      </trkpt>
      <trkpt lat="44.61802" lon="4.43858">
        <ele>280.64</ele>
        <time>2019-12-15T14:05:33.000Z</time>
      </trkpt>
      <trkpt lat="44.618" lon="4.43871">
        <ele>281.12</ele>
        <time>2019-12-15T14:05:37.000Z</time>
      </trkpt>
      <trkpt lat="44.61798" lon="4.43884">
        <ele>281.49</ele>
        <time>2019-12-15T14:05:40.000Z</time>
      </trkpt>
      <trkpt lat="44.61796" lon="4.43897">
        <ele>282.15</ele>
        <time>2019-12-15T14:05:45.000Z</time>
      </trkpt>
      <trkpt lat="44.61794" lon="4.43912">
        <ele>283.01</ele>
        <time>2019-12-15T14:05:50.000Z</time>
      </trkpt>
      <trkpt lat="44.61793" lon="4.43925">
        <ele>284.05</ele>
        <time>2019-12-15T14:05:55.000Z</time>
      </trkpt>
      <trkpt lat="44.61792" lon="4.43938">
        <ele>284.98</ele>
        <time>2019-12-15T14:05:59.000Z</time>
      </trkpt>
      <trkpt lat="44.61791" lon="4.43951">
        <ele>285.93</ele>
        <time>2019-12-15T14:06:03.000Z</time>
      </trkpt>
      <trkpt lat="44.61791" lon="4.43966">
        <ele>287.16</ele>
        <time>2019-12-15T14:06:08.000Z</time>
      </trkpt>
      <trkpt lat="44.6179" lon="4.43982">
        <ele>288.42</ele>
        <time>2019-12-15T14:06:13.000Z</time>
      </trkpt>
      <trkpt lat="44.61788" lon="4.43997">
        <ele>289.43</ele>
        <time>2019-12-15T14:06:17.000Z</time>
      </trkpt>
      <trkpt lat="44.61787" lon="4.44011">
        <ele>290.41</ele>
        <time>2019-12-15T14:06:21.000Z</time>
      </trkpt>
      <trkpt lat="44.61787" lon="4.44024">
        <ele>291.37</ele>
        <time>2019-12-15T14:06:25.000Z</time>
      </trkpt>
      <trkpt lat="44.61788" lon="4.44039">
        <ele>292.29</ele>
        <time>2019-12-15T14:06:29.000Z</time>
      </trkpt>
      <trkpt lat="44.6179" lon="4.44053">
        <ele>293.21</ele>
        <time>2019-12-15T14:06:33.000Z</time>
      </trkpt>
      <trkpt lat="44.61794" lon="4.44065">
        <ele>294.12</ele>
        <time>2019-12-15T14:06:37.000Z</time>
      </trkpt>
      <trkpt lat="44.61798" lon="4.44077">
        <ele>295.01</ele>
        <time>2019-12-15T14:06:41.000Z</time>
      </trkpt>
      <trkpt lat="44.61802" lon="4.44088">
        <ele>295.87</ele>
        <time>2019-12-15T14:06:45.000Z</time>
      </trkpt>
      <trkpt lat="44.61805" lon="4.44101">
        <ele>296.69</ele>
        <time>2019-12-15T14:06:49.000Z</time>
      </trkpt>
      <trkpt lat="44.61809" lon="4.44113">
        <ele>297.48</ele>
        <time>2019-12-15T14:06:53.000Z</time>
      </trkpt>
      <trkpt lat="44.61811" lon="4.44126">
        <ele>298.3</ele>
        <time>2019-12-15T14:06:57.000Z</time>
      </trkpt>
      <trkpt lat="44.61812" lon="4.44142">
        <ele>299.13</ele>
        <time>2019-12-15T14:07:01.000Z</time>
      </trkpt>
      <trkpt lat="44.61809" lon="4.44155">
        <ele>299.77</ele>
        <time>2019-12-15T14:07:04.000Z</time>
      </trkpt>
      <trkpt lat="44.61808" lon="4.44169">
        <ele>300.86</ele>
        <time>2019-12-15T14:07:09.000Z</time>
      </trkpt>
      <trkpt lat="44.61808" lon="4.44184">
        <ele>301.99</ele>
        <time>2019-12-15T14:07:14.000Z</time>
      </trkpt>
      <trkpt lat="44.61807" lon="4.44199">
        <ele>303.12</ele>
        <time>2019-12-15T14:07:19.000Z</time>
      </trkpt>
      <trkpt lat="44.61807" lon="4.44213">
        <ele>303.99</ele>
        <time>2019-12-15T14:07:23.000Z</time>
      </trkpt>
      <trkpt lat="44.61806" lon="4.44226">
        <ele>304.79</ele>
        <time>2019-12-15T14:07:27.000Z</time>
      </trkpt>
      <trkpt lat="44.61812" lon="4.44237">
        <ele>308.89</ele>
        <time>2019-12-15T14:08:38.000Z</time>
      </trkpt>
      <trkpt lat="44.61816" lon="4.4425">
        <ele>309.84</ele>
        <time>2019-12-15T14:08:41.999Z</time>
      </trkpt>
      <trkpt lat="44.61819" lon="4.44264">
        <ele>310.93</ele>
        <time>2019-12-15T14:08:46.999Z</time>
      </trkpt>
      <trkpt lat="44.61819" lon="4.44277">
        <ele>311.72</ele>
        <time>2019-12-15T14:08:50.999Z</time>
      </trkpt>
      <trkpt lat="44.61821" lon="4.44292">
        <ele>312.46</ele>
        <time>2019-12-15T14:08:54.999Z</time>
      </trkpt>
      <trkpt lat="44.6182" lon="4.44307">
        <ele>313.15</ele>
        <time>2019-12-15T14:08:58.999Z</time>
      </trkpt>
      <trkpt lat="44.61819" lon="4.44321">
        <ele>313.81</ele>
        <time>2019-12-15T14:09:02.999Z</time>
      </trkpt>
      <trkpt lat="44.61814" lon="4.44335">
        <ele>314.58</ele>
        <time>2019-12-15T14:09:07.999Z</time>
      </trkpt>
      <trkpt lat="44.61807" lon="4.44344">
        <ele>315.15</ele>
        <time>2019-12-15T14:09:11.999Z</time>
      </trkpt>
      <trkpt lat="44.61799" lon="4.44349">
        <ele>315.7</ele>
        <time>2019-12-15T14:09:15.999Z</time>
      </trkpt>
      <trkpt lat="44.61791" lon="4.44357">
        <ele>316.46</ele>
        <time>2019-12-15T14:09:21.999Z</time>
      </trkpt>
      <trkpt lat="44.61784" lon="4.44364">
        <ele>317.03</ele>
        <time>2019-12-15T14:09:26.999Z</time>
      </trkpt>
      <trkpt lat="44.61776" lon="4.44371">
        <ele>317.44</ele>
        <time>2019-12-15T14:09:30.999Z</time>
      </trkpt>
      <trkpt lat="44.61769" lon="4.4438">
        <ele>317.92</ele>
        <time>2019-12-15T14:09:35.999Z</time>
      </trkpt>
      <trkpt lat="44.61762" lon="4.44391">
        <ele>318.27</ele>
        <time>2019-12-15T14:09:39.999Z</time>
      </trkpt>
      <trkpt lat="44.61755" lon="4.44401">
        <ele>318.76</ele>
        <time>2019-12-15T14:09:45.999Z</time>
      </trkpt>
      <trkpt lat="44.61749" lon="4.44412">
        <ele>319.13</ele>
        <time>2019-12-15T14:09:50.999Z</time>
      </trkpt>
      <trkpt lat="44.61748" lon="4.44426">
        <ele>319.38</ele>
        <time>2019-12-15T14:09:54.999Z</time>
      </trkpt>
      <trkpt lat="44.61751" lon="4.44439">
        <ele>319.66</ele>
        <time>2019-12-15T14:09:59.999Z</time>
      </trkpt>
      <trkpt lat="44.61754" lon="4.44452">
        <ele>319.96</ele>
        <time>2019-12-15T14:10:05.999Z</time>
      </trkpt>
      <trkpt lat="44.61765" lon="4.44457">
        <ele>320.23</ele>
        <time>2019-12-15T14:10:11.999Z</time>
      </trkpt>
      <trkpt lat="44.61775" lon="4.44458">
        <ele>320.46</ele>
        <time>2019-12-15T14:10:16.999Z</time>
      </trkpt>
      <trkpt lat="44.61784" lon="4.44459">
        <ele>320.66</ele>
        <time>2019-12-15T14:10:21.999Z</time>
      </trkpt>
      <trkpt lat="44.61794" lon="4.44466">
        <ele>320.89</ele>
        <time>2019-12-15T14:10:27.999Z</time>
      </trkpt>
      <trkpt lat="44.61802" lon="4.44472">
        <ele>321.06</ele>
        <time>2019-12-15T14:10:32.999Z</time>
      </trkpt>
      <trkpt lat="44.61812" lon="4.44477">
        <ele>321.25</ele>
        <time>2019-12-15T14:10:38.999Z</time>
      </trkpt>
      <trkpt lat="44.6182" lon="4.44484">
        <ele>321.39</ele>
        <time>2019-12-15T14:10:43.999Z</time>
      </trkpt>
      <trkpt lat="44.61827" lon="4.44495">
        <ele>321.57</ele>
        <time>2019-12-15T14:10:49.999Z</time>
      </trkpt>
      <trkpt lat="44.61835" lon="4.44503">
        <ele>321.73</ele>
        <time>2019-12-15T14:10:55.999Z</time>
      </trkpt>
      <trkpt lat="44.61846" lon="4.44509">
        <ele>321.86</ele>
        <time>2019-12-15T14:11:00.999Z</time>
      </trkpt>
      <trkpt lat="44.61854" lon="4.44515">
        <ele>322.03</ele>
        <time>2019-12-15T14:11:06.999Z</time>
      </trkpt>
      <trkpt lat="44.61863" lon="4.4452">
        <ele>322.37</ele>
        <time>2019-12-15T14:11:14.999Z</time>
      </trkpt>
      <trkpt lat="44.61873" lon="4.44527">
        <ele>322.74</ele>
        <time>2019-12-15T14:11:22.999Z</time>
      </trkpt>
      <trkpt lat="44.61882" lon="4.44534">
        <ele>322.94</ele>
        <time>2019-12-15T14:11:27.999Z</time>
      </trkpt>
      <trkpt lat="44.61891" lon="4.44543">
        <ele>323.12</ele>
        <time>2019-12-15T14:11:32.999Z</time>
      </trkpt>
      <trkpt lat="44.61897" lon="4.44553">
        <ele>323.28</ele>
        <time>2019-12-15T14:11:36.999Z</time>
      </trkpt>
      <trkpt lat="44.61905" lon="4.44562">
        <ele>323.51</ele>
        <time>2019-12-15T14:11:42.999Z</time>
      </trkpt>
      <trkpt lat="44.61914" lon="4.44572">
        <ele>323.7</ele>
        <time>2019-12-15T14:11:47.999Z</time>
      </trkpt>
      <trkpt lat="44.61921" lon="4.44583">
        <ele>323.92</ele>
        <time>2019-12-15T14:11:52.999Z</time>
      </trkpt>
      <trkpt lat="44.61927" lon="4.44593">
        <ele>324.1</ele>
        <time>2019-12-15T14:11:56.999Z</time>
      </trkpt>
      <trkpt lat="44.61933" lon="4.44606">
        <ele>324.35</ele>
        <time>2019-12-15T14:12:01.999Z</time>
      </trkpt>
      <trkpt lat="44.61939" lon="4.44615">
        <ele>324.6</ele>
        <time>2019-12-15T14:12:06.999Z</time>
      </trkpt>
      <trkpt lat="44.61947" lon="4.44622">
        <ele>324.92</ele>
        <time>2019-12-15T14:12:11.999Z</time>
      </trkpt>
      <trkpt lat="44.61955" lon="4.44631">
        <ele>325.37</ele>
        <time>2019-12-15T14:12:17.999Z</time>
      </trkpt>
      <trkpt lat="44.61963" lon="4.44641">
        <ele>325.82</ele>
        <time>2019-12-15T14:12:22.999Z</time>
      </trkpt>
      <trkpt lat="44.6197" lon="4.44652">
        <ele>326.3</ele>
        <time>2019-12-15T14:12:27.999Z</time>
      </trkpt>
      <trkpt lat="44.61975" lon="4.44666">
        <ele>326.8</ele>
        <time>2019-12-15T14:12:32.999Z</time>
      </trkpt>
      <trkpt lat="44.6198" lon="4.44679">
        <ele>327.3</ele>
        <time>2019-12-15T14:12:37.999Z</time>
      </trkpt>
      <trkpt lat="44.61984" lon="4.44691">
        <ele>327.79</ele>
        <time>2019-12-15T14:12:42.999Z</time>
      </trkpt>
      <trkpt lat="44.6199" lon="4.44702">
        <ele>328.27</ele>
        <time>2019-12-15T14:12:47.999Z</time>
      </trkpt>
      <trkpt lat="44.61996" lon="4.44711">
        <ele>328.75</ele>
        <time>2019-12-15T14:12:52.999Z</time>
      </trkpt>
      <trkpt lat="44.62003" lon="4.44721">
        <ele>329.2</ele>
        <time>2019-12-15T14:12:57.999Z</time>
      </trkpt>
      <trkpt lat="44.62011" lon="4.44731">
        <ele>329.6</ele>
        <time>2019-12-15T14:13:02.999Z</time>
      </trkpt>
      <trkpt lat="44.6202" lon="4.44739">
        <ele>330</ele>
        <time>2019-12-15T14:13:07.999Z</time>
      </trkpt>
      <trkpt lat="44.62028" lon="4.44749">
        <ele>330.31</ele>
        <time>2019-12-15T14:13:11.999Z</time>
      </trkpt>
      <trkpt lat="44.62035" lon="4.44759">
        <ele>330.7</ele>
        <time>2019-12-15T14:13:16.999Z</time>
      </trkpt>
      <trkpt lat="44.6204" lon="4.44771">
        <ele>331.13</ele>
        <time>2019-12-15T14:13:21.999Z</time>
      </trkpt>
      <trkpt lat="44.62045" lon="4.44785">
        <ele>331.6</ele>
        <time>2019-12-15T14:13:26.999Z</time>
      </trkpt>
      <trkpt lat="44.62049" lon="4.44798">
        <ele>332.13</ele>
        <time>2019-12-15T14:13:31.999Z</time>
      </trkpt>
      <trkpt lat="44.62053" lon="4.4481">
        <ele>332.67</ele>
        <time>2019-12-15T14:13:36.999Z</time>
      </trkpt>
      <trkpt lat="44.62052" lon="4.44826">
        <ele>333.21</ele>
        <time>2019-12-15T14:13:41.999Z</time>
      </trkpt>
      <trkpt lat="44.62049" lon="4.44838">
        <ele>333.66</ele>
        <time>2019-12-15T14:13:45.999Z</time>
      </trkpt>
      <trkpt lat="44.62041" lon="4.44849">
        <ele>334.12</ele>
        <time>2019-12-15T14:13:49.999Z</time>
      </trkpt>
      <trkpt lat="44.62034" lon="4.44859">
        <ele>334.56</ele>
        <time>2019-12-15T14:13:53.999Z</time>
      </trkpt>
      <trkpt lat="44.62028" lon="4.44868">
        <ele>335.04</ele>
        <time>2019-12-15T14:13:57.999Z</time>
      </trkpt>
      <trkpt lat="44.62021" lon="4.4488">
        <ele>335.67</ele>
        <time>2019-12-15T14:14:02.999Z</time>
      </trkpt>
      <trkpt lat="44.62013" lon="4.44889">
        <ele>336.9</ele>
        <time>2019-12-15T14:14:15.999Z</time>
      </trkpt>
      <trkpt lat="44.62007" lon="4.449">
        <ele>337.4</ele>
        <time>2019-12-15T14:14:19.999Z</time>
      </trkpt>
      <trkpt lat="44.62" lon="4.44911">
        <ele>337.99</ele>
        <time>2019-12-15T14:14:24.999Z</time>
      </trkpt>
      <trkpt lat="44.61994" lon="4.44922">
        <ele>338.44</ele>
        <time>2019-12-15T14:14:28.999Z</time>
      </trkpt>
      <trkpt lat="44.6199" lon="4.44935">
        <ele>339</ele>
        <time>2019-12-15T14:14:33.999Z</time>
      </trkpt>
      <trkpt lat="44.61984" lon="4.44947">
        <ele>339.43</ele>
        <time>2019-12-15T14:14:37.999Z</time>
      </trkpt>
      <trkpt lat="44.61979" lon="4.4496">
        <ele>339.83</ele>
        <time>2019-12-15T14:14:41.999Z</time>
      </trkpt>
      <trkpt lat="44.61975" lon="4.44973">
        <ele>340.21</ele>
        <time>2019-12-15T14:14:45.999Z</time>
      </trkpt>
      <trkpt lat="44.61972" lon="4.44988">
        <ele>340.59</ele>
        <time>2019-12-15T14:14:49.999Z</time>
      </trkpt>
      <trkpt lat="44.61971" lon="4.45001">
        <ele>340.98</ele>
        <time>2019-12-15T14:14:53.999Z</time>
      </trkpt>
      <trkpt lat="44.6197" lon="4.45017">
        <ele>341.49</ele>
        <time>2019-12-15T14:14:58.999Z</time>
      </trkpt>
      <trkpt lat="44.61969" lon="4.45029">
        <ele>341.78</ele>
        <time>2019-12-15T14:15:01.999Z</time>
      </trkpt>
      <trkpt lat="44.61968" lon="4.45043">
        <ele>342.28</ele>
        <time>2019-12-15T14:15:06.999Z</time>
      </trkpt>
      <trkpt lat="44.61969" lon="4.45059">
        <ele>342.83</ele>
        <time>2019-12-15T14:15:11.999Z</time>
      </trkpt>
      <trkpt lat="44.6197" lon="4.45071">
        <ele>343.32</ele>
        <time>2019-12-15T14:15:15.999Z</time>
      </trkpt>
      <trkpt lat="44.61972" lon="4.45086">
        <ele>344</ele>
        <time>2019-12-15T14:15:20.999Z</time>
      </trkpt>
      <trkpt lat="44.61974" lon="4.45099">
        <ele>344.58</ele>
        <time>2019-12-15T14:15:24.999Z</time>
      </trkpt>
      <trkpt lat="44.61977" lon="4.45111">
        <ele>345.3</ele>
        <time>2019-12-15T14:15:29.999Z</time>
      </trkpt>
      <trkpt lat="44.6198" lon="4.45123">
        <ele>345.89</ele>
        <time>2019-12-15T14:15:33.999Z</time>
      </trkpt>
      <trkpt lat="44.61986" lon="4.45134">
        <ele>346.48</ele>
        <time>2019-12-15T14:15:37.999Z</time>
      </trkpt>
      <trkpt lat="44.61991" lon="4.45145">
        <ele>347.06</ele>
        <time>2019-12-15T14:15:41.999Z</time>
      </trkpt>
      <trkpt lat="44.61997" lon="4.45158">
        <ele>347.75</ele>
        <time>2019-12-15T14:15:46.999Z</time>
      </trkpt>
      <trkpt lat="44.62002" lon="4.45168">
        <ele>348.26</ele>
        <time>2019-12-15T14:15:50.999Z</time>
      </trkpt>
      <trkpt lat="44.62003" lon="4.45181">
        <ele>349.02</ele>
        <time>2019-12-15T14:15:57.999Z</time>
      </trkpt>
      <trkpt lat="44.61993" lon="4.45179">
        <ele>363.79</ele>
        <time>2019-12-15T14:19:19.999Z</time>
      </trkpt>
      <trkpt lat="44.61985" lon="4.45172">
        <ele>364.24</ele>
        <time>2019-12-15T14:19:24.999Z</time>
      </trkpt>
      <trkpt lat="44.61979" lon="4.45162">
        <ele>364.69</ele>
        <time>2019-12-15T14:19:29.999Z</time>
      </trkpt>
      <trkpt lat="44.61974" lon="4.45149">
        <ele>365.27</ele>
        <time>2019-12-15T14:19:36.999Z</time>
      </trkpt>
      <trkpt lat="44.61969" lon="4.45135">
        <ele>365.67</ele>
        <time>2019-12-15T14:19:41.999Z</time>
      </trkpt>
      <trkpt lat="44.61966" lon="4.4512">
        <ele>365.98</ele>
        <time>2019-12-15T14:19:45.999Z</time>
      </trkpt>
      <trkpt lat="44.61962" lon="4.45107">
        <ele>366.29</ele>
        <time>2019-12-15T14:19:49.999Z</time>
      </trkpt>
      <trkpt lat="44.61957" lon="4.45093">
        <ele>366.6</ele>
        <time>2019-12-15T14:19:53.999Z</time>
      </trkpt>
      <trkpt lat="44.61954" lon="4.45081">
        <ele>366.9</ele>
        <time>2019-12-15T14:19:57.999Z</time>
      </trkpt>
      <trkpt lat="44.61951" lon="4.45066">
        <ele>367.27</ele>
        <time>2019-12-15T14:20:02.999Z</time>
      </trkpt>
      <trkpt lat="44.61948" lon="4.45053">
        <ele>367.55</ele>
        <time>2019-12-15T14:20:06.999Z</time>
      </trkpt>
      <trkpt lat="44.61947" lon="4.4504">
        <ele>367.84</ele>
        <time>2019-12-15T14:20:10.999Z</time>
      </trkpt>
      <trkpt lat="44.61946" lon="4.45024">
        <ele>368.18</ele>
        <time>2019-12-15T14:20:15.999Z</time>
      </trkpt>
      <trkpt lat="44.61946" lon="4.4501">
        <ele>368.5</ele>
        <time>2019-12-15T14:20:20.999Z</time>
      </trkpt>
      <trkpt lat="44.61947" lon="4.44996">
        <ele>368.89</ele>
        <time>2019-12-15T14:20:26.999Z</time>
      </trkpt>
      <trkpt lat="44.61948" lon="4.44982">
        <ele>369.26</ele>
        <time>2019-12-15T14:20:32.999Z</time>
      </trkpt>
      <trkpt lat="44.61949" lon="4.44968">
        <ele>369.56</ele>
        <time>2019-12-15T14:20:37.999Z</time>
      </trkpt>
      <trkpt lat="44.61951" lon="4.44953">
        <ele>369.91</ele>
        <time>2019-12-15T14:20:43.999Z</time>
      </trkpt>
      <trkpt lat="44.61953" lon="4.4494">
        <ele>370.26</ele>
        <time>2019-12-15T14:20:49.999Z</time>
      </trkpt>
      <trkpt lat="44.61955" lon="4.44928">
        <ele>370.59</ele>
        <time>2019-12-15T14:20:55.999Z</time>
      </trkpt>
      <trkpt lat="44.61958" lon="4.44915">
        <ele>370.93</ele>
        <time>2019-12-15T14:21:01.999Z</time>
      </trkpt>
      <trkpt lat="44.61961" lon="4.44902">
        <ele>371.2</ele>
        <time>2019-12-15T14:21:06.999Z</time>
      </trkpt>
      <trkpt lat="44.61962" lon="4.44888">
        <ele>371.54</ele>
        <time>2019-12-15T14:21:12.999Z</time>
      </trkpt>
      <trkpt lat="44.61965" lon="4.44875">
        <ele>371.82</ele>
        <time>2019-12-15T14:21:17.999Z</time>
      </trkpt>
      <trkpt lat="44.61969" lon="4.44862">
        <ele>372.11</ele>
        <time>2019-12-15T14:21:22.999Z</time>
      </trkpt>
      <trkpt lat="44.61973" lon="4.44848">
        <ele>372.45</ele>
        <time>2019-12-15T14:21:28.999Z</time>
      </trkpt>
      <trkpt lat="44.61975" lon="4.44835">
        <ele>372.75</ele>
        <time>2019-12-15T14:21:33.999Z</time>
      </trkpt>
      <trkpt lat="44.6198" lon="4.44825">
        <ele>379.06</ele>
        <time>2019-12-15T14:23:13.999Z</time>
      </trkpt>
      <trkpt lat="44.6197" lon="4.44819">
        <ele>387.03</ele>
        <time>2019-12-15T14:26:11.999Z</time>
      </trkpt>
      <trkpt lat="44.61964" lon="4.4481">
        <ele>387.47</ele>
        <time>2019-12-15T14:26:16.999Z</time>
      </trkpt>
      <trkpt lat="44.61956" lon="4.44802">
        <ele>387.86</ele>
        <time>2019-12-15T14:26:21.999Z</time>
      </trkpt>
      <trkpt lat="44.61949" lon="4.44794">
        <ele>388.08</ele>
        <time>2019-12-15T14:26:24.999Z</time>
      </trkpt>
      <trkpt lat="44.61939" lon="4.44786">
        <ele>388.36</ele>
        <time>2019-12-15T14:26:28.999Z</time>
      </trkpt>
      <trkpt lat="44.61928" lon="4.44778">
        <ele>388.61</ele>
        <time>2019-12-15T14:26:32.999Z</time>
      </trkpt>
      <trkpt lat="44.61914" lon="4.44766">
        <ele>390.28</ele>
        <time>2019-12-15T14:26:37.000Z</time>
      </trkpt>
      <trkpt lat="44.61906" lon="4.44759">
        <ele>390.68</ele>
        <time>2019-12-15T14:26:39.000Z</time>
      </trkpt>
      <trkpt lat="44.61894" lon="4.4475">
        <ele>391</ele>
        <time>2019-12-15T14:26:42.000Z</time>
      </trkpt>
      <trkpt lat="44.61886" lon="4.44743">
        <ele>391.07</ele>
        <time>2019-12-15T14:26:44.000Z</time>
      </trkpt>
      <trkpt lat="44.61873" lon="4.4473">
        <ele>391.19</ele>
        <time>2019-12-15T14:26:48.000Z</time>
      </trkpt>
      <trkpt lat="44.61864" lon="4.44721">
        <ele>391.2</ele>
        <time>2019-12-15T14:26:50.000Z</time>
      </trkpt>
      <trkpt lat="44.61857" lon="4.44712">
        <ele>391.21</ele>
        <time>2019-12-15T14:26:52.000Z</time>
      </trkpt>
      <trkpt lat="44.61849" lon="4.44704">
        <ele>391.21</ele>
        <time>2019-12-15T14:26:54.000Z</time>
      </trkpt>
      <trkpt lat="44.61841" lon="4.44697">
        <ele>391.2</ele>
        <time>2019-12-15T14:26:56.000Z</time>
      </trkpt>
      <trkpt lat="44.61831" lon="4.44686">
        <ele>391.2</ele>
        <time>2019-12-15T14:26:59.000Z</time>
      </trkpt>
      <trkpt lat="44.61821" lon="4.44677">
        <ele>391.2</ele>
        <time>2019-12-15T14:27:02.000Z</time>
      </trkpt>
      <trkpt lat="44.6181" lon="4.4467">
        <ele>391.2</ele>
        <time>2019-12-15T14:27:05.000Z</time>
      </trkpt>
      <trkpt lat="44.61803" lon="4.44663">
        <ele>391.19</ele>
        <time>2019-12-15T14:27:08.000Z</time>
      </trkpt>
      <trkpt lat="44.61793" lon="4.44647">
        <ele>391.13</ele>
        <time>2019-12-15T14:27:12.000Z</time>
      </trkpt>
      <trkpt lat="44.61783" lon="4.44632">
        <ele>391.11</ele>
        <time>2019-12-15T14:27:15.000Z</time>
      </trkpt>
      <trkpt lat="44.61775" lon="4.44624">
        <ele>391.12</ele>
        <time>2019-12-15T14:27:17.000Z</time>
      </trkpt>
      <trkpt lat="44.61768" lon="4.44615">
        <ele>391.12</ele>
        <time>2019-12-15T14:27:19.000Z</time>
      </trkpt>
      <trkpt lat="44.61755" lon="4.44597">
        <ele>390.98</ele>
        <time>2019-12-15T14:27:23.000Z</time>
      </trkpt>
      <trkpt lat="44.61747" lon="4.44587">
        <ele>390.91</ele>
        <time>2019-12-15T14:27:25.000Z</time>
      </trkpt>
      <trkpt lat="44.61739" lon="4.44579">
        <ele>390.85</ele>
        <time>2019-12-15T14:27:27.000Z</time>
      </trkpt>
      <trkpt lat="44.6173" lon="4.44575">
        <ele>390.84</ele>
        <time>2019-12-15T14:27:30.000Z</time>
      </trkpt>
      <trkpt lat="44.61716" lon="4.44567">
        <ele>390.81</ele>
        <time>2019-12-15T14:27:35.000Z</time>
      </trkpt>
      <trkpt lat="44.61703" lon="4.44558">
        <ele>390.76</ele>
        <time>2019-12-15T14:27:39.000Z</time>
      </trkpt>
      <trkpt lat="44.61695" lon="4.44546">
        <ele>390.72</ele>
        <time>2019-12-15T14:27:42.000Z</time>
      </trkpt>
      <trkpt lat="44.61686" lon="4.44531">
        <ele>390.66</ele>
        <time>2019-12-15T14:27:46.000Z</time>
      </trkpt>
      <trkpt lat="44.61678" lon="4.44523">
        <ele>390.6</ele>
        <time>2019-12-15T14:28:00.000Z</time>
      </trkpt>
      <trkpt lat="44.61675" lon="4.44511">
        <ele>390.16</ele>
        <time>2019-12-15T14:28:32.000Z</time>
      </trkpt>
      <trkpt lat="44.61668" lon="4.44499">
        <ele>389.93</ele>
        <time>2019-12-15T14:28:51.000Z</time>
      </trkpt>
      <trkpt lat="44.61661" lon="4.44488">
        <ele>389.82</ele>
        <time>2019-12-15T14:28:55.000Z</time>
      </trkpt>
      <trkpt lat="44.61654" lon="4.44478">
        <ele>389.74</ele>
        <time>2019-12-15T14:28:58.000Z</time>
      </trkpt>
      <trkpt lat="44.61649" lon="4.44467">
        <ele>389.65</ele>
        <time>2019-12-15T14:29:02.000Z</time>
      </trkpt>
      <trkpt lat="44.61645" lon="4.44453">
        <ele>389.52</ele>
        <time>2019-12-15T14:29:08.000Z</time>
      </trkpt>
      <trkpt lat="44.61641" lon="4.4444">
        <ele>389.44</ele>
        <time>2019-12-15T14:29:12.000Z</time>
      </trkpt>
      <trkpt lat="44.61634" lon="4.44431">
        <ele>389.27</ele>
        <time>2019-12-15T14:29:28.000Z</time>
      </trkpt>
      <trkpt lat="44.6163" lon="4.44418">
        <ele>389.14</ele>
        <time>2019-12-15T14:29:34.000Z</time>
      </trkpt>
      <trkpt lat="44.61629" lon="4.44404">
        <ele>389.08</ele>
        <time>2019-12-15T14:29:37.000Z</time>
      </trkpt>
      <trkpt lat="44.61633" lon="4.44392">
        <ele>389.01</ele>
        <time>2019-12-15T14:29:40.000Z</time>
      </trkpt>
      <trkpt lat="44.61637" lon="4.4438">
        <ele>388.9</ele>
        <time>2019-12-15T14:29:45.000Z</time>
      </trkpt>
      <trkpt lat="44.61644" lon="4.44366">
        <ele>388.77</ele>
        <time>2019-12-15T14:29:51.000Z</time>
      </trkpt>
      <trkpt lat="44.61648" lon="4.44356">
        <ele>388.68</ele>
        <time>2019-12-15T14:29:55.000Z</time>
      </trkpt>
      <trkpt lat="44.61652" lon="4.44342">
        <ele>388.59</ele>
        <time>2019-12-15T14:30:00.000Z</time>
      </trkpt>
      <trkpt lat="44.61657" lon="4.44331">
        <ele>388.52</ele>
        <time>2019-12-15T14:30:04.000Z</time>
      </trkpt>
      <trkpt lat="44.61659" lon="4.44315">
        <ele>388.45</ele>
        <time>2019-12-15T14:30:08.000Z</time>
      </trkpt>
      <trkpt lat="44.61656" lon="4.44301">
        <ele>388.38</ele>
        <time>2019-12-15T14:30:13.000Z</time>
      </trkpt>
      <trkpt lat="44.61654" lon="4.44288">
        <ele>388.33</ele>
        <time>2019-12-15T14:30:17.000Z</time>
      </trkpt>
      <trkpt lat="44.61648" lon="4.44275">
        <ele>388.27</ele>
        <time>2019-12-15T14:30:22.000Z</time>
      </trkpt>
      <trkpt lat="44.61644" lon="4.44264">
        <ele>388.21</ele>
        <time>2019-12-15T14:30:27.000Z</time>
      </trkpt>
      <trkpt lat="44.6164" lon="4.44251">
        <ele>388.16</ele>
        <time>2019-12-15T14:30:32.000Z</time>
      </trkpt>
      <trkpt lat="44.61635" lon="4.44239">
        <ele>388.11</ele>
        <time>2019-12-15T14:30:36.000Z</time>
      </trkpt>
      <trkpt lat="44.61628" lon="4.44227">
        <ele>388.07</ele>
        <time>2019-12-15T14:30:41.000Z</time>
      </trkpt>
      <trkpt lat="44.61621" lon="4.44214">
        <ele>388.02</ele>
        <time>2019-12-15T14:30:45.000Z</time>
      </trkpt>
      <trkpt lat="44.61615" lon="4.44202">
        <ele>387.98</ele>
        <time>2019-12-15T14:30:49.000Z</time>
      </trkpt>
      <trkpt lat="44.61609" lon="4.4419">
        <ele>387.93</ele>
        <time>2019-12-15T14:30:53.000Z</time>
      </trkpt>
      <trkpt lat="44.616" lon="4.44178">
        <ele>387.87</ele>
        <time>2019-12-15T14:30:58.000Z</time>
      </trkpt>
      <trkpt lat="44.61591" lon="4.44174">
        <ele>387.82</ele>
        <time>2019-12-15T14:31:02.000Z</time>
      </trkpt>
      <trkpt lat="44.61583" lon="4.44166">
        <ele>387.79</ele>
        <time>2019-12-15T14:31:05.000Z</time>
      </trkpt>
      <trkpt lat="44.61575" lon="4.44159">
        <ele>387.67</ele>
        <time>2019-12-15T14:31:08.000Z</time>
      </trkpt>
      <trkpt lat="44.61564" lon="4.44151">
        <ele>387.52</ele>
        <time>2019-12-15T14:31:11.000Z</time>
      </trkpt>
      <trkpt lat="44.61552" lon="4.44146">
        <ele>387.42</ele>
        <time>2019-12-15T14:31:14.000Z</time>
      </trkpt>
      <trkpt lat="44.6154" lon="4.44144">
        <ele>387.39</ele>
        <time>2019-12-15T14:31:17.000Z</time>
      </trkpt>
      <trkpt lat="44.61528" lon="4.44139">
        <ele>387.38</ele>
        <time>2019-12-15T14:31:20.000Z</time>
      </trkpt>
      <trkpt lat="44.61519" lon="4.44129">
        <ele>387.38</ele>
        <time>2019-12-15T14:31:23.000Z</time>
      </trkpt>
      <trkpt lat="44.6151" lon="4.44127">
        <ele>387.37</ele>
        <time>2019-12-15T14:31:26.000Z</time>
      </trkpt>
      <trkpt lat="44.615" lon="4.44135">
        <ele>387.37</ele>
        <time>2019-12-15T14:31:30.000Z</time>
      </trkpt>
      <trkpt lat="44.61492" lon="4.4414">
        <ele>387.37</ele>
        <time>2019-12-15T14:31:34.000Z</time>
      </trkpt>
      <trkpt lat="44.61482" lon="4.44145">
        <ele>387.36</ele>
        <time>2019-12-15T14:31:39.000Z</time>
      </trkpt>
      <trkpt lat="44.61472" lon="4.44151">
        <ele>387.36</ele>
        <time>2019-12-15T14:31:43.000Z</time>
      </trkpt>
      <trkpt lat="44.61463" lon="4.44155">
        <ele>387.35</ele>
        <time>2019-12-15T14:31:46.000Z</time>
      </trkpt>
      <trkpt lat="44.61454" lon="4.44158">
        <ele>387.35</ele>
        <time>2019-12-15T14:31:49.000Z</time>
      </trkpt>
      <trkpt lat="44.61443" lon="4.44163">
        <ele>387.34</ele>
        <time>2019-12-15T14:31:52.000Z</time>
      </trkpt>
      <trkpt lat="44.61432" lon="4.4417">
        <ele>387.31</ele>
        <time>2019-12-15T14:31:55.000Z</time>
      </trkpt>
      <trkpt lat="44.6142" lon="4.44178">
        <ele>387.3</ele>
        <time>2019-12-15T14:31:58.000Z</time>
      </trkpt>
      <trkpt lat="44.6141" lon="4.44188">
        <ele>387.29</ele>
        <time>2019-12-15T14:32:01.000Z</time>
      </trkpt>
      <trkpt lat="44.61398" lon="4.44193">
        <ele>387.29</ele>
        <time>2019-12-15T14:32:04.000Z</time>
      </trkpt>
      <trkpt lat="44.61387" lon="4.44201">
        <ele>387.29</ele>
        <time>2019-12-15T14:32:07.000Z</time>
      </trkpt>
      <trkpt lat="44.61378" lon="4.44209">
        <ele>387.3</ele>
        <time>2019-12-15T14:32:10.000Z</time>
      </trkpt>
      <trkpt lat="44.61367" lon="4.44216">
        <ele>387.29</ele>
        <time>2019-12-15T14:32:13.000Z</time>
      </trkpt>
      <trkpt lat="44.61357" lon="4.44222">
        <ele>387.29</ele>
        <time>2019-12-15T14:32:16.000Z</time>
      </trkpt>
      <trkpt lat="44.61348" lon="4.44227">
        <ele>387.29</ele>
        <time>2019-12-15T14:32:19.000Z</time>
      </trkpt>
      <trkpt lat="44.61338" lon="4.4423">
        <ele>387.29</ele>
        <time>2019-12-15T14:32:23.000Z</time>
      </trkpt>
      <trkpt lat="44.61328" lon="4.44237">
        <ele>387.3</ele>
        <time>2019-12-15T14:32:27.000Z</time>
      </trkpt>
      <trkpt lat="44.61322" lon="4.44247">
        <ele>387.3</ele>
        <time>2019-12-15T14:32:31.000Z</time>
      </trkpt>
      <trkpt lat="44.61317" lon="4.44259">
        <ele>387.31</ele>
        <time>2019-12-15T14:32:35.000Z</time>
      </trkpt>
      <trkpt lat="44.61309" lon="4.44267">
        <ele>387.32</ele>
        <time>2019-12-15T14:32:39.000Z</time>
      </trkpt>
      <trkpt lat="44.61301" lon="4.44277">
        <ele>387.32</ele>
        <time>2019-12-15T14:32:43.000Z</time>
      </trkpt>
      <trkpt lat="44.61291" lon="4.44278">
        <ele>387.33</ele>
        <time>2019-12-15T14:32:47.000Z</time>
      </trkpt>
      <trkpt lat="44.61281" lon="4.4428">
        <ele>387.33</ele>
        <time>2019-12-15T14:32:51.000Z</time>
      </trkpt>
      <trkpt lat="44.61271" lon="4.44281">
        <ele>387.34</ele>
        <time>2019-12-15T14:32:55.000Z</time>
      </trkpt>
      <trkpt lat="44.61262" lon="4.44279">
        <ele>387.35</ele>
        <time>2019-12-15T14:32:59.000Z</time>
      </trkpt>
      <trkpt lat="44.61252" lon="4.4428">
        <ele>387.36</ele>
        <time>2019-12-15T14:33:02.000Z</time>
      </trkpt>
      <trkpt lat="44.61243" lon="4.44279">
        <ele>387.37</ele>
        <time>2019-12-15T14:33:06.000Z</time>
      </trkpt>
      <trkpt lat="44.61234" lon="4.44281">
        <ele>387.39</ele>
        <time>2019-12-15T14:33:10.000Z</time>
      </trkpt>
      <trkpt lat="44.61223" lon="4.44281">
        <ele>387.41</ele>
        <time>2019-12-15T14:33:15.000Z</time>
      </trkpt>
      <trkpt lat="44.61215" lon="4.44274">
        <ele>387.42</ele>
        <time>2019-12-15T14:33:19.000Z</time>
      </trkpt>
      <trkpt lat="44.61204" lon="4.44271">
        <ele>387.44</ele>
        <time>2019-12-15T14:33:23.000Z</time>
      </trkpt>
      <trkpt lat="44.61195" lon="4.44274">
        <ele>387.46</ele>
        <time>2019-12-15T14:33:27.000Z</time>
      </trkpt>
      <trkpt lat="44.61184" lon="4.44277">
        <ele>387.47</ele>
        <time>2019-12-15T14:33:31.000Z</time>
      </trkpt>
      <trkpt lat="44.61173" lon="4.44282">
        <ele>387.5</ele>
        <time>2019-12-15T14:33:39.000Z</time>
      </trkpt>
      <trkpt lat="44.61164" lon="4.44284">
        <ele>387.51</ele>
        <time>2019-12-15T14:33:42.000Z</time>
      </trkpt>
      <trkpt lat="44.61154" lon="4.44285">
        <ele>387.53</ele>
        <time>2019-12-15T14:33:45.000Z</time>
      </trkpt>
      <trkpt lat="44.61142" lon="4.44285">
        <ele>387.63</ele>
        <time>2019-12-15T14:33:48.000Z</time>
      </trkpt>
      <trkpt lat="44.61133" lon="4.44287">
        <ele>387.66</ele>
        <time>2019-12-15T14:33:50.000Z</time>
      </trkpt>
      <trkpt lat="44.61121" lon="4.44289">
        <ele>387.67</ele>
        <time>2019-12-15T14:33:53.000Z</time>
      </trkpt>
      <trkpt lat="44.6111" lon="4.44293">
        <ele>387.66</ele>
        <time>2019-12-15T14:33:55.000Z</time>
      </trkpt>
      <trkpt lat="44.611" lon="4.44294">
        <ele>387.64</ele>
        <time>2019-12-15T14:33:57.000Z</time>
      </trkpt>
      <trkpt lat="44.6109" lon="4.44294">
        <ele>387.61</ele>
        <time>2019-12-15T14:33:59.000Z</time>
      </trkpt>
      <trkpt lat="44.6108" lon="4.44294">
        <ele>387.59</ele>
        <time>2019-12-15T14:34:01.000Z</time>
      </trkpt>
      <trkpt lat="44.6107" lon="4.44296">
        <ele>387.58</ele>
        <time>2019-12-15T14:34:03.000Z</time>
      </trkpt>
      <trkpt lat="44.61057" lon="4.44299">
        <ele>387.56</ele>
        <time>2019-12-15T14:34:06.000Z</time>
      </trkpt>
      <trkpt lat="44.61047" lon="4.44301">
        <ele>387.53</ele>
        <time>2019-12-15T14:34:08.000Z</time>
      </trkpt>
      <trkpt lat="44.61038" lon="4.44304">
        <ele>387.5</ele>
        <time>2019-12-15T14:34:10.000Z</time>
      </trkpt>
      <trkpt lat="44.61027" lon="4.44307">
        <ele>387.47</ele>
        <time>2019-12-15T14:34:12.000Z</time>
      </trkpt>
      <trkpt lat="44.61017" lon="4.44304">
        <ele>387.43</ele>
        <time>2019-12-15T14:34:14.000Z</time>
      </trkpt>
      <trkpt lat="44.61007" lon="4.44303">
        <ele>387.38</ele>
        <time>2019-12-15T14:34:16.000Z</time>
      </trkpt>
      <trkpt lat="44.60997" lon="4.44309">
        <ele>387.33</ele>
        <time>2019-12-15T14:34:18.000Z</time>
      </trkpt>
      <trkpt lat="44.60985" lon="4.44312">
        <ele>387.31</ele>
        <time>2019-12-15T14:34:21.000Z</time>
      </trkpt>
      <trkpt lat="44.60974" lon="4.44318">
        <ele>387.3</ele>
        <time>2019-12-15T14:34:24.000Z</time>
      </trkpt>
      <trkpt lat="44.60963" lon="4.44321">
        <ele>387.29</ele>
        <time>2019-12-15T14:34:29.000Z</time>
      </trkpt>
      <trkpt lat="44.60955" lon="4.44325">
        <ele>387.29</ele>
        <time>2019-12-15T14:34:35.000Z</time>
      </trkpt>
      <trkpt lat="44.60946" lon="4.4432">
        <ele>387.29</ele>
        <time>2019-12-15T14:34:46.000Z</time>
      </trkpt>
      <trkpt lat="44.60937" lon="4.44315">
        <ele>387.28</ele>
        <time>2019-12-15T14:35:11.000Z</time>
      </trkpt>
      <trkpt lat="44.60927" lon="4.44319">
        <ele>387.25</ele>
        <time>2019-12-15T14:35:15.000Z</time>
      </trkpt>
      <trkpt lat="44.60918" lon="4.44321">
        <ele>387.21</ele>
        <time>2019-12-15T14:35:20.000Z</time>
      </trkpt>
      <trkpt lat="44.60908" lon="4.4432">
        <ele>387.17</ele>
        <time>2019-12-15T14:35:25.000Z</time>
      </trkpt>
      <trkpt lat="44.60898" lon="4.44322">
        <ele>387.13</ele>
        <time>2019-12-15T14:35:29.000Z</time>
      </trkpt>
      <trkpt lat="44.60888" lon="4.44326">
        <ele>387.1</ele>
        <time>2019-12-15T14:35:33.000Z</time>
      </trkpt>
      <trkpt lat="44.60878" lon="4.44331">
        <ele>387.07</ele>
        <time>2019-12-15T14:35:36.000Z</time>
      </trkpt>
      <trkpt lat="44.60869" lon="4.44335">
        <ele>387.04</ele>
        <time>2019-12-15T14:35:39.000Z</time>
      </trkpt>
      <trkpt lat="44.60857" lon="4.4433">
        <ele>387.02</ele>
        <time>2019-12-15T14:35:42.000Z</time>
      </trkpt>
      <trkpt lat="44.60848" lon="4.44331">
        <ele>386.92</ele>
        <time>2019-12-15T14:35:44.000Z</time>
      </trkpt>
      <trkpt lat="44.60836" lon="4.44336">
        <ele>386.85</ele>
        <time>2019-12-15T14:35:47.000Z</time>
      </trkpt>
      <trkpt lat="44.60824" lon="4.4434">
        <ele>386.75</ele>
        <time>2019-12-15T14:35:50.000Z</time>
      </trkpt>
      <trkpt lat="44.60815" lon="4.44342">
        <ele>386.71</ele>
        <time>2019-12-15T14:35:52.000Z</time>
      </trkpt>
      <trkpt lat="44.60802" lon="4.44347">
        <ele>386.7</ele>
        <time>2019-12-15T14:35:55.000Z</time>
      </trkpt>
      <trkpt lat="44.60793" lon="4.4435">
        <ele>386.69</ele>
        <time>2019-12-15T14:35:58.000Z</time>
      </trkpt>
      <trkpt lat="44.60784" lon="4.44348">
        <ele>386.67</ele>
        <time>2019-12-15T14:36:01.000Z</time>
      </trkpt>
      <trkpt lat="44.60775" lon="4.44348">
        <ele>386.65</ele>
        <time>2019-12-15T14:36:04.000Z</time>
      </trkpt>
      <trkpt lat="44.60765" lon="4.44349">
        <ele>386.63</ele>
        <time>2019-12-15T14:36:07.000Z</time>
      </trkpt>
      <trkpt lat="44.60754" lon="4.44346">
        <ele>386.61</ele>
        <time>2019-12-15T14:36:10.000Z</time>
      </trkpt>
      <trkpt lat="44.60743" lon="4.44346">
        <ele>386.58</ele>
        <time>2019-12-15T14:36:14.000Z</time>
      </trkpt>
      <trkpt lat="44.60734" lon="4.44341">
        <ele>386.52</ele>
        <time>2019-12-15T14:36:24.000Z</time>
      </trkpt>
      <trkpt lat="44.60725" lon="4.44337">
        <ele>386.47</ele>
        <time>2019-12-15T14:36:35.000Z</time>
      </trkpt>
      <trkpt lat="44.60715" lon="4.44338">
        <ele>386.42</ele>
        <time>2019-12-15T14:36:43.000Z</time>
      </trkpt>
      <trkpt lat="44.60705" lon="4.44342">
        <ele>386.39</ele>
        <time>2019-12-15T14:36:48.000Z</time>
      </trkpt>
      <trkpt lat="44.60695" lon="4.44346">
        <ele>386.36</ele>
        <time>2019-12-15T14:36:52.000Z</time>
      </trkpt>
      <trkpt lat="44.60686" lon="4.4435">
        <ele>386.32</ele>
        <time>2019-12-15T14:36:56.000Z</time>
      </trkpt>
      <trkpt lat="44.60676" lon="4.4435">
        <ele>386.29</ele>
        <time>2019-12-15T14:37:00.000Z</time>
      </trkpt>
      <trkpt lat="44.60666" lon="4.44353">
        <ele>386.25</ele>
        <time>2019-12-15T14:37:04.000Z</time>
      </trkpt>
      <trkpt lat="44.60656" lon="4.44358">
        <ele>386.22</ele>
        <time>2019-12-15T14:37:07.000Z</time>
      </trkpt>
      <trkpt lat="44.60646" lon="4.44365">
        <ele>386.17</ele>
        <time>2019-12-15T14:37:11.000Z</time>
      </trkpt>
      <trkpt lat="44.60635" lon="4.44372">
        <ele>385.95</ele>
        <time>2019-12-15T14:37:14.000Z</time>
      </trkpt>
      <trkpt lat="44.60623" lon="4.44376">
        <ele>385.77</ele>
        <time>2019-12-15T14:37:17.000Z</time>
      </trkpt>
      <trkpt lat="44.60613" lon="4.44376">
        <ele>385.68</ele>
        <time>2019-12-15T14:37:19.000Z</time>
      </trkpt>
      <trkpt lat="44.60604" lon="4.44378">
        <ele>385.62</ele>
        <time>2019-12-15T14:37:21.000Z</time>
      </trkpt>
      <trkpt lat="44.60594" lon="4.4438">
        <ele>385.56</ele>
        <time>2019-12-15T14:37:23.000Z</time>
      </trkpt>
      <trkpt lat="44.60585" lon="4.44385">
        <ele>385.52</ele>
        <time>2019-12-15T14:37:25.000Z</time>
      </trkpt>
      <trkpt lat="44.60577" lon="4.44388">
        <ele>385.5</ele>
        <time>2019-12-15T14:37:27.000Z</time>
      </trkpt>
      <trkpt lat="44.60566" lon="4.44386">
        <ele>385.49</ele>
        <time>2019-12-15T14:37:29.000Z</time>
      </trkpt>
      <trkpt lat="44.60557" lon="4.44394">
        <ele>385.47</ele>
        <time>2019-12-15T14:37:31.000Z</time>
      </trkpt>
      <trkpt lat="44.60547" lon="4.44392">
        <ele>385.44</ele>
        <time>2019-12-15T14:37:33.000Z</time>
      </trkpt>
      <trkpt lat="44.60535" lon="4.44389">
        <ele>385.43</ele>
        <time>2019-12-15T14:37:35.000Z</time>
      </trkpt>
      <trkpt lat="44.60524" lon="4.44387">
        <ele>385.43</ele>
        <time>2019-12-15T14:37:37.000Z</time>
      </trkpt>
      <trkpt lat="44.60511" lon="4.4439">
        <ele>385.42</ele>
        <time>2019-12-15T14:37:40.000Z</time>
      </trkpt>
      <trkpt lat="44.60502" lon="4.44389">
        <ele>385.41</ele>
        <time>2019-12-15T14:37:42.000Z</time>
      </trkpt>
      <trkpt lat="44.60489" lon="4.44397">
        <ele>385.41</ele>
        <time>2019-12-15T14:37:45.000Z</time>
      </trkpt>
      <trkpt lat="44.60477" lon="4.44405">
        <ele>385.41</ele>
        <time>2019-12-15T14:37:48.000Z</time>
      </trkpt>
      <trkpt lat="44.60465" lon="4.44409">
        <ele>385.4</ele>
        <time>2019-12-15T14:37:51.000Z</time>
      </trkpt>
      <trkpt lat="44.60455" lon="4.44413">
        <ele>385.4</ele>
        <time>2019-12-15T14:37:54.000Z</time>
      </trkpt>
      <trkpt lat="44.60445" lon="4.44412">
        <ele>385.4</ele>
        <time>2019-12-15T14:38:00.000Z</time>
      </trkpt>
      <trkpt lat="44.60436" lon="4.44409">
        <ele>385.4</ele>
        <time>2019-12-15T14:38:08.000Z</time>
      </trkpt>
      <trkpt lat="44.60427" lon="4.44406">
        <ele>385.39</ele>
        <time>2019-12-15T14:38:16.000Z</time>
      </trkpt>
      <trkpt lat="44.60418" lon="4.44402">
        <ele>385.37</ele>
        <time>2019-12-15T14:38:23.000Z</time>
      </trkpt>
      <trkpt lat="44.60407" lon="4.444">
        <ele>385.32</ele>
        <time>2019-12-15T14:38:32.000Z</time>
      </trkpt>
      <trkpt lat="44.60397" lon="4.44402">
        <ele>385.28</ele>
        <time>2019-12-15T14:38:38.000Z</time>
      </trkpt>
      <trkpt lat="44.60387" lon="4.444">
        <ele>385.23</ele>
        <time>2019-12-15T14:38:43.000Z</time>
      </trkpt>
      <trkpt lat="44.60377" lon="4.44401">
        <ele>385.19</ele>
        <time>2019-12-15T14:38:47.000Z</time>
      </trkpt>
      <trkpt lat="44.60367" lon="4.44406">
        <ele>385.14</ele>
        <time>2019-12-15T14:38:51.000Z</time>
      </trkpt>
      <trkpt lat="44.60356" lon="4.44409">
        <ele>385.09</ele>
        <time>2019-12-15T14:38:56.000Z</time>
      </trkpt>
      <trkpt lat="44.60346" lon="4.44415">
        <ele>385.05</ele>
        <time>2019-12-15T14:39:00.000Z</time>
      </trkpt>
      <trkpt lat="44.60337" lon="4.44419">
        <ele>385.01</ele>
        <time>2019-12-15T14:39:04.000Z</time>
      </trkpt>
      <trkpt lat="44.60327" lon="4.44423">
        <ele>384.98</ele>
        <time>2019-12-15T14:39:08.000Z</time>
      </trkpt>
      <trkpt lat="44.60318" lon="4.44428">
        <ele>384.95</ele>
        <time>2019-12-15T14:39:12.000Z</time>
      </trkpt>
      <trkpt lat="44.60307" lon="4.44433">
        <ele>384.93</ele>
        <time>2019-12-15T14:39:16.000Z</time>
      </trkpt>
      <trkpt lat="44.60296" lon="4.44435">
        <ele>384.91</ele>
        <time>2019-12-15T14:39:19.000Z</time>
      </trkpt>
      <trkpt lat="44.60288" lon="4.44441">
        <ele>384.89</ele>
        <time>2019-12-15T14:39:22.000Z</time>
      </trkpt>
      <trkpt lat="44.60279" lon="4.44448">
        <ele>384.87</ele>
        <time>2019-12-15T14:39:26.000Z</time>
      </trkpt>
      <trkpt lat="44.60269" lon="4.44444">
        <ele>384.65</ele>
        <time>2019-12-15T14:39:54.000Z</time>
      </trkpt>
      <trkpt lat="44.60265" lon="4.44459">
        <ele>384.52</ele>
        <time>2019-12-15T14:39:59.000Z</time>
      </trkpt>
      <trkpt lat="44.6026" lon="4.44471">
        <ele>384.45</ele>
        <time>2019-12-15T14:40:02.000Z</time>
      </trkpt>
      <trkpt lat="44.60255" lon="4.44485">
        <ele>384.34</ele>
        <time>2019-12-15T14:40:07.000Z</time>
      </trkpt>
      <trkpt lat="44.60251" lon="4.44501">
        <ele>384.05</ele>
        <time>2019-12-15T14:40:11.000Z</time>
      </trkpt>
      <trkpt lat="44.60245" lon="4.44517">
        <ele>383.62</ele>
        <time>2019-12-15T14:40:14.000Z</time>
      </trkpt>
      <trkpt lat="44.6024" lon="4.4453">
        <ele>383.43</ele>
        <time>2019-12-15T14:40:16.000Z</time>
      </trkpt>
      <trkpt lat="44.60237" lon="4.44545">
        <ele>383.3</ele>
        <time>2019-12-15T14:40:18.000Z</time>
      </trkpt>
      <trkpt lat="44.60232" lon="4.44561">
        <ele>383.22</ele>
        <time>2019-12-15T14:40:20.000Z</time>
      </trkpt>
      <trkpt lat="44.60229" lon="4.44574">
        <ele>383.15</ele>
        <time>2019-12-15T14:40:22.000Z</time>
      </trkpt>
      <trkpt lat="44.60223" lon="4.44589">
        <ele>383.08</ele>
        <time>2019-12-15T14:40:25.000Z</time>
      </trkpt>
      <trkpt lat="44.60213" lon="4.44592">
        <ele>383.01</ele>
        <time>2019-12-15T14:40:28.000Z</time>
      </trkpt>
      <trkpt lat="44.60204" lon="4.44595">
        <ele>382.99</ele>
        <time>2019-12-15T14:40:30.000Z</time>
      </trkpt>
      <trkpt lat="44.60197" lon="4.44607">
        <ele>382.97</ele>
        <time>2019-12-15T14:40:33.000Z</time>
      </trkpt>
      <trkpt lat="44.60191" lon="4.44618">
        <ele>382.94</ele>
        <time>2019-12-15T14:40:36.000Z</time>
      </trkpt>
      <trkpt lat="44.60185" lon="4.44632">
        <ele>382.9</ele>
        <time>2019-12-15T14:40:40.000Z</time>
      </trkpt>
      <trkpt lat="44.60177" lon="4.44643">
        <ele>382.85</ele>
        <time>2019-12-15T14:40:44.000Z</time>
      </trkpt>
      <trkpt lat="44.60168" lon="4.44658">
        <ele>382.82</ele>
        <time>2019-12-15T14:40:47.000Z</time>
      </trkpt>
      <trkpt lat="44.60164" lon="4.44669">
        <ele>382.69</ele>
        <time>2019-12-15T14:40:49.000Z</time>
      </trkpt>
      <trkpt lat="44.60158" lon="4.44682">
        <ele>382.54</ele>
        <time>2019-12-15T14:40:52.000Z</time>
      </trkpt>
      <trkpt lat="44.60154" lon="4.44694">
        <ele>382.34</ele>
        <time>2019-12-15T14:40:54.000Z</time>
      </trkpt>
      <trkpt lat="44.6015" lon="4.44709">
        <ele>382.19</ele>
        <time>2019-12-15T14:40:56.000Z</time>
      </trkpt>
      <trkpt lat="44.60147" lon="4.44722">
        <ele>382.05</ele>
        <time>2019-12-15T14:40:58.000Z</time>
      </trkpt>
      <trkpt lat="44.60144" lon="4.44736">
        <ele>381.93</ele>
        <time>2019-12-15T14:41:00.000Z</time>
      </trkpt>
      <trkpt lat="44.60141" lon="4.4475">
        <ele>381.82</ele>
        <time>2019-12-15T14:41:02.000Z</time>
      </trkpt>
      <trkpt lat="44.6014" lon="4.44763">
        <ele>381.72</ele>
        <time>2019-12-15T14:41:04.000Z</time>
      </trkpt>
      <trkpt lat="44.60141" lon="4.44777">
        <ele>381.62</ele>
        <time>2019-12-15T14:41:06.000Z</time>
      </trkpt>
      <trkpt lat="44.60144" lon="4.4479">
        <ele>381.53</ele>
        <time>2019-12-15T14:41:08.000Z</time>
      </trkpt>
      <trkpt lat="44.60147" lon="4.44804">
        <ele>381.47</ele>
        <time>2019-12-15T14:41:10.000Z</time>
      </trkpt>
      <trkpt lat="44.60145" lon="4.4482">
        <ele>381.41</ele>
        <time>2019-12-15T14:41:12.000Z</time>
      </trkpt>
      <trkpt lat="44.60142" lon="4.44835">
        <ele>381.38</ele>
        <time>2019-12-15T14:41:14.000Z</time>
      </trkpt>
      <trkpt lat="44.60137" lon="4.44852">
        <ele>381.34</ele>
        <time>2019-12-15T14:41:16.000Z</time>
      </trkpt>
      <trkpt lat="44.60136" lon="4.44865">
        <ele>381.31</ele>
        <time>2019-12-15T14:41:18.000Z</time>
      </trkpt>
      <trkpt lat="44.60138" lon="4.44879">
        <ele>381.26</ele>
        <time>2019-12-15T14:41:20.000Z</time>
      </trkpt>
      <trkpt lat="44.60136" lon="4.44896">
        <ele>381.2</ele>
        <time>2019-12-15T14:41:22.000Z</time>
      </trkpt>
      <trkpt lat="44.60133" lon="4.44915">
        <ele>381.13</ele>
        <time>2019-12-15T14:41:24.000Z</time>
      </trkpt>
      <trkpt lat="44.60133" lon="4.44931">
        <ele>381.1</ele>
        <time>2019-12-15T14:41:26.000Z</time>
      </trkpt>
      <trkpt lat="44.60132" lon="4.44945">
        <ele>381.03</ele>
        <time>2019-12-15T14:41:28.000Z</time>
      </trkpt>
      <trkpt lat="44.6013" lon="4.44961">
        <ele>380.96</ele>
        <time>2019-12-15T14:41:30.000Z</time>
      </trkpt>
      <trkpt lat="44.60128" lon="4.44975">
        <ele>380.91</ele>
        <time>2019-12-15T14:41:32.000Z</time>
      </trkpt>
      <trkpt lat="44.60129" lon="4.44988">
        <ele>380.86</ele>
        <time>2019-12-15T14:41:34.000Z</time>
      </trkpt>
      <trkpt lat="44.6013" lon="4.45003">
        <ele>380.78</ele>
        <time>2019-12-15T14:41:36.000Z</time>
      </trkpt>
      <trkpt lat="44.60132" lon="4.45018">
        <ele>380.7</ele>
        <time>2019-12-15T14:41:39.000Z</time>
      </trkpt>
      <trkpt lat="44.60132" lon="4.45032">
        <ele>380.68</ele>
        <time>2019-12-15T14:41:42.000Z</time>
      </trkpt>
      <trkpt lat="44.60129" lon="4.45048">
        <ele>380.65</ele>
        <time>2019-12-15T14:41:45.000Z</time>
      </trkpt>
      <trkpt lat="44.60124" lon="4.45059">
        <ele>380.47</ele>
        <time>2019-12-15T14:41:47.000Z</time>
      </trkpt>
      <trkpt lat="44.60114" lon="4.45068">
        <ele>380.44</ele>
        <time>2019-12-15T14:41:50.000Z</time>
      </trkpt>
      <trkpt lat="44.60106" lon="4.45081">
        <ele>380.39</ele>
        <time>2019-12-15T14:41:54.000Z</time>
      </trkpt>
      <trkpt lat="44.601" lon="4.45092">
        <ele>380.33</ele>
        <time>2019-12-15T14:41:58.000Z</time>
      </trkpt>
      <trkpt lat="44.60094" lon="4.45108">
        <ele>380.27</ele>
        <time>2019-12-15T14:42:02.000Z</time>
      </trkpt>
      <trkpt lat="44.60089" lon="4.45123">
        <ele>380.21</ele>
        <time>2019-12-15T14:42:05.000Z</time>
      </trkpt>
      <trkpt lat="44.60085" lon="4.45136">
        <ele>380.15</ele>
        <time>2019-12-15T14:42:08.000Z</time>
      </trkpt>
      <trkpt lat="44.6008" lon="4.45147">
        <ele>379.76</ele>
        <time>2019-12-15T14:42:10.000Z</time>
      </trkpt>
      <trkpt lat="44.60075" lon="4.45159">
        <ele>379.46</ele>
        <time>2019-12-15T14:42:12.000Z</time>
      </trkpt>
      <trkpt lat="44.60068" lon="4.45173">
        <ele>379.41</ele>
        <time>2019-12-15T14:42:15.000Z</time>
      </trkpt>
      <trkpt lat="44.60064" lon="4.45186">
        <ele>379.35</ele>
        <time>2019-12-15T14:42:18.000Z</time>
      </trkpt>
      <trkpt lat="44.60059" lon="4.45197">
        <ele>378.92</ele>
        <time>2019-12-15T14:42:20.000Z</time>
      </trkpt>
      <trkpt lat="44.60053" lon="4.45212">
        <ele>378.56</ele>
        <time>2019-12-15T14:42:22.000Z</time>
      </trkpt>
      <trkpt lat="44.60048" lon="4.45226">
        <ele>378.26</ele>
        <time>2019-12-15T14:42:24.000Z</time>
      </trkpt>
      <trkpt lat="44.60045" lon="4.45239">
        <ele>378.02</ele>
        <time>2019-12-15T14:42:26.000Z</time>
      </trkpt>
      <trkpt lat="44.60039" lon="4.45252">
        <ele>377.83</ele>
        <time>2019-12-15T14:42:28.000Z</time>
      </trkpt>
      <trkpt lat="44.60033" lon="4.45267">
        <ele>377.7</ele>
        <time>2019-12-15T14:42:30.000Z</time>
      </trkpt>
      <trkpt lat="44.60027" lon="4.45281">
        <ele>377.59</ele>
        <time>2019-12-15T14:42:32.000Z</time>
      </trkpt>
      <trkpt lat="44.60022" lon="4.45296">
        <ele>377.49</ele>
        <time>2019-12-15T14:42:34.000Z</time>
      </trkpt>
      <trkpt lat="44.60017" lon="4.45309">
        <ele>377.41</ele>
        <time>2019-12-15T14:42:36.000Z</time>
      </trkpt>
      <trkpt lat="44.60012" lon="4.45325">
        <ele>377.31</ele>
        <time>2019-12-15T14:42:38.000Z</time>
      </trkpt>
      <trkpt lat="44.60008" lon="4.4534">
        <ele>377.21</ele>
        <time>2019-12-15T14:42:40.000Z</time>
      </trkpt>
      <trkpt lat="44.60002" lon="4.45356">
        <ele>377.19</ele>
        <time>2019-12-15T14:42:44.000Z</time>
      </trkpt>
      <trkpt lat="44.59994" lon="4.45366">
        <ele>377.09</ele>
        <time>2019-12-15T14:42:47.000Z</time>
      </trkpt>
      <trkpt lat="44.59988" lon="4.45375">
        <ele>376.95</ele>
        <time>2019-12-15T14:42:50.000Z</time>
      </trkpt>
      <trkpt lat="44.59984" lon="4.45388">
        <ele>376.72</ele>
        <time>2019-12-15T14:42:54.000Z</time>
      </trkpt>
      <trkpt lat="44.59979" lon="4.45402">
        <ele>376.47</ele>
        <time>2019-12-15T14:42:58.000Z</time>
      </trkpt>
      <trkpt lat="44.59973" lon="4.45418">
        <ele>376.08</ele>
        <time>2019-12-15T14:43:01.000Z</time>
      </trkpt>
      <trkpt lat="44.5998" lon="4.45404">
        <ele>371.04</ele>
        <time>2019-12-15T14:43:29.000Z</time>
      </trkpt>
      <trkpt lat="44.59984" lon="4.45392">
        <ele>370.3</ele>
        <time>2019-12-15T14:43:32.000Z</time>
      </trkpt>
      <trkpt lat="44.59989" lon="4.4538">
        <ele>369.38</ele>
        <time>2019-12-15T14:43:36.000Z</time>
      </trkpt>
      <trkpt lat="44.59994" lon="4.45368">
        <ele>368.5</ele>
        <time>2019-12-15T14:43:40.000Z</time>
      </trkpt>
      <trkpt lat="44.60001" lon="4.45355">
        <ele>367.5</ele>
        <time>2019-12-15T14:43:45.000Z</time>
      </trkpt>
      <trkpt lat="44.59994" lon="4.45343">
        <ele>366.37</ele>
        <time>2019-12-15T14:43:51.000Z</time>
      </trkpt>
      <trkpt lat="44.59999" lon="4.45329">
        <ele>365.65</ele>
        <time>2019-12-15T14:43:55.000Z</time>
      </trkpt>
      <trkpt lat="44.59996" lon="4.45315">
        <ele>364.8</ele>
        <time>2019-12-15T14:44:00.000Z</time>
      </trkpt>
      <trkpt lat="44.59987" lon="4.45308">
        <ele>364.45</ele>
        <time>2019-12-15T14:44:02.000Z</time>
      </trkpt>
      <trkpt lat="44.59978" lon="4.45308">
        <ele>364.11</ele>
        <time>2019-12-15T14:44:04.000Z</time>
      </trkpt>
      <trkpt lat="44.59964" lon="4.45306">
        <ele>360.9</ele>
        <time>2019-12-15T14:44:07.000Z</time>
      </trkpt>
      <trkpt lat="44.59956" lon="4.45299">
        <ele>358.89</ele>
        <time>2019-12-15T14:44:09.000Z</time>
      </trkpt>
      <trkpt lat="44.59944" lon="4.45293">
        <ele>358.67</ele>
        <time>2019-12-15T14:44:12.000Z</time>
      </trkpt>
      <trkpt lat="44.59936" lon="4.45287">
        <ele>357.32</ele>
        <time>2019-12-15T14:44:14.000Z</time>
      </trkpt>
      <trkpt lat="44.59927" lon="4.45281">
        <ele>356.39</ele>
        <time>2019-12-15T14:44:16.000Z</time>
      </trkpt>
      <trkpt lat="44.59916" lon="4.45271">
        <ele>355.54</ele>
        <time>2019-12-15T14:44:19.000Z</time>
      </trkpt>
      <trkpt lat="44.59905" lon="4.45262">
        <ele>355.01</ele>
        <time>2019-12-15T14:44:22.000Z</time>
      </trkpt>
      <trkpt lat="44.59893" lon="4.45253">
        <ele>354.79</ele>
        <time>2019-12-15T14:44:24.999Z</time>
      </trkpt>
      <trkpt lat="44.59882" lon="4.45245">
        <ele>354.38</ele>
        <time>2019-12-15T14:44:27.999Z</time>
      </trkpt>
      <trkpt lat="44.5987" lon="4.45238">
        <ele>354.11</ele>
        <time>2019-12-15T14:44:30.999Z</time>
      </trkpt>
      <trkpt lat="44.59858" lon="4.45233">
        <ele>353.99</ele>
        <time>2019-12-15T14:44:33.999Z</time>
      </trkpt>
      <trkpt lat="44.59847" lon="4.45227">
        <ele>353.85</ele>
        <time>2019-12-15T14:44:36.999Z</time>
      </trkpt>
      <trkpt lat="44.59835" lon="4.4522">
        <ele>353.56</ele>
        <time>2019-12-15T14:44:39.999Z</time>
      </trkpt>
      <trkpt lat="44.59826" lon="4.45218">
        <ele>353.52</ele>
        <time>2019-12-15T14:44:42.999Z</time>
      </trkpt>
      <trkpt lat="44.59816" lon="4.45214">
        <ele>353.47</ele>
        <time>2019-12-15T14:44:45.999Z</time>
      </trkpt>
      <trkpt lat="44.59807" lon="4.4521">
        <ele>353.42</ele>
        <time>2019-12-15T14:44:48.999Z</time>
      </trkpt>
      <trkpt lat="44.59797" lon="4.45206">
        <ele>353.34</ele>
        <time>2019-12-15T14:44:52.999Z</time>
      </trkpt>
      <trkpt lat="44.59787" lon="4.45202">
        <ele>353.26</ele>
        <time>2019-12-15T14:44:56.999Z</time>
      </trkpt>
      <trkpt lat="44.59777" lon="4.45195">
        <ele>353.16</ele>
        <time>2019-12-15T14:45:01.999Z</time>
      </trkpt>
      <trkpt lat="44.59768" lon="4.4519">
        <ele>353.08</ele>
        <time>2019-12-15T14:45:05.999Z</time>
      </trkpt>
      <trkpt lat="44.59759" lon="4.45187">
        <ele>352.99</ele>
        <time>2019-12-15T14:45:09.999Z</time>
      </trkpt>
      <trkpt lat="44.59749" lon="4.45184">
        <ele>352.86</ele>
        <time>2019-12-15T14:45:14.999Z</time>
      </trkpt>
      <trkpt lat="44.59741" lon="4.45176">
        <ele>351.56</ele>
        <time>2019-12-15T14:45:46.999Z</time>
      </trkpt>
      <trkpt lat="44.59734" lon="4.45185">
        <ele>350.81</ele>
        <time>2019-12-15T14:45:54.999Z</time>
      </trkpt>
      <trkpt lat="44.59726" lon="4.45194">
        <ele>350.26</ele>
        <time>2019-12-15T14:46:00.999Z</time>
      </trkpt>
      <trkpt lat="44.59717" lon="4.45196">
        <ele>349.69</ele>
        <time>2019-12-15T14:46:07.999Z</time>
      </trkpt>
      <trkpt lat="44.5971" lon="4.45188">
        <ele>349.09</ele>
        <time>2019-12-15T14:46:15.999Z</time>
      </trkpt>
      <trkpt lat="44.59701" lon="4.45185">
        <ele>348.43</ele>
        <time>2019-12-15T14:46:25.999Z</time>
      </trkpt>
      <trkpt lat="44.59692" lon="4.45187">
        <ele>348</ele>
        <time>2019-12-15T14:46:40.999Z</time>
      </trkpt>
      <trkpt lat="44.59682" lon="4.45183">
        <ele>346.82</ele>
        <time>2019-12-15T14:47:02.999Z</time>
      </trkpt>
      <trkpt lat="44.59673" lon="4.45185">
        <ele>346.3</ele>
        <time>2019-12-15T14:47:15.999Z</time>
      </trkpt>
      <trkpt lat="44.59665" lon="4.45192">
        <ele>345.98</ele>
        <time>2019-12-15T14:47:26.999Z</time>
      </trkpt>
      <trkpt lat="44.59657" lon="4.45201">
        <ele>345.6</ele>
        <time>2019-12-15T14:47:41.999Z</time>
      </trkpt>
      <trkpt lat="44.59655" lon="4.45213">
        <ele>345.17</ele>
        <time>2019-12-15T14:47:57.999Z</time>
      </trkpt>
      <trkpt lat="44.5965" lon="4.45224">
        <ele>344.94</ele>
        <time>2019-12-15T14:48:07.999Z</time>
      </trkpt>
      <trkpt lat="44.59641" lon="4.4523">
        <ele>344.7</ele>
        <time>2019-12-15T14:48:18.999Z</time>
      </trkpt>
      <trkpt lat="44.59635" lon="4.4524">
        <ele>344.61</ele>
        <time>2019-12-15T14:48:24.999Z</time>
      </trkpt>
      <trkpt lat="44.59633" lon="4.45255">
        <ele>344.55</ele>
        <time>2019-12-15T14:48:29.999Z</time>
      </trkpt>
      <trkpt lat="44.59633" lon="4.45268">
        <ele>344.37</ele>
        <time>2019-12-15T14:48:51.999Z</time>
      </trkpt>
      <trkpt lat="44.59638" lon="4.45256">
        <ele>343.87</ele>
        <time>2019-12-15T14:50:36.999Z</time>
      </trkpt>
      <trkpt lat="44.5964" lon="4.45244">
        <ele>343.84</ele>
        <time>2019-12-15T14:50:42.999Z</time>
      </trkpt>
      <trkpt lat="44.59646" lon="4.45233">
        <ele>343.79</ele>
        <time>2019-12-15T14:50:48.999Z</time>
      </trkpt>
      <trkpt lat="44.59647" lon="4.4522">
        <ele>343.75</ele>
        <time>2019-12-15T14:50:54.999Z</time>
      </trkpt>
      <trkpt lat="44.59652" lon="4.45208">
        <ele>343.72</ele>
        <time>2019-12-15T14:50:58.999Z</time>
      </trkpt>
      <trkpt lat="44.59658" lon="4.45199">
        <ele>343.68</ele>
        <time>2019-12-15T14:51:02.999Z</time>
      </trkpt>
      <trkpt lat="44.59667" lon="4.45194">
        <ele>343.61</ele>
        <time>2019-12-15T14:51:07.999Z</time>
      </trkpt>
      <trkpt lat="44.59677" lon="4.45194">
        <ele>343.53</ele>
        <time>2019-12-15T14:51:13.999Z</time>
      </trkpt>
      <trkpt lat="44.59686" lon="4.45199">
        <ele>343.44</ele>
        <time>2019-12-15T14:51:18.999Z</time>
      </trkpt>
      <trkpt lat="44.59694" lon="4.4521">
        <ele>343.4</ele>
        <time>2019-12-15T14:51:20.999Z</time>
      </trkpt>
      <trkpt lat="44.59704" lon="4.45218">
        <ele>343.34</ele>
        <time>2019-12-15T14:51:23.999Z</time>
      </trkpt>
      <trkpt lat="44.59714" lon="4.45215">
        <ele>343.26</ele>
        <time>2019-12-15T14:51:28.999Z</time>
      </trkpt>
      <trkpt lat="44.59722" lon="4.45203">
        <ele>343.2</ele>
        <time>2019-12-15T14:51:31.999Z</time>
      </trkpt>
      <trkpt lat="44.59723" lon="4.45191">
        <ele>343.06</ele>
        <time>2019-12-15T14:51:40.999Z</time>
      </trkpt>
      <trkpt lat="44.59716" lon="4.45181">
        <ele>342.97</ele>
        <time>2019-12-15T14:51:46.999Z</time>
      </trkpt>
      <trkpt lat="44.59708" lon="4.45176">
        <ele>342.88</ele>
        <time>2019-12-15T14:51:53.999Z</time>
      </trkpt>
      <trkpt lat="44.59698" lon="4.45172">
        <ele>342.81</ele>
        <time>2019-12-15T14:51:59.999Z</time>
      </trkpt>
      <trkpt lat="44.59692" lon="4.45163">
        <ele>342.76</ele>
        <time>2019-12-15T14:52:04.999Z</time>
      </trkpt>
      <trkpt lat="44.59685" lon="4.45152">
        <ele>342.71</ele>
        <time>2019-12-15T14:52:10.999Z</time>
      </trkpt>
      <trkpt lat="44.59682" lon="4.45141">
        <ele>342.69</ele>
        <time>2019-12-15T14:52:14.999Z</time>
      </trkpt>
      <trkpt lat="44.59676" lon="4.4513">
        <ele>342.66</ele>
        <time>2019-12-15T14:52:18.999Z</time>
      </trkpt>
      <trkpt lat="44.59667" lon="4.45123">
        <ele>342.63</ele>
        <time>2019-12-15T14:52:23.999Z</time>
      </trkpt>
      <trkpt lat="44.59659" lon="4.45116">
        <ele>342.58</ele>
        <time>2019-12-15T14:52:30.999Z</time>
      </trkpt>
      <trkpt lat="44.59653" lon="4.45106">
        <ele>342.53</ele>
        <time>2019-12-15T14:52:38.999Z</time>
      </trkpt>
      <trkpt lat="44.59653" lon="4.45119">
        <ele>342.29</ele>
        <time>2019-12-15T14:53:24.999Z</time>
      </trkpt>
      <trkpt lat="44.59659" lon="4.45128">
        <ele>342.26</ele>
        <time>2019-12-15T14:53:30.999Z</time>
      </trkpt>
      <trkpt lat="44.59653" lon="4.45118">
        <ele>342.09</ele>
        <time>2019-12-15T14:53:54.999Z</time>
      </trkpt>
      <trkpt lat="44.59648" lon="4.45103">
        <ele>342.01</ele>
        <time>2019-12-15T14:54:02.999Z</time>
      </trkpt>
      <trkpt lat="44.5964" lon="4.45095">
        <ele>341.87</ele>
        <time>2019-12-15T14:54:18.999Z</time>
      </trkpt>
      <trkpt lat="44.5963" lon="4.45096">
        <ele>341.83</ele>
        <time>2019-12-15T14:54:25.999Z</time>
      </trkpt>
      <trkpt lat="44.59621" lon="4.45096">
        <ele>341.81</ele>
        <time>2019-12-15T14:54:29.999Z</time>
      </trkpt>
      <trkpt lat="44.5961" lon="4.45095">
        <ele>341.79</ele>
        <time>2019-12-15T14:54:34.999Z</time>
      </trkpt>
      <trkpt lat="44.596" lon="4.45089">
        <ele>341.77</ele>
        <time>2019-12-15T14:54:38.999Z</time>
      </trkpt>
      <trkpt lat="44.59589" lon="4.45083">
        <ele>341.75</ele>
        <time>2019-12-15T14:54:42.999Z</time>
      </trkpt>
      <trkpt lat="44.59579" lon="4.45078">
        <ele>341.74</ele>
        <time>2019-12-15T14:54:45.999Z</time>
      </trkpt>
      <trkpt lat="44.5957" lon="4.45079">
        <ele>341.73</ele>
        <time>2019-12-15T14:54:48.999Z</time>
      </trkpt>
      <trkpt lat="44.59561" lon="4.4508">
        <ele>341.72</ele>
        <time>2019-12-15T14:54:50.999Z</time>
      </trkpt>
      <trkpt lat="44.59549" lon="4.4508">
        <ele>341.7</ele>
        <time>2019-12-15T14:54:55.999Z</time>
      </trkpt>
      <trkpt lat="44.59539" lon="4.45079">
        <ele>341.68</ele>
        <time>2019-12-15T14:54:58.999Z</time>
      </trkpt>
      <trkpt lat="44.5953" lon="4.45077">
        <ele>341.66</ele>
        <time>2019-12-15T14:55:02.999Z</time>
      </trkpt>
      <trkpt lat="44.59519" lon="4.45076">
        <ele>341.62</ele>
        <time>2019-12-15T14:55:08.999Z</time>
      </trkpt>
      <trkpt lat="44.59508" lon="4.45076">
        <ele>341.6</ele>
        <time>2019-12-15T14:55:11.999Z</time>
      </trkpt>
      <trkpt lat="44.59499" lon="4.45073">
        <ele>341.59</ele>
        <time>2019-12-15T14:55:14.999Z</time>
      </trkpt>
      <trkpt lat="44.59488" lon="4.45074">
        <ele>341.56</ele>
        <time>2019-12-15T14:55:18.999Z</time>
      </trkpt>
      <trkpt lat="44.59478" lon="4.45075">
        <ele>341.54</ele>
        <time>2019-12-15T14:55:21.999Z</time>
      </trkpt>
      <trkpt lat="44.59465" lon="4.45077">
        <ele>341.52</ele>
        <time>2019-12-15T14:55:24.999Z</time>
      </trkpt>
      <trkpt lat="44.59454" lon="4.45076">
        <ele>341.51</ele>
        <time>2019-12-15T14:55:27.999Z</time>
      </trkpt>
      <trkpt lat="44.59444" lon="4.45076">
        <ele>341.48</ele>
        <time>2019-12-15T14:55:31.999Z</time>
      </trkpt>
      <trkpt lat="44.59435" lon="4.45076">
        <ele>341.46</ele>
        <time>2019-12-15T14:55:34.999Z</time>
      </trkpt>
      <trkpt lat="44.59425" lon="4.45075">
        <ele>341.42</ele>
        <time>2019-12-15T14:55:38.999Z</time>
      </trkpt>
      <trkpt lat="44.59415" lon="4.45076">
        <ele>341.3</ele>
        <time>2019-12-15T14:55:52.999Z</time>
      </trkpt>
      <trkpt lat="44.59405" lon="4.45079">
        <ele>341.26</ele>
        <time>2019-12-15T14:55:56.999Z</time>
      </trkpt>
      <trkpt lat="44.59396" lon="4.45084">
        <ele>341.23</ele>
        <time>2019-12-15T14:55:59.999Z</time>
      </trkpt>
      <trkpt lat="44.59385" lon="4.45088">
        <ele>341.19</ele>
        <time>2019-12-15T14:56:03.999Z</time>
      </trkpt>
      <trkpt lat="44.59376" lon="4.45091">
        <ele>341.17</ele>
        <time>2019-12-15T14:56:05.999Z</time>
      </trkpt>
      <trkpt lat="44.59365" lon="4.45093">
        <ele>341.13</ele>
        <time>2019-12-15T14:56:08.999Z</time>
      </trkpt>
      <trkpt lat="44.59354" lon="4.45099">
        <ele>341.1</ele>
        <time>2019-12-15T14:56:11.999Z</time>
      </trkpt>
      <trkpt lat="44.59345" lon="4.45104">
        <ele>341.07</ele>
        <time>2019-12-15T14:56:14.999Z</time>
      </trkpt>
      <trkpt lat="44.59335" lon="4.45109">
        <ele>341.03</ele>
        <time>2019-12-15T14:56:17.999Z</time>
      </trkpt>
      <trkpt lat="44.59324" lon="4.45113">
        <ele>341</ele>
        <time>2019-12-15T14:56:20.999Z</time>
      </trkpt>
      <trkpt lat="44.59313" lon="4.45114">
        <ele>340.97</ele>
        <time>2019-12-15T14:56:23.999Z</time>
      </trkpt>
      <trkpt lat="44.593" lon="4.45118">
        <ele>340.93</ele>
        <time>2019-12-15T14:56:26.999Z</time>
      </trkpt>
      <trkpt lat="44.59288" lon="4.4512">
        <ele>340.9</ele>
        <time>2019-12-15T14:56:29.999Z</time>
      </trkpt>
      <trkpt lat="44.59274" lon="4.45123">
        <ele>340.87</ele>
        <time>2019-12-15T14:56:32.999Z</time>
      </trkpt>
      <trkpt lat="44.59261" lon="4.45122">
        <ele>340.83</ele>
        <time>2019-12-15T14:56:35.999Z</time>
      </trkpt>
      <trkpt lat="44.59251" lon="4.45124">
        <ele>340.79</ele>
        <time>2019-12-15T14:56:38.999Z</time>
      </trkpt>
      <trkpt lat="44.59239" lon="4.45124">
        <ele>340.75</ele>
        <time>2019-12-15T14:56:41.999Z</time>
      </trkpt>
      <trkpt lat="44.5923" lon="4.45123">
        <ele>340.71</ele>
        <time>2019-12-15T14:56:44.999Z</time>
      </trkpt>
      <trkpt lat="44.5922" lon="4.45123">
        <ele>340.67</ele>
        <time>2019-12-15T14:56:47.999Z</time>
      </trkpt>
      <trkpt lat="44.5921" lon="4.45123">
        <ele>340.63</ele>
        <time>2019-12-15T14:56:50.999Z</time>
      </trkpt>
      <trkpt lat="44.592" lon="4.45125">
        <ele>340.59</ele>
        <time>2019-12-15T14:56:53.999Z</time>
      </trkpt>
      <trkpt lat="44.59191" lon="4.45124">
        <ele>340.56</ele>
        <time>2019-12-15T14:56:56.999Z</time>
      </trkpt>
      <trkpt lat="44.5918" lon="4.45126">
        <ele>340.52</ele>
        <time>2019-12-15T14:57:00.999Z</time>
      </trkpt>
      <trkpt lat="44.5917" lon="4.45128">
        <ele>340.5</ele>
        <time>2019-12-15T14:57:03.999Z</time>
      </trkpt>
      <trkpt lat="44.5916" lon="4.4513">
        <ele>340.48</ele>
        <time>2019-12-15T14:57:05.999Z</time>
      </trkpt>
      <trkpt lat="44.59151" lon="4.45134">
        <ele>340.46</ele>
        <time>2019-12-15T14:57:08.999Z</time>
      </trkpt>
      <trkpt lat="44.59141" lon="4.4514">
        <ele>340.44</ele>
        <time>2019-12-15T14:57:12.999Z</time>
      </trkpt>
      <trkpt lat="44.59132" lon="4.45143">
        <ele>340.41</ele>
        <time>2019-12-15T14:57:16.999Z</time>
      </trkpt>
      <trkpt lat="44.59118" lon="4.45144">
        <ele>340.39</ele>
        <time>2019-12-15T14:57:19.999Z</time>
      </trkpt>
      <trkpt lat="44.5911" lon="4.45135">
        <ele>340.36</ele>
        <time>2019-12-15T14:57:22.999Z</time>
      </trkpt>
      <trkpt lat="44.59108" lon="4.45115">
        <ele>340.35</ele>
        <time>2019-12-15T14:57:24.999Z</time>
      </trkpt>
      <trkpt lat="44.59106" lon="4.45103">
        <ele>340.34</ele>
        <time>2019-12-15T14:57:26.999Z</time>
      </trkpt>
      <trkpt lat="44.59106" lon="4.45089">
        <ele>340.33</ele>
        <time>2019-12-15T14:57:34.999Z</time>
      </trkpt>
      <trkpt lat="44.59103" lon="4.45077">
        <ele>340.3</ele>
        <time>2019-12-15T14:57:42.999Z</time>
      </trkpt>
      <trkpt lat="44.59104" lon="4.45064">
        <ele>340.28</ele>
        <time>2019-12-15T14:57:50.999Z</time>
      </trkpt>
      <trkpt lat="44.59103" lon="4.45051">
        <ele>340.28</ele>
        <time>2019-12-15T14:57:56.999Z</time>
      </trkpt>
      <trkpt lat="44.59101" lon="4.45039">
        <ele>340.27</ele>
        <time>2019-12-15T14:58:01.999Z</time>
      </trkpt>
      <trkpt lat="44.591" lon="4.45025">
        <ele>340.26</ele>
        <time>2019-12-15T14:58:06.999Z</time>
      </trkpt>
      <trkpt lat="44.59101" lon="4.4501">
        <ele>340.27</ele>
        <time>2019-12-15T14:58:11.999Z</time>
      </trkpt>
      <trkpt lat="44.59102" lon="4.44997">
        <ele>340.28</ele>
        <time>2019-12-15T14:58:16.999Z</time>
      </trkpt>
      <trkpt lat="44.59102" lon="4.44982">
        <ele>340.3</ele>
        <time>2019-12-15T14:58:22.999Z</time>
      </trkpt>
      <trkpt lat="44.59102" lon="4.44969">
        <ele>340.33</ele>
        <time>2019-12-15T14:58:27.999Z</time>
      </trkpt>
      <trkpt lat="44.59101" lon="4.44955">
        <ele>340.36</ele>
        <time>2019-12-15T14:58:32.999Z</time>
      </trkpt>
      <trkpt lat="44.59097" lon="4.44941">
        <ele>340.4</ele>
        <time>2019-12-15T14:58:37.999Z</time>
      </trkpt>
      <trkpt lat="44.59095" lon="4.44927">
        <ele>340.44</ele>
        <time>2019-12-15T14:58:43.999Z</time>
      </trkpt>
      <trkpt lat="44.59093" lon="4.44914">
        <ele>340.47</ele>
        <time>2019-12-15T14:58:49.999Z</time>
      </trkpt>
      <trkpt lat="44.59092" lon="4.449">
        <ele>340.51</ele>
        <time>2019-12-15T14:58:55.999Z</time>
      </trkpt>
      <trkpt lat="44.5909" lon="4.44886">
        <ele>340.55</ele>
        <time>2019-12-15T14:59:01.999Z</time>
      </trkpt>
      <trkpt lat="44.59089" lon="4.44873">
        <ele>340.59</ele>
        <time>2019-12-15T14:59:06.999Z</time>
      </trkpt>
      <trkpt lat="44.59089" lon="4.44861">
        <ele>340.64</ele>
        <time>2019-12-15T14:59:11.999Z</time>
      </trkpt>
      <trkpt lat="44.5909" lon="4.44846">
        <ele>340.71</ele>
        <time>2019-12-15T14:59:17.999Z</time>
      </trkpt>
      <trkpt lat="44.59088" lon="4.44832">
        <ele>340.81</ele>
        <time>2019-12-15T14:59:24.999Z</time>
      </trkpt>
      <trkpt lat="44.59087" lon="4.44818">
        <ele>340.9</ele>
        <time>2019-12-15T14:59:30.999Z</time>
      </trkpt>
      <trkpt lat="44.59086" lon="4.44804">
        <ele>341.01</ele>
        <time>2019-12-15T14:59:36.999Z</time>
      </trkpt>
      <trkpt lat="44.59086" lon="4.44792">
        <ele>341.08</ele>
        <time>2019-12-15T14:59:40.999Z</time>
      </trkpt>
      <trkpt lat="44.59085" lon="4.44777">
        <ele>341.15</ele>
        <time>2019-12-15T14:59:44.999Z</time>
      </trkpt>
      <trkpt lat="44.59085" lon="4.44762">
        <ele>341.25</ele>
        <time>2019-12-15T14:59:49.999Z</time>
      </trkpt>
      <trkpt lat="44.59086" lon="4.44748">
        <ele>341.36</ele>
        <time>2019-12-15T14:59:54.999Z</time>
      </trkpt>
      <trkpt lat="44.59085" lon="4.44735">
        <ele>341.49</ele>
        <time>2019-12-15T15:00:00.999Z</time>
      </trkpt>
      <trkpt lat="44.59085" lon="4.44721">
        <ele>341.63</ele>
        <time>2019-12-15T15:00:06.999Z</time>
      </trkpt>
      <trkpt lat="44.59084" lon="4.44708">
        <ele>341.75</ele>
        <time>2019-12-15T15:00:11.999Z</time>
      </trkpt>
      <trkpt lat="44.59087" lon="4.44696">
        <ele>341.84</ele>
        <time>2019-12-15T15:00:15.999Z</time>
      </trkpt>
      <trkpt lat="44.59089" lon="4.44681">
        <ele>341.97</ele>
        <time>2019-12-15T15:00:20.999Z</time>
      </trkpt>
      <trkpt lat="44.5909" lon="4.44668">
        <ele>342.1</ele>
        <time>2019-12-15T15:00:25.999Z</time>
      </trkpt>
      <trkpt lat="44.5909" lon="4.44654">
        <ele>342.24</ele>
        <time>2019-12-15T15:00:30.999Z</time>
      </trkpt>
      <trkpt lat="44.59089" lon="4.4464">
        <ele>342.38</ele>
        <time>2019-12-15T15:00:35.999Z</time>
      </trkpt>
      <trkpt lat="44.5909" lon="4.44626">
        <ele>342.55</ele>
        <time>2019-12-15T15:00:41.999Z</time>
      </trkpt>
      <trkpt lat="44.5909" lon="4.44611">
        <ele>342.76</ele>
        <time>2019-12-15T15:00:48.999Z</time>
      </trkpt>
      <trkpt lat="44.59088" lon="4.44598">
        <ele>342.91</ele>
        <time>2019-12-15T15:00:53.999Z</time>
      </trkpt>
      <trkpt lat="44.59087" lon="4.44585">
        <ele>343.08</ele>
        <time>2019-12-15T15:00:59.999Z</time>
      </trkpt>
      <trkpt lat="44.59085" lon="4.44572">
        <ele>343.27</ele>
        <time>2019-12-15T15:01:05.999Z</time>
      </trkpt>
      <trkpt lat="44.59084" lon="4.44557">
        <ele>343.79</ele>
        <time>2019-12-15T15:01:30.999Z</time>
      </trkpt>
      <trkpt lat="44.59081" lon="4.44542">
        <ele>344.02</ele>
        <time>2019-12-15T15:01:35.999Z</time>
      </trkpt>
      <trkpt lat="44.59076" lon="4.4453">
        <ele>344.22</ele>
        <time>2019-12-15T15:01:39.999Z</time>
      </trkpt>
      <trkpt lat="44.59075" lon="4.44516">
        <ele>344.4</ele>
        <time>2019-12-15T15:01:43.999Z</time>
      </trkpt>
      <trkpt lat="44.59074" lon="4.44501">
        <ele>344.55</ele>
        <time>2019-12-15T15:01:46.999Z</time>
      </trkpt>
      <trkpt lat="44.59072" lon="4.44485">
        <ele>345.09</ele>
        <time>2019-12-15T15:01:50.000Z</time>
      </trkpt>
      <trkpt lat="44.59072" lon="4.44472">
        <ele>345.75</ele>
        <time>2019-12-15T15:01:52.000Z</time>
      </trkpt>
      <trkpt lat="44.59071" lon="4.44455">
        <ele>346.19</ele>
        <time>2019-12-15T15:01:54.000Z</time>
      </trkpt>
      <trkpt lat="44.5907" lon="4.44441">
        <ele>346.48</ele>
        <time>2019-12-15T15:01:56.000Z</time>
      </trkpt>
      <trkpt lat="44.59068" lon="4.44426">
        <ele>346.69</ele>
        <time>2019-12-15T15:01:58.000Z</time>
      </trkpt>
      <trkpt lat="44.59069" lon="4.44411">
        <ele>346.83</ele>
        <time>2019-12-15T15:02:00.000Z</time>
      </trkpt>
      <trkpt lat="44.5907" lon="4.44393">
        <ele>346.94</ele>
        <time>2019-12-15T15:02:03.000Z</time>
      </trkpt>
      <trkpt lat="44.59069" lon="4.44378">
        <ele>346.99</ele>
        <time>2019-12-15T15:02:05.000Z</time>
      </trkpt>
      <trkpt lat="44.59068" lon="4.44365">
        <ele>347.01</ele>
        <time>2019-12-15T15:02:08.000Z</time>
      </trkpt>
      <trkpt lat="44.59066" lon="4.44349">
        <ele>347.03</ele>
        <time>2019-12-15T15:02:12.000Z</time>
      </trkpt>
      <trkpt lat="44.59066" lon="4.44334">
        <ele>347.05</ele>
        <time>2019-12-15T15:02:16.000Z</time>
      </trkpt>
      <trkpt lat="44.59065" lon="4.4432">
        <ele>347.09</ele>
        <time>2019-12-15T15:02:20.000Z</time>
      </trkpt>
      <trkpt lat="44.59064" lon="4.44305">
        <ele>347.15</ele>
        <time>2019-12-15T15:02:24.000Z</time>
      </trkpt>
      <trkpt lat="44.59064" lon="4.44292">
        <ele>347.21</ele>
        <time>2019-12-15T15:02:28.000Z</time>
      </trkpt>
      <trkpt lat="44.59063" lon="4.44278">
        <ele>347.32</ele>
        <time>2019-12-15T15:02:33.000Z</time>
      </trkpt>
      <trkpt lat="44.59062" lon="4.44264">
        <ele>347.57</ele>
        <time>2019-12-15T15:02:41.000Z</time>
      </trkpt>
      <trkpt lat="44.59069" lon="4.44257">
        <ele>347.76</ele>
        <time>2019-12-15T15:02:46.000Z</time>
      </trkpt>
      <trkpt lat="44.59079" lon="4.44255">
        <ele>347.98</ele>
        <time>2019-12-15T15:02:51.000Z</time>
      </trkpt>
      <trkpt lat="44.59088" lon="4.44256">
        <ele>349.9</ele>
        <time>2019-12-15T15:04:45.000Z</time>
      </trkpt>
      <trkpt lat="44.59096" lon="4.4425">
        <ele>350.36</ele>
        <time>2019-12-15T15:04:50.000Z</time>
      </trkpt>
      <trkpt lat="44.59107" lon="4.44244">
        <ele>350.71</ele>
        <time>2019-12-15T15:04:54.000Z</time>
      </trkpt>
      <trkpt lat="44.59115" lon="4.4424">
        <ele>351.05</ele>
        <time>2019-12-15T15:04:58.000Z</time>
      </trkpt>
      <trkpt lat="44.59123" lon="4.44232">
        <ele>351.3</ele>
        <time>2019-12-15T15:05:01.000Z</time>
      </trkpt>
      <trkpt lat="44.59127" lon="4.44219">
        <ele>351.54</ele>
        <time>2019-12-15T15:05:04.000Z</time>
      </trkpt>
      <trkpt lat="44.5913" lon="4.44204">
        <ele>351.77</ele>
        <time>2019-12-15T15:05:07.000Z</time>
      </trkpt>
      <trkpt lat="44.59129" lon="4.44187">
        <ele>352.05</ele>
        <time>2019-12-15T15:05:11.000Z</time>
      </trkpt>
      <trkpt lat="44.59123" lon="4.44174">
        <ele>352.25</ele>
        <time>2019-12-15T15:05:14.000Z</time>
      </trkpt>
      <trkpt lat="44.59121" lon="4.44159">
        <ele>352.57</ele>
        <time>2019-12-15T15:05:19.000Z</time>
      </trkpt>
      <trkpt lat="44.59125" lon="4.44143">
        <ele>352.81</ele>
        <time>2019-12-15T15:05:23.000Z</time>
      </trkpt>
      <trkpt lat="44.59127" lon="4.44125">
        <ele>353.46</ele>
        <time>2019-12-15T15:05:26.000Z</time>
      </trkpt>
      <trkpt lat="44.59129" lon="4.44113">
        <ele>354.24</ele>
        <time>2019-12-15T15:05:28.000Z</time>
      </trkpt>
      <trkpt lat="44.59131" lon="4.44098">
        <ele>354.75</ele>
        <time>2019-12-15T15:05:30.000Z</time>
      </trkpt>
      <trkpt lat="44.59133" lon="4.44085">
        <ele>355.08</ele>
        <time>2019-12-15T15:05:32.000Z</time>
      </trkpt>
      <trkpt lat="44.59136" lon="4.44067">
        <ele>355.37</ele>
        <time>2019-12-15T15:05:35.000Z</time>
      </trkpt>
      <trkpt lat="44.59138" lon="4.44053">
        <ele>355.45</ele>
        <time>2019-12-15T15:05:37.000Z</time>
      </trkpt>
      <trkpt lat="44.5914" lon="4.44039">
        <ele>355.5</ele>
        <time>2019-12-15T15:05:39.000Z</time>
      </trkpt>
      <trkpt lat="44.59142" lon="4.44025">
        <ele>355.51</ele>
        <time>2019-12-15T15:05:42.000Z</time>
      </trkpt>
      <trkpt lat="44.59144" lon="4.4401">
        <ele>355.57</ele>
        <time>2019-12-15T15:05:45.000Z</time>
      </trkpt>
      <trkpt lat="44.59145" lon="4.43993">
        <ele>355.61</ele>
        <time>2019-12-15T15:05:48.000Z</time>
      </trkpt>
      <trkpt lat="44.59145" lon="4.43975">
        <ele>355.65</ele>
        <time>2019-12-15T15:05:51.000Z</time>
      </trkpt>
      <trkpt lat="44.59145" lon="4.43961">
        <ele>355.67</ele>
        <time>2019-12-15T15:05:53.000Z</time>
      </trkpt>
      <trkpt lat="44.59144" lon="4.43948">
        <ele>355.7</ele>
        <time>2019-12-15T15:05:55.000Z</time>
      </trkpt>
      <trkpt lat="44.59143" lon="4.43935">
        <ele>355.71</ele>
        <time>2019-12-15T15:05:57.000Z</time>
      </trkpt>
      <trkpt lat="44.59143" lon="4.43922">
        <ele>355.71</ele>
        <time>2019-12-15T15:05:59.000Z</time>
      </trkpt>
      <trkpt lat="44.59142" lon="4.43909">
        <ele>355.68</ele>
        <time>2019-12-15T15:06:01.000Z</time>
      </trkpt>
      <trkpt lat="44.59142" lon="4.43895">
        <ele>355.65</ele>
        <time>2019-12-15T15:06:03.000Z</time>
      </trkpt>
      <trkpt lat="44.5914" lon="4.43882">
        <ele>355.6</ele>
        <time>2019-12-15T15:06:05.000Z</time>
      </trkpt>
      <trkpt lat="44.5914" lon="4.43867">
        <ele>355.55</ele>
        <time>2019-12-15T15:06:07.000Z</time>
      </trkpt>
      <trkpt lat="44.59139" lon="4.43853">
        <ele>355.48</ele>
        <time>2019-12-15T15:06:09.000Z</time>
      </trkpt>
      <trkpt lat="44.59136" lon="4.4384">
        <ele>355.41</ele>
        <time>2019-12-15T15:06:11.000Z</time>
      </trkpt>
      <trkpt lat="44.59134" lon="4.43827">
        <ele>355.35</ele>
        <time>2019-12-15T15:06:13.000Z</time>
      </trkpt>
      <trkpt lat="44.59131" lon="4.43812">
        <ele>355.29</ele>
        <time>2019-12-15T15:06:15.000Z</time>
      </trkpt>
      <trkpt lat="44.59128" lon="4.43798">
        <ele>355.24</ele>
        <time>2019-12-15T15:06:17.000Z</time>
      </trkpt>
      <trkpt lat="44.59124" lon="4.43785">
        <ele>355.2</ele>
        <time>2019-12-15T15:06:19.000Z</time>
      </trkpt>
      <trkpt lat="44.59122" lon="4.43772">
        <ele>355.16</ele>
        <time>2019-12-15T15:06:21.000Z</time>
      </trkpt>
      <trkpt lat="44.5912" lon="4.4376">
        <ele>355.12</ele>
        <time>2019-12-15T15:06:23.000Z</time>
      </trkpt>
      <trkpt lat="44.59126" lon="4.43743">
        <ele>355.04</ele>
        <time>2019-12-15T15:06:26.000Z</time>
      </trkpt>
      <trkpt lat="44.5913" lon="4.4373">
        <ele>354.99</ele>
        <time>2019-12-15T15:06:28.000Z</time>
      </trkpt>
      <trkpt lat="44.59139" lon="4.43723">
        <ele>354.94</ele>
        <time>2019-12-15T15:06:30.000Z</time>
      </trkpt>
      <trkpt lat="44.59146" lon="4.43715">
        <ele>354.91</ele>
        <time>2019-12-15T15:06:32.000Z</time>
      </trkpt>
      <trkpt lat="44.59157" lon="4.43705">
        <ele>354.89</ele>
        <time>2019-12-15T15:06:35.000Z</time>
      </trkpt>
      <trkpt lat="44.59168" lon="4.43696">
        <ele>354.88</ele>
        <time>2019-12-15T15:06:38.000Z</time>
      </trkpt>
      <trkpt lat="44.59178" lon="4.4369">
        <ele>354.88</ele>
        <time>2019-12-15T15:06:41.000Z</time>
      </trkpt>
      <trkpt lat="44.59188" lon="4.43685">
        <ele>354.87</ele>
        <time>2019-12-15T15:06:44.000Z</time>
      </trkpt>
      <trkpt lat="44.592" lon="4.43681">
        <ele>354.87</ele>
        <time>2019-12-15T15:06:48.000Z</time>
      </trkpt>
      <trkpt lat="44.59212" lon="4.43677">
        <ele>354.87</ele>
        <time>2019-12-15T15:06:52.000Z</time>
      </trkpt>
      <trkpt lat="44.59222" lon="4.43673">
        <ele>354.87</ele>
        <time>2019-12-15T15:06:55.000Z</time>
      </trkpt>
      <trkpt lat="44.59232" lon="4.43669">
        <ele>354.87</ele>
        <time>2019-12-15T15:06:58.000Z</time>
      </trkpt>
      <trkpt lat="44.59242" lon="4.43665">
        <ele>354.86</ele>
        <time>2019-12-15T15:07:01.000Z</time>
      </trkpt>
      <trkpt lat="44.59253" lon="4.43663">
        <ele>354.86</ele>
        <time>2019-12-15T15:07:04.000Z</time>
      </trkpt>
      <trkpt lat="44.59263" lon="4.43662">
        <ele>354.86</ele>
        <time>2019-12-15T15:07:07.000Z</time>
      </trkpt>
      <trkpt lat="44.59275" lon="4.43662">
        <ele>354.86</ele>
        <time>2019-12-15T15:07:10.000Z</time>
      </trkpt>
      <trkpt lat="44.59287" lon="4.43662">
        <ele>354.86</ele>
        <time>2019-12-15T15:07:13.000Z</time>
      </trkpt>
      <trkpt lat="44.59299" lon="4.43663">
        <ele>354.86</ele>
        <time>2019-12-15T15:07:16.000Z</time>
      </trkpt>
      <trkpt lat="44.5931" lon="4.43664">
        <ele>354.86</ele>
        <time>2019-12-15T15:07:19.000Z</time>
      </trkpt>
      <trkpt lat="44.5932" lon="4.43666">
        <ele>354.86</ele>
        <time>2019-12-15T15:07:22.000Z</time>
      </trkpt>
      <trkpt lat="44.59331" lon="4.43668">
        <ele>354.86</ele>
        <time>2019-12-15T15:07:25.000Z</time>
      </trkpt>
      <trkpt lat="44.59343" lon="4.43669">
        <ele>354.86</ele>
        <time>2019-12-15T15:07:28.000Z</time>
      </trkpt>
      <trkpt lat="44.59354" lon="4.43671">
        <ele>354.86</ele>
        <time>2019-12-15T15:07:31.000Z</time>
      </trkpt>
      <trkpt lat="44.59365" lon="4.43674">
        <ele>354.86</ele>
        <time>2019-12-15T15:07:34.000Z</time>
      </trkpt>
      <trkpt lat="44.59376" lon="4.43676">
        <ele>354.87</ele>
        <time>2019-12-15T15:07:37.000Z</time>
      </trkpt>
      <trkpt lat="44.59386" lon="4.43681">
        <ele>354.87</ele>
        <time>2019-12-15T15:07:40.000Z</time>
      </trkpt>
      <trkpt lat="44.59397" lon="4.43682">
        <ele>354.89</ele>
        <time>2019-12-15T15:07:43.000Z</time>
      </trkpt>
      <trkpt lat="44.59408" lon="4.43684">
        <ele>354.89</ele>
        <time>2019-12-15T15:07:46.000Z</time>
      </trkpt>
      <trkpt lat="44.59419" lon="4.43687">
        <ele>354.9</ele>
        <time>2019-12-15T15:07:49.000Z</time>
      </trkpt>
      <trkpt lat="44.59429" lon="4.43688">
        <ele>354.91</ele>
        <time>2019-12-15T15:07:52.000Z</time>
      </trkpt>
      <trkpt lat="44.5944" lon="4.43688">
        <ele>354.91</ele>
        <time>2019-12-15T15:07:55.000Z</time>
      </trkpt>
      <trkpt lat="44.59451" lon="4.43688">
        <ele>354.92</ele>
        <time>2019-12-15T15:07:58.000Z</time>
      </trkpt>
      <trkpt lat="44.59462" lon="4.43689">
        <ele>354.93</ele>
        <time>2019-12-15T15:08:01.000Z</time>
      </trkpt>
      <trkpt lat="44.59474" lon="4.4369">
        <ele>354.93</ele>
        <time>2019-12-15T15:08:04.000Z</time>
      </trkpt>
      <trkpt lat="44.59486" lon="4.43691">
        <ele>355</ele>
        <time>2019-12-15T15:08:07.000Z</time>
      </trkpt>
      <trkpt lat="44.59497" lon="4.43691">
        <ele>355.04</ele>
        <time>2019-12-15T15:08:10.000Z</time>
      </trkpt>
      <trkpt lat="44.59509" lon="4.43692">
        <ele>355.08</ele>
        <time>2019-12-15T15:08:13.000Z</time>
      </trkpt>
      <trkpt lat="44.5952" lon="4.43691">
        <ele>355.09</ele>
        <time>2019-12-15T15:08:16.000Z</time>
      </trkpt>
      <trkpt lat="44.59531" lon="4.43693">
        <ele>355.13</ele>
        <time>2019-12-15T15:08:19.000Z</time>
      </trkpt>
      <trkpt lat="44.59542" lon="4.43695">
        <ele>355.18</ele>
        <time>2019-12-15T15:08:22.000Z</time>
      </trkpt>
      <trkpt lat="44.59554" lon="4.43696">
        <ele>355.25</ele>
        <time>2019-12-15T15:08:25.000Z</time>
      </trkpt>
      <trkpt lat="44.59566" lon="4.43699">
        <ele>355.31</ele>
        <time>2019-12-15T15:08:28.000Z</time>
      </trkpt>
      <trkpt lat="44.59576" lon="4.43701">
        <ele>355.34</ele>
        <time>2019-12-15T15:08:31.000Z</time>
      </trkpt>
      <trkpt lat="44.59587" lon="4.43703">
        <ele>355.35</ele>
        <time>2019-12-15T15:08:34.000Z</time>
      </trkpt>
      <trkpt lat="44.59596" lon="4.43709">
        <ele>355.36</ele>
        <time>2019-12-15T15:08:37.000Z</time>
      </trkpt>
      <trkpt lat="44.59606" lon="4.43711">
        <ele>355.38</ele>
        <time>2019-12-15T15:08:40.000Z</time>
      </trkpt>
      <trkpt lat="44.59619" lon="4.43712">
        <ele>355.47</ele>
        <time>2019-12-15T15:08:43.000Z</time>
      </trkpt>
      <trkpt lat="44.59632" lon="4.43712">
        <ele>355.48</ele>
        <time>2019-12-15T15:08:46.000Z</time>
      </trkpt>
      <trkpt lat="44.59639" lon="4.437">
        <ele>355.5</ele>
        <time>2019-12-15T15:08:49.000Z</time>
      </trkpt>
      <trkpt lat="44.59639" lon="4.43685">
        <ele>355.51</ele>
        <time>2019-12-15T15:08:52.000Z</time>
      </trkpt>
      <trkpt lat="44.59641" lon="4.4367">
        <ele>355.53</ele>
        <time>2019-12-15T15:08:55.000Z</time>
      </trkpt>
      <trkpt lat="44.59642" lon="4.43654">
        <ele>355.55</ele>
        <time>2019-12-15T15:08:58.000Z</time>
      </trkpt>
      <trkpt lat="44.59644" lon="4.43637">
        <ele>355.7</ele>
        <time>2019-12-15T15:09:01.000Z</time>
      </trkpt>
      <trkpt lat="44.59645" lon="4.43619">
        <ele>355.83</ele>
        <time>2019-12-15T15:09:04.000Z</time>
      </trkpt>
      <trkpt lat="44.59648" lon="4.43601">
        <ele>355.9</ele>
        <time>2019-12-15T15:09:07.000Z</time>
      </trkpt>
      <trkpt lat="44.59649" lon="4.43587">
        <ele>355.94</ele>
        <time>2019-12-15T15:09:09.000Z</time>
      </trkpt>
      <trkpt lat="44.59651" lon="4.43573">
        <ele>355.98</ele>
        <time>2019-12-15T15:09:11.000Z</time>
      </trkpt>
      <trkpt lat="44.59653" lon="4.4356">
        <ele>356.02</ele>
        <time>2019-12-15T15:09:13.000Z</time>
      </trkpt>
      <trkpt lat="44.59655" lon="4.43546">
        <ele>356.05</ele>
        <time>2019-12-15T15:09:15.000Z</time>
      </trkpt>
      <trkpt lat="44.59657" lon="4.43533">
        <ele>356.08</ele>
        <time>2019-12-15T15:09:17.000Z</time>
      </trkpt>
      <trkpt lat="44.59658" lon="4.43515">
        <ele>356.12</ele>
        <time>2019-12-15T15:09:20.000Z</time>
      </trkpt>
      <trkpt lat="44.5966" lon="4.43501">
        <ele>356.16</ele>
        <time>2019-12-15T15:09:22.000Z</time>
      </trkpt>
      <trkpt lat="44.59662" lon="4.43488">
        <ele>356.17</ele>
        <time>2019-12-15T15:09:24.000Z</time>
      </trkpt>
      <trkpt lat="44.59663" lon="4.43473">
        <ele>356.17</ele>
        <time>2019-12-15T15:09:27.000Z</time>
      </trkpt>
      <trkpt lat="44.59666" lon="4.43456">
        <ele>356.22</ele>
        <time>2019-12-15T15:09:31.000Z</time>
      </trkpt>
      <trkpt lat="44.59669" lon="4.4344">
        <ele>356.29</ele>
        <time>2019-12-15T15:09:34.000Z</time>
      </trkpt>
      <trkpt lat="44.59671" lon="4.43422">
        <ele>356.34</ele>
        <time>2019-12-15T15:09:37.000Z</time>
      </trkpt>
      <trkpt lat="44.59674" lon="4.43404">
        <ele>356.39</ele>
        <time>2019-12-15T15:09:40.000Z</time>
      </trkpt>
      <trkpt lat="44.59675" lon="4.4339">
        <ele>356.4</ele>
        <time>2019-12-15T15:09:43.000Z</time>
      </trkpt>
      <trkpt lat="44.59677" lon="4.43375">
        <ele>356.42</ele>
        <time>2019-12-15T15:09:46.000Z</time>
      </trkpt>
      <trkpt lat="44.59678" lon="4.4336">
        <ele>356.43</ele>
        <time>2019-12-15T15:09:49.000Z</time>
      </trkpt>
      <trkpt lat="44.59679" lon="4.43347">
        <ele>356.45</ele>
        <time>2019-12-15T15:09:52.000Z</time>
      </trkpt>
      <trkpt lat="44.5968" lon="4.43334">
        <ele>356.47</ele>
        <time>2019-12-15T15:09:55.000Z</time>
      </trkpt>
      <trkpt lat="44.59681" lon="4.43321">
        <ele>356.5</ele>
        <time>2019-12-15T15:09:59.000Z</time>
      </trkpt>
      <trkpt lat="44.59683" lon="4.43305">
        <ele>356.54</ele>
        <time>2019-12-15T15:10:04.000Z</time>
      </trkpt>
      <trkpt lat="44.59685" lon="4.43291">
        <ele>356.59</ele>
        <time>2019-12-15T15:10:09.000Z</time>
      </trkpt>
      <trkpt lat="44.59688" lon="4.43278">
        <ele>356.65</ele>
        <time>2019-12-15T15:10:14.000Z</time>
      </trkpt>
      <trkpt lat="44.5969" lon="4.43264">
        <ele>356.72</ele>
        <time>2019-12-15T15:10:19.000Z</time>
      </trkpt>
      <trkpt lat="44.59692" lon="4.4325">
        <ele>356.8</ele>
        <time>2019-12-15T15:10:24.000Z</time>
      </trkpt>
      <trkpt lat="44.59694" lon="4.43236">
        <ele>356.9</ele>
        <time>2019-12-15T15:10:30.000Z</time>
      </trkpt>
      <trkpt lat="44.59696" lon="4.43224">
        <ele>356.99</ele>
        <time>2019-12-15T15:10:35.000Z</time>
      </trkpt>
      <trkpt lat="44.59698" lon="4.4321">
        <ele>357.12</ele>
        <time>2019-12-15T15:10:41.000Z</time>
      </trkpt>
      <trkpt lat="44.59701" lon="4.43198">
        <ele>357.23</ele>
        <time>2019-12-15T15:10:46.000Z</time>
      </trkpt>
      <trkpt lat="44.59701" lon="4.43183">
        <ele>357.38</ele>
        <time>2019-12-15T15:10:53.000Z</time>
      </trkpt>
      <trkpt lat="44.59703" lon="4.43169">
        <ele>357.5</ele>
        <time>2019-12-15T15:10:58.000Z</time>
      </trkpt>
      <trkpt lat="44.59705" lon="4.43155">
        <ele>357.63</ele>
        <time>2019-12-15T15:11:03.000Z</time>
      </trkpt>
      <trkpt lat="44.59714" lon="4.43147">
        <ele>357.79</ele>
        <time>2019-12-15T15:11:09.000Z</time>
      </trkpt>
      <trkpt lat="44.59723" lon="4.43147">
        <ele>357.96</ele>
        <time>2019-12-15T15:11:13.000Z</time>
      </trkpt>
      <trkpt lat="44.59734" lon="4.4315">
        <ele>358.14</ele>
        <time>2019-12-15T15:11:17.000Z</time>
      </trkpt>
      <trkpt lat="44.59744" lon="4.43154">
        <ele>358.31</ele>
        <time>2019-12-15T15:11:21.000Z</time>
      </trkpt>
      <trkpt lat="44.59754" lon="4.43155">
        <ele>358.49</ele>
        <time>2019-12-15T15:11:25.000Z</time>
      </trkpt>
      <trkpt lat="44.59765" lon="4.43158">
        <ele>358.69</ele>
        <time>2019-12-15T15:11:29.000Z</time>
      </trkpt>
      <trkpt lat="44.59771" lon="4.43149">
        <ele>358.98</ele>
        <time>2019-12-15T15:11:34.000Z</time>
      </trkpt>
      <trkpt lat="44.59775" lon="4.43135">
        <ele>359.55</ele>
        <time>2019-12-15T15:11:42.000Z</time>
      </trkpt>
      <trkpt lat="44.59779" lon="4.43123">
        <ele>360.14</ele>
        <time>2019-12-15T15:11:49.000Z</time>
      </trkpt>
      <trkpt lat="44.59783" lon="4.43111">
        <ele>360.67</ele>
        <time>2019-12-15T15:11:55.000Z</time>
      </trkpt>
      <trkpt lat="44.59786" lon="4.43098">
        <ele>361.21</ele>
        <time>2019-12-15T15:12:01.000Z</time>
      </trkpt>
      <trkpt lat="44.59789" lon="4.43086">
        <ele>361.88</ele>
        <time>2019-12-15T15:12:08.000Z</time>
      </trkpt>
      <trkpt lat="44.59796" lon="4.43076">
        <ele>362.61</ele>
        <time>2019-12-15T15:12:15.000Z</time>
      </trkpt>
      <trkpt lat="44.59803" lon="4.43068">
        <ele>363.2</ele>
        <time>2019-12-15T15:12:21.000Z</time>
      </trkpt>
      <trkpt lat="44.59809" lon="4.43058">
        <ele>363.69</ele>
        <time>2019-12-15T15:12:26.000Z</time>
      </trkpt>
      <trkpt lat="44.59812" lon="4.43046">
        <ele>364.11</ele>
        <time>2019-12-15T15:12:30.000Z</time>
      </trkpt>
      <trkpt lat="44.59815" lon="4.43033">
        <ele>364.65</ele>
        <time>2019-12-15T15:12:35.000Z</time>
      </trkpt>
      <trkpt lat="44.59819" lon="4.4302">
        <ele>365.31</ele>
        <time>2019-12-15T15:12:41.000Z</time>
      </trkpt>
      <trkpt lat="44.59822" lon="4.43006">
        <ele>366.01</ele>
        <time>2019-12-15T15:12:47.000Z</time>
      </trkpt>
      <trkpt lat="44.5983" lon="4.42996">
        <ele>366.7</ele>
        <time>2019-12-15T15:12:53.000Z</time>
      </trkpt>
      <trkpt lat="44.59835" lon="4.42985">
        <ele>367.4</ele>
        <time>2019-12-15T15:12:59.000Z</time>
      </trkpt>
      <trkpt lat="44.59841" lon="4.42974">
        <ele>368.11</ele>
        <time>2019-12-15T15:13:05.000Z</time>
      </trkpt>
      <trkpt lat="44.59847" lon="4.42962">
        <ele>368.83</ele>
        <time>2019-12-15T15:13:11.000Z</time>
      </trkpt>
      <trkpt lat="44.59852" lon="4.42951">
        <ele>369.29</ele>
        <time>2019-12-15T15:13:15.000Z</time>
      </trkpt>
      <trkpt lat="44.59856" lon="4.42939">
        <ele>369.65</ele>
        <time>2019-12-15T15:13:18.000Z</time>
      </trkpt>
      <trkpt lat="44.59859" lon="4.42923">
        <ele>370.27</ele>
        <time>2019-12-15T15:13:23.000Z</time>
      </trkpt>
      <trkpt lat="44.59863" lon="4.4291">
        <ele>370.78</ele>
        <time>2019-12-15T15:13:27.000Z</time>
      </trkpt>
      <trkpt lat="44.59866" lon="4.42894">
        <ele>371.3</ele>
        <time>2019-12-15T15:13:31.000Z</time>
      </trkpt>
      <trkpt lat="44.59865" lon="4.42879">
        <ele>371.8</ele>
        <time>2019-12-15T15:13:35.000Z</time>
      </trkpt>
      <trkpt lat="44.59869" lon="4.42865">
        <ele>372.28</ele>
        <time>2019-12-15T15:13:39.000Z</time>
      </trkpt>
      <trkpt lat="44.59876" lon="4.42851">
        <ele>372.76</ele>
        <time>2019-12-15T15:13:43.000Z</time>
      </trkpt>
      <trkpt lat="44.59882" lon="4.42839">
        <ele>375.02</ele>
        <time>2019-12-15T15:13:46.000Z</time>
      </trkpt>
      <trkpt lat="44.59887" lon="4.42826">
        <ele>376.51</ele>
        <time>2019-12-15T15:13:49.000Z</time>
      </trkpt>
      <trkpt lat="44.59894" lon="4.42815">
        <ele>376.68</ele>
        <time>2019-12-15T15:13:52.000Z</time>
      </trkpt>
      <trkpt lat="44.599" lon="4.42805">
        <ele>376.84</ele>
        <time>2019-12-15T15:13:55.000Z</time>
      </trkpt>
      <trkpt lat="44.59908" lon="4.42796">
        <ele>377.13</ele>
        <time>2019-12-15T15:14:00.000Z</time>
      </trkpt>
      <trkpt lat="44.59913" lon="4.42784">
        <ele>378.13</ele>
        <time>2019-12-15T15:14:22.000Z</time>
      </trkpt>
      <trkpt lat="44.59918" lon="4.42773">
        <ele>378.96</ele>
        <time>2019-12-15T15:14:34.000Z</time>
      </trkpt>
      <trkpt lat="44.59923" lon="4.42762">
        <ele>379.98</ele>
        <time>2019-12-15T15:14:45.000Z</time>
      </trkpt>
      <trkpt lat="44.59928" lon="4.4275">
        <ele>381.05</ele>
        <time>2019-12-15T15:14:55.000Z</time>
      </trkpt>
      <trkpt lat="44.59933" lon="4.4274">
        <ele>383.24</ele>
        <time>2019-12-15T15:15:15.000Z</time>
      </trkpt>
      <trkpt lat="44.59937" lon="4.42728">
        <ele>384.44</ele>
        <time>2019-12-15T15:15:26.000Z</time>
      </trkpt>
      <trkpt lat="44.59941" lon="4.42716">
        <ele>385.38</ele>
        <time>2019-12-15T15:15:36.000Z</time>
      </trkpt>
      <trkpt lat="44.59945" lon="4.42704">
        <ele>386.27</ele>
        <time>2019-12-15T15:15:47.000Z</time>
      </trkpt>
      <trkpt lat="44.59945" lon="4.42691">
        <ele>387.26</ele>
        <time>2019-12-15T15:16:01.000Z</time>
      </trkpt>
      <trkpt lat="44.59946" lon="4.42678">
        <ele>387.72</ele>
        <time>2019-12-15T15:16:08.000Z</time>
      </trkpt>
      <trkpt lat="44.59951" lon="4.42666">
        <ele>388.59</ele>
        <time>2019-12-15T15:16:26.000Z</time>
      </trkpt>
      <trkpt lat="44.5996" lon="4.42661">
        <ele>389.25</ele>
        <time>2019-12-15T15:16:35.000Z</time>
      </trkpt>
      <trkpt lat="44.59966" lon="4.42651">
        <ele>389.66</ele>
        <time>2019-12-15T15:16:41.000Z</time>
      </trkpt>
      <trkpt lat="44.59966" lon="4.42636">
        <ele>390.29</ele>
        <time>2019-12-15T15:16:50.000Z</time>
      </trkpt>
      <trkpt lat="44.59963" lon="4.42624">
        <ele>390.84</ele>
        <time>2019-12-15T15:16:58.000Z</time>
      </trkpt>
      <trkpt lat="44.59968" lon="4.42613">
        <ele>391.37</ele>
        <time>2019-12-15T15:17:06.000Z</time>
      </trkpt>
      <trkpt lat="44.59978" lon="4.42607">
        <ele>391.78</ele>
        <time>2019-12-15T15:17:12.000Z</time>
      </trkpt>
      <trkpt lat="44.59988" lon="4.42602">
        <ele>392.25</ele>
        <time>2019-12-15T15:17:19.000Z</time>
      </trkpt>
      <trkpt lat="44.59998" lon="4.42598">
        <ele>392.66</ele>
        <time>2019-12-15T15:17:25.000Z</time>
      </trkpt>
      <trkpt lat="44.60008" lon="4.42594">
        <ele>393.17</ele>
        <time>2019-12-15T15:17:32.000Z</time>
      </trkpt>
      <trkpt lat="44.60017" lon="4.42595">
        <ele>393.54</ele>
        <time>2019-12-15T15:17:37.000Z</time>
      </trkpt>
      <trkpt lat="44.60025" lon="4.42588">
        <ele>393.91</ele>
        <time>2019-12-15T15:17:42.000Z</time>
      </trkpt>
      <trkpt lat="44.60035" lon="4.42577">
        <ele>394.35</ele>
        <time>2019-12-15T15:17:48.000Z</time>
      </trkpt>
      <trkpt lat="44.60045" lon="4.42568">
        <ele>394.79</ele>
        <time>2019-12-15T15:17:54.000Z</time>
      </trkpt>
      <trkpt lat="44.60054" lon="4.42563">
        <ele>395.15</ele>
        <time>2019-12-15T15:17:59.000Z</time>
      </trkpt>
      <trkpt lat="44.60061" lon="4.42555">
        <ele>395.52</ele>
        <time>2019-12-15T15:18:04.000Z</time>
      </trkpt>
      <trkpt lat="44.60069" lon="4.42546">
        <ele>395.95</ele>
        <time>2019-12-15T15:18:10.000Z</time>
      </trkpt>
      <trkpt lat="44.60075" lon="4.42536">
        <ele>396.31</ele>
        <time>2019-12-15T15:18:15.000Z</time>
      </trkpt>
      <trkpt lat="44.60081" lon="4.42523">
        <ele>396.75</ele>
        <time>2019-12-15T15:18:21.000Z</time>
      </trkpt>
      <trkpt lat="44.60085" lon="4.42512">
        <ele>397.24</ele>
        <time>2019-12-15T15:18:27.000Z</time>
      </trkpt>
      <trkpt lat="44.6009" lon="4.425">
        <ele>397.67</ele>
        <time>2019-12-15T15:18:32.000Z</time>
      </trkpt>
      <trkpt lat="44.60098" lon="4.42491">
        <ele>398.26</ele>
        <time>2019-12-15T15:18:39.000Z</time>
      </trkpt>
      <trkpt lat="44.60107" lon="4.42497">
        <ele>398.83</ele>
        <time>2019-12-15T15:18:46.000Z</time>
      </trkpt>
      <trkpt lat="44.60118" lon="4.42501">
        <ele>399.3</ele>
        <time>2019-12-15T15:18:52.000Z</time>
      </trkpt>
      <trkpt lat="44.60127" lon="4.42503">
        <ele>399.76</ele>
        <time>2019-12-15T15:19:00.000Z</time>
      </trkpt>
      <trkpt lat="44.60138" lon="4.42506">
        <ele>400.46</ele>
        <time>2019-12-15T15:19:14.000Z</time>
      </trkpt>
      <trkpt lat="44.60147" lon="4.42511">
        <ele>400.67</ele>
        <time>2019-12-15T15:19:17.000Z</time>
      </trkpt>
      <trkpt lat="44.60158" lon="4.42514">
        <ele>400.96</ele>
        <time>2019-12-15T15:19:21.000Z</time>
      </trkpt>
      <trkpt lat="44.60171" lon="4.42514">
        <ele>401.31</ele>
        <time>2019-12-15T15:19:26.000Z</time>
      </trkpt>
      <trkpt lat="44.60179" lon="4.42521">
        <ele>401.94</ele>
        <time>2019-12-15T15:19:36.999Z</time>
      </trkpt>
      <trkpt lat="44.60171" lon="4.42526">
        <ele>402.67</ele>
        <time>2019-12-15T15:19:45.999Z</time>
      </trkpt>
      <trkpt lat="44.60163" lon="4.42535">
        <ele>403.31</ele>
        <time>2019-12-15T15:19:54.999Z</time>
      </trkpt>
      <trkpt lat="44.60163" lon="4.4255">
        <ele>404.34</ele>
        <time>2019-12-15T15:19:59.999Z</time>
      </trkpt>
      <trkpt lat="44.60165" lon="4.42565">
        <ele>405.85</ele>
        <time>2019-12-15T15:20:02.999Z</time>
      </trkpt>
      <trkpt lat="44.60165" lon="4.4258">
        <ele>406.25</ele>
        <time>2019-12-15T15:20:05.999Z</time>
      </trkpt>
      <trkpt lat="44.60164" lon="4.42596">
        <ele>406.97</ele>
        <time>2019-12-15T15:20:08.999Z</time>
      </trkpt>
      <trkpt lat="44.60168" lon="4.42612">
        <ele>407.37</ele>
        <time>2019-12-15T15:20:11.999Z</time>
      </trkpt>
      <trkpt lat="44.60172" lon="4.42625">
        <ele>407.53</ele>
        <time>2019-12-15T15:20:13.999Z</time>
      </trkpt>
      <trkpt lat="44.60178" lon="4.4264">
        <ele>407.65</ele>
        <time>2019-12-15T15:20:15.999Z</time>
      </trkpt>
      <trkpt lat="44.60185" lon="4.4265">
        <ele>407.75</ele>
        <time>2019-12-15T15:20:17.999Z</time>
      </trkpt>
      <trkpt lat="44.6019" lon="4.42661">
        <ele>407.8</ele>
        <time>2019-12-15T15:20:19.999Z</time>
      </trkpt>
      <trkpt lat="44.60193" lon="4.42673">
        <ele>407.81</ele>
        <time>2019-12-15T15:20:22.999Z</time>
      </trkpt>
      <trkpt lat="44.602" lon="4.42685">
        <ele>407.83</ele>
        <time>2019-12-15T15:20:26.999Z</time>
      </trkpt>
      <trkpt lat="44.60209" lon="4.42693">
        <ele>407.87</ele>
        <time>2019-12-15T15:20:31.999Z</time>
      </trkpt>
      <trkpt lat="44.60214" lon="4.42703">
        <ele>407.91</ele>
        <time>2019-12-15T15:20:36.999Z</time>
      </trkpt>
      <trkpt lat="44.60224" lon="4.42707">
        <ele>407.97</ele>
        <time>2019-12-15T15:20:41.999Z</time>
      </trkpt>
      <trkpt lat="44.60233" lon="4.42713">
        <ele>408.03</ele>
        <time>2019-12-15T15:20:46.999Z</time>
      </trkpt>
      <trkpt lat="44.60244" lon="4.42718">
        <ele>408.09</ele>
        <time>2019-12-15T15:20:51.999Z</time>
      </trkpt>
      <trkpt lat="44.60253" lon="4.42719">
        <ele>408.17</ele>
        <time>2019-12-15T15:20:56.999Z</time>
      </trkpt>
      <trkpt lat="44.60264" lon="4.42721">
        <ele>408.28</ele>
        <time>2019-12-15T15:21:01.999Z</time>
      </trkpt>
      <trkpt lat="44.60274" lon="4.4272">
        <ele>408.38</ele>
        <time>2019-12-15T15:21:05.999Z</time>
      </trkpt>
      <trkpt lat="44.60285" lon="4.42721">
        <ele>408.48</ele>
        <time>2019-12-15T15:21:09.999Z</time>
      </trkpt>
      <trkpt lat="44.60295" lon="4.42724">
        <ele>408.59</ele>
        <time>2019-12-15T15:21:13.999Z</time>
      </trkpt>
      <trkpt lat="44.60305" lon="4.42724">
        <ele>408.74</ele>
        <time>2019-12-15T15:21:18.999Z</time>
      </trkpt>
      <trkpt lat="44.60315" lon="4.42723">
        <ele>408.83</ele>
        <time>2019-12-15T15:21:21.999Z</time>
      </trkpt>
      <trkpt lat="44.60324" lon="4.42723">
        <ele>408.92</ele>
        <time>2019-12-15T15:21:24.999Z</time>
      </trkpt>
      <trkpt lat="44.60333" lon="4.42723">
        <ele>409.01</ele>
        <time>2019-12-15T15:21:27.999Z</time>
      </trkpt>
      <trkpt lat="44.60342" lon="4.42723">
        <ele>409.25</ele>
        <time>2019-12-15T15:21:47.999Z</time>
      </trkpt>
      <trkpt lat="44.60353" lon="4.42723">
        <ele>409.69</ele>
        <time>2019-12-15T15:21:57.999Z</time>
      </trkpt>
      <trkpt lat="44.60365" lon="4.42723">
        <ele>409.87</ele>
        <time>2019-12-15T15:22:01.999Z</time>
      </trkpt>
      <trkpt lat="44.60377" lon="4.42725">
        <ele>410.37</ele>
        <time>2019-12-15T15:22:04.999Z</time>
      </trkpt>
      <trkpt lat="44.60385" lon="4.42734">
        <ele>410.75</ele>
        <time>2019-12-15T15:22:06.999Z</time>
      </trkpt>
      <trkpt lat="44.60392" lon="4.42742">
        <ele>410.83</ele>
        <time>2019-12-15T15:22:09.999Z</time>
      </trkpt>
      <trkpt lat="44.60394" lon="4.42756">
        <ele>410.91</ele>
        <time>2019-12-15T15:22:12.999Z</time>
      </trkpt>
      <trkpt lat="44.60393" lon="4.42773">
        <ele>411.43</ele>
        <time>2019-12-15T15:22:15.999Z</time>
      </trkpt>
      <trkpt lat="44.60388" lon="4.42789">
        <ele>411.87</ele>
        <time>2019-12-15T15:22:18.999Z</time>
      </trkpt>
      <trkpt lat="44.60384" lon="4.42805">
        <ele>412.05</ele>
        <time>2019-12-15T15:22:21.999Z</time>
      </trkpt>
      <trkpt lat="44.60381" lon="4.42817">
        <ele>412.1</ele>
        <time>2019-12-15T15:22:27.999Z</time>
      </trkpt>
      <trkpt lat="44.60376" lon="4.42831">
        <ele>412.16</ele>
        <time>2019-12-15T15:22:32.999Z</time>
      </trkpt>
      <trkpt lat="44.60375" lon="4.42843">
        <ele>412.2</ele>
        <time>2019-12-15T15:22:35.999Z</time>
      </trkpt>
      <trkpt lat="44.6037" lon="4.42855">
        <ele>412.23</ele>
        <time>2019-12-15T15:22:38.999Z</time>
      </trkpt>
      <trkpt lat="44.60364" lon="4.42871">
        <ele>412.35</ele>
        <time>2019-12-15T15:22:41.999Z</time>
      </trkpt>
      <trkpt lat="44.60361" lon="4.42883">
        <ele>412.38</ele>
        <time>2019-12-15T15:22:44.999Z</time>
      </trkpt>
      <trkpt lat="44.60356" lon="4.42896">
        <ele>412.42</ele>
        <time>2019-12-15T15:22:49.999Z</time>
      </trkpt>
      <trkpt lat="44.60355" lon="4.42911">
        <ele>412.47</ele>
        <time>2019-12-15T15:22:55.999Z</time>
      </trkpt>
      <trkpt lat="44.60363" lon="4.42922">
        <ele>412.55</ele>
        <time>2019-12-15T15:23:06.999Z</time>
      </trkpt>
      <trkpt lat="44.60372" lon="4.42934">
        <ele>412.71</ele>
        <time>2019-12-15T15:23:09.999Z</time>
      </trkpt>
      <trkpt lat="44.60383" lon="4.4294">
        <ele>412.82</ele>
        <time>2019-12-15T15:23:12.999Z</time>
      </trkpt>
      <trkpt lat="44.60394" lon="4.42948">
        <ele>412.85</ele>
        <time>2019-12-15T15:23:15.999Z</time>
      </trkpt>
      <trkpt lat="44.60403" lon="4.4295">
        <ele>412.85</ele>
        <time>2019-12-15T15:23:18.999Z</time>
      </trkpt>
      <trkpt lat="44.60413" lon="4.42957">
        <ele>412.85</ele>
        <time>2019-12-15T15:23:22.999Z</time>
      </trkpt>
      <trkpt lat="44.60425" lon="4.42963">
        <ele>412.85</ele>
        <time>2019-12-15T15:23:26.999Z</time>
      </trkpt>
      <trkpt lat="44.60434" lon="4.42964">
        <ele>412.84</ele>
        <time>2019-12-15T15:23:29.999Z</time>
      </trkpt>
      <trkpt lat="44.60445" lon="4.42966">
        <ele>412.84</ele>
        <time>2019-12-15T15:23:32.999Z</time>
      </trkpt>
      <trkpt lat="44.60454" lon="4.4297">
        <ele>412.85</ele>
        <time>2019-12-15T15:23:35.999Z</time>
      </trkpt>
      <trkpt lat="44.60463" lon="4.42966">
        <ele>412.84</ele>
        <time>2019-12-15T15:23:39.999Z</time>
      </trkpt>
      <trkpt lat="44.60474" lon="4.42962">
        <ele>412.84</ele>
        <time>2019-12-15T15:23:43.999Z</time>
      </trkpt>
      <trkpt lat="44.60485" lon="4.4296">
        <ele>412.82</ele>
        <time>2019-12-15T15:23:47.999Z</time>
      </trkpt>
      <trkpt lat="44.60494" lon="4.42961">
        <ele>412.81</ele>
        <time>2019-12-15T15:23:50.999Z</time>
      </trkpt>
      <trkpt lat="44.60504" lon="4.42962">
        <ele>412.79</ele>
        <time>2019-12-15T15:23:53.999Z</time>
      </trkpt>
      <trkpt lat="44.60514" lon="4.42961">
        <ele>412.78</ele>
        <time>2019-12-15T15:23:57.999Z</time>
      </trkpt>
      <trkpt lat="44.60524" lon="4.42964">
        <ele>412.76</ele>
        <time>2019-12-15T15:24:01.999Z</time>
      </trkpt>
      <trkpt lat="44.60533" lon="4.42966">
        <ele>412.74</ele>
        <time>2019-12-15T15:24:04.999Z</time>
      </trkpt>
      <trkpt lat="44.60543" lon="4.42971">
        <ele>412.73</ele>
        <time>2019-12-15T15:24:07.999Z</time>
      </trkpt>
      <trkpt lat="44.60554" lon="4.42976">
        <ele>412.72</ele>
        <time>2019-12-15T15:24:10.999Z</time>
      </trkpt>
      <trkpt lat="44.60564" lon="4.42982">
        <ele>412.66</ele>
        <time>2019-12-15T15:24:13.999Z</time>
      </trkpt>
      <trkpt lat="44.60576" lon="4.42983">
        <ele>412.55</ele>
        <time>2019-12-15T15:24:16.999Z</time>
      </trkpt>
      <trkpt lat="44.60585" lon="4.42985">
        <ele>412.55</ele>
        <time>2019-12-15T15:24:19.999Z</time>
      </trkpt>
      <trkpt lat="44.60596" lon="4.4299">
        <ele>412.49</ele>
        <time>2019-12-15T15:24:22.999Z</time>
      </trkpt>
      <trkpt lat="44.60609" lon="4.42995">
        <ele>412.41</ele>
        <time>2019-12-15T15:24:25.999Z</time>
      </trkpt>
      <trkpt lat="44.60621" lon="4.42995">
        <ele>412.34</ele>
        <time>2019-12-15T15:24:28.999Z</time>
      </trkpt>
      <trkpt lat="44.60634" lon="4.42994">
        <ele>412.24</ele>
        <time>2019-12-15T15:24:31.999Z</time>
      </trkpt>
      <trkpt lat="44.60645" lon="4.42998">
        <ele>412.15</ele>
        <time>2019-12-15T15:24:34.999Z</time>
      </trkpt>
      <trkpt lat="44.60656" lon="4.43004">
        <ele>412.1</ele>
        <time>2019-12-15T15:24:37.999Z</time>
      </trkpt>
      <trkpt lat="44.60665" lon="4.43008">
        <ele>412.09</ele>
        <time>2019-12-15T15:24:40.999Z</time>
      </trkpt>
      <trkpt lat="44.60674" lon="4.43015">
        <ele>412.07</ele>
        <time>2019-12-15T15:24:44.999Z</time>
      </trkpt>
      <trkpt lat="44.60683" lon="4.43025">
        <ele>412.03</ele>
        <time>2019-12-15T15:24:48.999Z</time>
      </trkpt>
      <trkpt lat="44.60691" lon="4.43036">
        <ele>411.99</ele>
        <time>2019-12-15T15:24:52.999Z</time>
      </trkpt>
      <trkpt lat="44.60699" lon="4.43046">
        <ele>411.84</ele>
        <time>2019-12-15T15:24:55.999Z</time>
      </trkpt>
      <trkpt lat="44.60707" lon="4.43053">
        <ele>411.64</ele>
        <time>2019-12-15T15:24:57.999Z</time>
      </trkpt>
      <trkpt lat="44.60716" lon="4.43057">
        <ele>411.48</ele>
        <time>2019-12-15T15:24:59.999Z</time>
      </trkpt>
      <trkpt lat="44.60728" lon="4.43066">
        <ele>411.28</ele>
        <time>2019-12-15T15:25:02.999Z</time>
      </trkpt>
      <trkpt lat="44.60741" lon="4.43065">
        <ele>411.1</ele>
        <time>2019-12-15T15:25:05.999Z</time>
      </trkpt>
      <trkpt lat="44.60751" lon="4.43064">
        <ele>410.97</ele>
        <time>2019-12-15T15:25:07.999Z</time>
      </trkpt>
      <trkpt lat="44.6076" lon="4.4306">
        <ele>410.9</ele>
        <time>2019-12-15T15:25:09.999Z</time>
      </trkpt>
      <trkpt lat="44.60772" lon="4.43056">
        <ele>410.78</ele>
        <time>2019-12-15T15:25:12.999Z</time>
      </trkpt>
      <trkpt lat="44.60784" lon="4.43056">
        <ele>410.67</ele>
        <time>2019-12-15T15:25:15.999Z</time>
      </trkpt>
      <trkpt lat="44.60795" lon="4.43061">
        <ele>410.62</ele>
        <time>2019-12-15T15:25:19.999Z</time>
      </trkpt>
      <trkpt lat="44.60806" lon="4.43059">
        <ele>410.57</ele>
        <time>2019-12-15T15:25:23.999Z</time>
      </trkpt>
      <trkpt lat="44.60815" lon="4.43062">
        <ele>410.46</ele>
        <time>2019-12-15T15:25:29.999Z</time>
      </trkpt>
      <trkpt lat="44.60826" lon="4.43063">
        <ele>410.36</ele>
        <time>2019-12-15T15:25:34.999Z</time>
      </trkpt>
      <trkpt lat="44.60835" lon="4.43063">
        <ele>410.28</ele>
        <time>2019-12-15T15:25:37.999Z</time>
      </trkpt>
      <trkpt lat="44.60846" lon="4.43067">
        <ele>409.98</ele>
        <time>2019-12-15T15:25:40.999Z</time>
      </trkpt>
      <trkpt lat="44.60857" lon="4.4307">
        <ele>409.65</ele>
        <time>2019-12-15T15:25:44.999Z</time>
      </trkpt>
      <trkpt lat="44.60864" lon="4.4308">
        <ele>409.59</ele>
        <time>2019-12-15T15:25:47.999Z</time>
      </trkpt>
      <trkpt lat="44.60873" lon="4.4309">
        <ele>409.3</ele>
        <time>2019-12-15T15:25:50.999Z</time>
      </trkpt>
      <trkpt lat="44.60881" lon="4.43102">
        <ele>409.23</ele>
        <time>2019-12-15T15:25:53.999Z</time>
      </trkpt>
      <trkpt lat="44.60884" lon="4.43116">
        <ele>408.92</ele>
        <time>2019-12-15T15:25:56.999Z</time>
      </trkpt>
      <trkpt lat="44.60894" lon="4.43118">
        <ele>408.62</ele>
        <time>2019-12-15T15:25:59.999Z</time>
      </trkpt>
      <trkpt lat="44.60906" lon="4.43118">
        <ele>408.33</ele>
        <time>2019-12-15T15:26:02.999Z</time>
      </trkpt>
      <trkpt lat="44.60918" lon="4.43115">
        <ele>408</ele>
        <time>2019-12-15T15:26:05.999Z</time>
      </trkpt>
      <trkpt lat="44.60929" lon="4.43114">
        <ele>407.52</ele>
        <time>2019-12-15T15:26:07.999Z</time>
      </trkpt>
      <trkpt lat="44.6094" lon="4.43114">
        <ele>407.11</ele>
        <time>2019-12-15T15:26:09.999Z</time>
      </trkpt>
      <trkpt lat="44.60949" lon="4.43115">
        <ele>406.91</ele>
        <time>2019-12-15T15:26:11.999Z</time>
      </trkpt>
      <trkpt lat="44.60959" lon="4.4311">
        <ele>406.82</ele>
        <time>2019-12-15T15:26:15.999Z</time>
      </trkpt>
      <trkpt lat="44.60971" lon="4.4311">
        <ele>406.49</ele>
        <time>2019-12-15T15:26:19.999Z</time>
      </trkpt>
      <trkpt lat="44.6098" lon="4.43112">
        <ele>406.42</ele>
        <time>2019-12-15T15:26:22.999Z</time>
      </trkpt>
      <trkpt lat="44.60991" lon="4.43109">
        <ele>405.42</ele>
        <time>2019-12-15T15:26:25.999Z</time>
      </trkpt>
      <trkpt lat="44.61002" lon="4.43104">
        <ele>404.82</ele>
        <time>2019-12-15T15:26:28.999Z</time>
      </trkpt>
      <trkpt lat="44.61014" lon="4.43104">
        <ele>403.93</ele>
        <time>2019-12-15T15:26:31.999Z</time>
      </trkpt>
      <trkpt lat="44.61028" lon="4.43105">
        <ele>403.15</ele>
        <time>2019-12-15T15:26:34.999Z</time>
      </trkpt>
      <trkpt lat="44.6104" lon="4.43103">
        <ele>402.72</ele>
        <time>2019-12-15T15:26:37.999Z</time>
      </trkpt>
      <trkpt lat="44.61049" lon="4.43101">
        <ele>402.61</ele>
        <time>2019-12-15T15:26:41.999Z</time>
      </trkpt>
      <trkpt lat="44.6106" lon="4.43106">
        <ele>402.44</ele>
        <time>2019-12-15T15:26:46.999Z</time>
      </trkpt>
      <trkpt lat="44.61068" lon="4.43112">
        <ele>402.28</ele>
        <time>2019-12-15T15:26:50.999Z</time>
      </trkpt>
      <trkpt lat="44.61078" lon="4.43118">
        <ele>402.07</ele>
        <time>2019-12-15T15:26:54.999Z</time>
      </trkpt>
      <trkpt lat="44.6109" lon="4.43119">
        <ele>401.91</ele>
        <time>2019-12-15T15:26:57.999Z</time>
      </trkpt>
      <trkpt lat="44.61101" lon="4.43113">
        <ele>401.79</ele>
        <time>2019-12-15T15:26:59.999Z</time>
      </trkpt>
      <trkpt lat="44.61107" lon="4.43104">
        <ele>401.4</ele>
        <time>2019-12-15T15:27:05.999Z</time>
      </trkpt>
      <trkpt lat="44.61117" lon="4.43104">
        <ele>398.89</ele>
        <time>2019-12-15T15:27:52.999Z</time>
      </trkpt>
      <trkpt lat="44.61127" lon="4.43104">
        <ele>397.64</ele>
        <time>2019-12-15T15:28:01.999Z</time>
      </trkpt>
      <trkpt lat="44.61136" lon="4.43099">
        <ele>396.51</ele>
        <time>2019-12-15T15:28:10.999Z</time>
      </trkpt>
      <trkpt lat="44.61144" lon="4.43103">
        <ele>395.52</ele>
        <time>2019-12-15T15:28:19.999Z</time>
      </trkpt>
      <trkpt lat="44.61154" lon="4.43105">
        <ele>393.76</ele>
        <time>2019-12-15T15:28:38.999Z</time>
      </trkpt>
      <trkpt lat="44.61163" lon="4.43102">
        <ele>392.99</ele>
        <time>2019-12-15T15:28:47.999Z</time>
      </trkpt>
      <trkpt lat="44.61171" lon="4.43093">
        <ele>392.18</ele>
        <time>2019-12-15T15:28:57.999Z</time>
      </trkpt>
      <trkpt lat="44.6118" lon="4.43097">
        <ele>391.42</ele>
        <time>2019-12-15T15:29:07.999Z</time>
      </trkpt>
      <trkpt lat="44.61189" lon="4.43102">
        <ele>390.49</ele>
        <time>2019-12-15T15:29:26.999Z</time>
      </trkpt>
      <trkpt lat="44.61198" lon="4.43109">
        <ele>387.53</ele>
        <time>2019-12-15T15:31:02.999Z</time>
      </trkpt>
      <trkpt lat="44.612" lon="4.43123">
        <ele>386.92</ele>
        <time>2019-12-15T15:31:09.999Z</time>
      </trkpt>
      <trkpt lat="44.61202" lon="4.43137">
        <ele>386.61</ele>
        <time>2019-12-15T15:31:13.999Z</time>
      </trkpt>
      <trkpt lat="44.61206" lon="4.43149">
        <ele>386.24</ele>
        <time>2019-12-15T15:31:18.999Z</time>
      </trkpt>
      <trkpt lat="44.6121" lon="4.43162">
        <ele>385.91</ele>
        <time>2019-12-15T15:31:23.999Z</time>
      </trkpt>
      <trkpt lat="44.61214" lon="4.43174">
        <ele>385.66</ele>
        <time>2019-12-15T15:31:27.999Z</time>
      </trkpt>
      <trkpt lat="44.6122" lon="4.43185">
        <ele>385.42</ele>
        <time>2019-12-15T15:31:31.999Z</time>
      </trkpt>
      <trkpt lat="44.61228" lon="4.43195">
        <ele>385.2</ele>
        <time>2019-12-15T15:31:35.999Z</time>
      </trkpt>
      <trkpt lat="44.61237" lon="4.43202">
        <ele>385</ele>
        <time>2019-12-15T15:31:39.999Z</time>
      </trkpt>
      <trkpt lat="44.61244" lon="4.43211">
        <ele>384.86</ele>
        <time>2019-12-15T15:31:42.999Z</time>
      </trkpt>
      <trkpt lat="44.61251" lon="4.43221">
        <ele>384.68</ele>
        <time>2019-12-15T15:31:46.999Z</time>
      </trkpt>
      <trkpt lat="44.61259" lon="4.43233">
        <ele>384.51</ele>
        <time>2019-12-15T15:31:50.999Z</time>
      </trkpt>
      <trkpt lat="44.61264" lon="4.43248">
        <ele>384.02</ele>
        <time>2019-12-15T15:31:53.999Z</time>
      </trkpt>
      <trkpt lat="44.61275" lon="4.43254">
        <ele>383.89</ele>
        <time>2019-12-15T15:31:57.999Z</time>
      </trkpt>
      <trkpt lat="44.61283" lon="4.43261">
        <ele>383.77</ele>
        <time>2019-12-15T15:32:01.999Z</time>
      </trkpt>
      <trkpt lat="44.6129" lon="4.43272">
        <ele>383.68</ele>
        <time>2019-12-15T15:32:04.999Z</time>
      </trkpt>
      <trkpt lat="44.61301" lon="4.43271">
        <ele>383.51</ele>
        <time>2019-12-15T15:32:10.999Z</time>
      </trkpt>
      <trkpt lat="44.61312" lon="4.43266">
        <ele>383.39</ele>
        <time>2019-12-15T15:32:14.999Z</time>
      </trkpt>
      <trkpt lat="44.61304" lon="4.43277">
        <ele>382.96</ele>
        <time>2019-12-15T15:32:31.999Z</time>
      </trkpt>
      <trkpt lat="44.61303" lon="4.43293">
        <ele>382.84</ele>
        <time>2019-12-15T15:32:35.999Z</time>
      </trkpt>
      <trkpt lat="44.61302" lon="4.43305">
        <ele>382.76</ele>
        <time>2019-12-15T15:32:38.999Z</time>
      </trkpt>
      <trkpt lat="44.61303" lon="4.43319">
        <ele>382.59</ele>
        <time>2019-12-15T15:32:44.999Z</time>
      </trkpt>
      <trkpt lat="44.61305" lon="4.43331">
        <ele>382.37</ele>
        <time>2019-12-15T15:32:51.999Z</time>
      </trkpt>
      <trkpt lat="44.61299" lon="4.43341">
        <ele>382.13</ele>
        <time>2019-12-15T15:33:00.999Z</time>
      </trkpt>
      <trkpt lat="44.61306" lon="4.43353">
        <ele>381.71</ele>
        <time>2019-12-15T15:33:16.999Z</time>
      </trkpt>
      <trkpt lat="44.61316" lon="4.4336">
        <ele>381.59</ele>
        <time>2019-12-15T15:33:20.999Z</time>
      </trkpt>
      <trkpt lat="44.61325" lon="4.43365">
        <ele>381.5</ele>
        <time>2019-12-15T15:33:23.999Z</time>
      </trkpt>
      <trkpt lat="44.61334" lon="4.43372">
        <ele>381.11</ele>
        <time>2019-12-15T15:33:27.999Z</time>
      </trkpt>
      <trkpt lat="44.61344" lon="4.43366">
        <ele>380.94</ele>
        <time>2019-12-15T15:33:33.999Z</time>
      </trkpt>
      <trkpt lat="44.61353" lon="4.4337">
        <ele>380.78</ele>
        <time>2019-12-15T15:33:38.999Z</time>
      </trkpt>
      <trkpt lat="44.61363" lon="4.43376">
        <ele>380.66</ele>
        <time>2019-12-15T15:33:42.999Z</time>
      </trkpt>
      <trkpt lat="44.61372" lon="4.43379">
        <ele>380.53</ele>
        <time>2019-12-15T15:33:46.999Z</time>
      </trkpt>
      <trkpt lat="44.61381" lon="4.43379">
        <ele>380.43</ele>
        <time>2019-12-15T15:33:49.999Z</time>
      </trkpt>
      <trkpt lat="44.61393" lon="4.43385">
        <ele>380.3</ele>
        <time>2019-12-15T15:33:53.999Z</time>
      </trkpt>
      <trkpt lat="44.61403" lon="4.43385">
        <ele>380.21</ele>
        <time>2019-12-15T15:33:56.999Z</time>
      </trkpt>
      <trkpt lat="44.61415" lon="4.43387">
        <ele>380.11</ele>
        <time>2019-12-15T15:33:59.999Z</time>
      </trkpt>
      <trkpt lat="44.61427" lon="4.4339">
        <ele>380.02</ele>
        <time>2019-12-15T15:34:02.999Z</time>
      </trkpt>
      <trkpt lat="44.61439" lon="4.43393">
        <ele>379.92</ele>
        <time>2019-12-15T15:34:05.999Z</time>
      </trkpt>
      <trkpt lat="44.61449" lon="4.43403">
        <ele>376.84</ele>
        <time>2019-12-15T15:34:08.999Z</time>
      </trkpt>
      <trkpt lat="44.6146" lon="4.43404">
        <ele>374.31</ele>
        <time>2019-12-15T15:34:11.999Z</time>
      </trkpt>
      <trkpt lat="44.61471" lon="4.43403">
        <ele>373.75</ele>
        <time>2019-12-15T15:34:14.999Z</time>
      </trkpt>
      <trkpt lat="44.6148" lon="4.43405">
        <ele>373.46</ele>
        <time>2019-12-15T15:34:18.999Z</time>
      </trkpt>
      <trkpt lat="44.61491" lon="4.43405">
        <ele>371.67</ele>
        <time>2019-12-15T15:34:21.999Z</time>
      </trkpt>
      <trkpt lat="44.615" lon="4.43408">
        <ele>368.49</ele>
        <time>2019-12-15T15:35:15.999Z</time>
      </trkpt>
      <trkpt lat="44.6151" lon="4.43409">
        <ele>367.19</ele>
        <time>2019-12-15T15:35:25.999Z</time>
      </trkpt>
      <trkpt lat="44.61519" lon="4.43413">
        <ele>366.09</ele>
        <time>2019-12-15T15:35:35.999Z</time>
      </trkpt>
      <trkpt lat="44.6153" lon="4.43413">
        <ele>365.62</ele>
        <time>2019-12-15T15:35:39.999Z</time>
      </trkpt>
      <trkpt lat="44.6154" lon="4.43417">
        <ele>365.04</ele>
        <time>2019-12-15T15:35:44.999Z</time>
      </trkpt>
      <trkpt lat="44.61551" lon="4.43418">
        <ele>364.6</ele>
        <time>2019-12-15T15:35:48.999Z</time>
      </trkpt>
      <trkpt lat="44.6156" lon="4.4342">
        <ele>364.07</ele>
        <time>2019-12-15T15:35:53.999Z</time>
      </trkpt>
      <trkpt lat="44.61569" lon="4.43425">
        <ele>363.76</ele>
        <time>2019-12-15T15:35:56.999Z</time>
      </trkpt>
      <trkpt lat="44.61579" lon="4.43431">
        <ele>363.44</ele>
        <time>2019-12-15T15:35:59.999Z</time>
      </trkpt>
      <trkpt lat="44.61589" lon="4.43436">
        <ele>363.12</ele>
        <time>2019-12-15T15:36:02.999Z</time>
      </trkpt>
      <trkpt lat="44.61599" lon="4.43438">
        <ele>362.8</ele>
        <time>2019-12-15T15:36:05.999Z</time>
      </trkpt>
      <trkpt lat="44.61608" lon="4.43437">
        <ele>362.39</ele>
        <time>2019-12-15T15:36:09.999Z</time>
      </trkpt>
      <trkpt lat="44.61618" lon="4.43436">
        <ele>360.77</ele>
        <time>2019-12-15T15:36:33.999Z</time>
      </trkpt>
      <trkpt lat="44.61628" lon="4.43438">
        <ele>359.8</ele>
        <time>2019-12-15T15:36:44.999Z</time>
      </trkpt>
      <trkpt lat="44.61636" lon="4.43435">
        <ele>359.14</ele>
        <time>2019-12-15T15:36:54.999Z</time>
      </trkpt>
      <trkpt lat="44.61646" lon="4.43438">
        <ele>357.65</ele>
        <time>2019-12-15T15:37:09.999Z</time>
      </trkpt>
      <trkpt lat="44.61656" lon="4.43438">
        <ele>356.63</ele>
        <time>2019-12-15T15:37:20.000Z</time>
      </trkpt>
      <trkpt lat="44.61668" lon="4.43438">
        <ele>354.17</ele>
        <time>2019-12-15T15:37:53.000Z</time>
      </trkpt>
      <trkpt lat="44.61676" lon="4.43432">
        <ele>353.63</ele>
        <time>2019-12-15T15:37:59.000Z</time>
      </trkpt>
      <trkpt lat="44.61687" lon="4.43428">
        <ele>351.88</ele>
        <time>2019-12-15T15:38:03.000Z</time>
      </trkpt>
      <trkpt lat="44.61698" lon="4.43418">
        <ele>351.71</ele>
        <time>2019-12-15T15:38:06.000Z</time>
      </trkpt>
      <trkpt lat="44.61704" lon="4.43404">
        <ele>351.53</ele>
        <time>2019-12-15T15:38:09.000Z</time>
      </trkpt>
      <trkpt lat="44.61708" lon="4.43391">
        <ele>351.28</ele>
        <time>2019-12-15T15:38:13.000Z</time>
      </trkpt>
      <trkpt lat="44.61711" lon="4.43379">
        <ele>350.48</ele>
        <time>2019-12-15T15:38:25.000Z</time>
      </trkpt>
      <trkpt lat="44.61716" lon="4.43367">
        <ele>346.82</ele>
        <time>2019-12-15T15:39:17.000Z</time>
      </trkpt>
      <trkpt lat="44.6171" lon="4.43357">
        <ele>345.98</ele>
        <time>2019-12-15T15:39:30.000Z</time>
      </trkpt>
      <trkpt lat="44.61703" lon="4.43345">
        <ele>345.68</ele>
        <time>2019-12-15T15:39:34.000Z</time>
      </trkpt>
      <trkpt lat="44.617" lon="4.43332">
        <ele>345.23</ele>
        <time>2019-12-15T15:39:40.000Z</time>
      </trkpt>
      <trkpt lat="44.61709" lon="4.43337">
        <ele>344.88</ele>
        <time>2019-12-15T15:39:45.000Z</time>
      </trkpt>
      <trkpt lat="44.61718" lon="4.4334">
        <ele>344.54</ele>
        <time>2019-12-15T15:39:50.000Z</time>
      </trkpt>
      <trkpt lat="44.61728" lon="4.43348">
        <ele>344.28</ele>
        <time>2019-12-15T15:39:54.000Z</time>
      </trkpt>
      <trkpt lat="44.61735" lon="4.43337">
        <ele>343.63</ele>
        <time>2019-12-15T15:40:04.000Z</time>
      </trkpt>
      <trkpt lat="44.61744" lon="4.43335">
        <ele>343.02</ele>
        <time>2019-12-15T15:40:13.000Z</time>
      </trkpt>
      <trkpt lat="44.61752" lon="4.43329">
        <ele>342.31</ele>
        <time>2019-12-15T15:40:38.000Z</time>
      </trkpt>
      <trkpt lat="44.61752" lon="4.43316">
        <ele>341.45</ele>
        <time>2019-12-15T15:40:48.000Z</time>
      </trkpt>
      <trkpt lat="44.61748" lon="4.43304">
        <ele>338.02</ele>
        <time>2019-12-15T15:41:41.000Z</time>
      </trkpt>
      <trkpt lat="44.61744" lon="4.43291">
        <ele>337.7</ele>
        <time>2019-12-15T15:41:46.000Z</time>
      </trkpt>
      <trkpt lat="44.61754" lon="4.43291">
        <ele>337.39</ele>
        <time>2019-12-15T15:41:51.000Z</time>
      </trkpt>
      <trkpt lat="44.61765" lon="4.43295">
        <ele>337.14</ele>
        <time>2019-12-15T15:41:55.000Z</time>
      </trkpt>
      <trkpt lat="44.61772" lon="4.43303">
        <ele>336.95</ele>
        <time>2019-12-15T15:41:58.000Z</time>
      </trkpt>
      <trkpt lat="44.61781" lon="4.43303">
        <ele>336.5</ele>
        <time>2019-12-15T15:42:03.000Z</time>
      </trkpt>
      <trkpt lat="44.61784" lon="4.43291">
        <ele>333.31</ele>
        <time>2019-12-15T15:42:32.000Z</time>
      </trkpt>
      <trkpt lat="44.61776" lon="4.43284">
        <ele>332.17</ele>
        <time>2019-12-15T15:42:38.000Z</time>
      </trkpt>
      <trkpt lat="44.6177" lon="4.43271">
        <ele>331.13</ele>
        <time>2019-12-15T15:42:43.000Z</time>
      </trkpt>
      <trkpt lat="44.61765" lon="4.43261">
        <ele>330.25</ele>
        <time>2019-12-15T15:42:47.000Z</time>
      </trkpt>
      <trkpt lat="44.61775" lon="4.43258">
        <ele>327.09</ele>
        <time>2019-12-15T15:42:53.000Z</time>
      </trkpt>
      <trkpt lat="44.61787" lon="4.43264">
        <ele>323.96</ele>
        <time>2019-12-15T15:42:56.000Z</time>
      </trkpt>
      <trkpt lat="44.61798" lon="4.43273">
        <ele>321.82</ele>
        <time>2019-12-15T15:42:59.000Z</time>
      </trkpt>
      <trkpt lat="44.61809" lon="4.43279">
        <ele>320.87</ele>
        <time>2019-12-15T15:43:02.000Z</time>
      </trkpt>
      <trkpt lat="44.61815" lon="4.4327">
        <ele>319.33</ele>
        <time>2019-12-15T15:43:21.000Z</time>
      </trkpt>
      <trkpt lat="44.6181" lon="4.43258">
        <ele>317.53</ele>
        <time>2019-12-15T15:43:39.000Z</time>
      </trkpt>
      <trkpt lat="44.61821" lon="4.43254">
        <ele>316.25</ele>
        <time>2019-12-15T15:43:46.000Z</time>
      </trkpt>
      <trkpt lat="44.61831" lon="4.43262">
        <ele>314.01</ele>
        <time>2019-12-15T15:43:49.000Z</time>
      </trkpt>
      <trkpt lat="44.61839" lon="4.43267">
        <ele>312.26</ele>
        <time>2019-12-15T15:44:07.000Z</time>
      </trkpt>
      <trkpt lat="44.6185" lon="4.43267">
        <ele>311.5</ele>
        <time>2019-12-15T15:44:11.000Z</time>
      </trkpt>
      <trkpt lat="44.61859" lon="4.43275">
        <ele>310.74</ele>
        <time>2019-12-15T15:44:15.000Z</time>
      </trkpt>
      <trkpt lat="44.61857" lon="4.43287">
        <ele>308.44</ele>
        <time>2019-12-15T15:44:32.000Z</time>
      </trkpt>
      <trkpt lat="44.61854" lon="4.433">
        <ele>307.89</ele>
        <time>2019-12-15T15:44:35.000Z</time>
      </trkpt>
      <trkpt lat="44.61846" lon="4.43313">
        <ele>305.7</ele>
        <time>2019-12-15T15:44:38.000Z</time>
      </trkpt>
      <trkpt lat="44.61838" lon="4.4332">
        <ele>304.95</ele>
        <time>2019-12-15T15:44:42.000Z</time>
      </trkpt>
      <trkpt lat="44.61835" lon="4.43334">
        <ele>303.94</ele>
        <time>2019-12-15T15:44:47.000Z</time>
      </trkpt>
      <trkpt lat="44.61845" lon="4.43334">
        <ele>297.37</ele>
        <time>2019-12-15T15:45:21.000Z</time>
      </trkpt>
      <trkpt lat="44.61854" lon="4.4333">
        <ele>293.74</ele>
        <time>2019-12-15T15:45:44.000Z</time>
      </trkpt>
      <trkpt lat="44.61859" lon="4.4332">
        <ele>288.84</ele>
        <time>2019-12-15T15:46:08.000Z</time>
      </trkpt>
      <trkpt lat="44.61868" lon="4.43318">
        <ele>278.56</ele>
        <time>2019-12-15T15:47:49.000Z</time>
      </trkpt>
      <trkpt lat="44.61877" lon="4.43312">
        <ele>276.61</ele>
        <time>2019-12-15T15:48:09.000Z</time>
      </trkpt>
      <trkpt lat="44.61885" lon="4.43305">
        <ele>275.44</ele>
        <time>2019-12-15T15:48:20.000Z</time>
      </trkpt>
      <trkpt lat="44.61895" lon="4.433">
        <ele>274.64</ele>
        <time>2019-12-15T15:48:28.000Z</time>
      </trkpt>
      <trkpt lat="44.61901" lon="4.43292">
        <ele>273.78</ele>
        <time>2019-12-15T15:48:37.000Z</time>
      </trkpt>
      <trkpt lat="44.61908" lon="4.43282">
        <ele>272.8</ele>
        <time>2019-12-15T15:48:53.000Z</time>
      </trkpt>
      <trkpt lat="44.61916" lon="4.43272">
        <ele>270.42</ele>
        <time>2019-12-15T15:49:30.000Z</time>
      </trkpt>
      <trkpt lat="44.61925" lon="4.43261">
        <ele>270.08</ele>
        <time>2019-12-15T15:49:34.000Z</time>
      </trkpt>
      <trkpt lat="44.61933" lon="4.43253">
        <ele>269.84</ele>
        <time>2019-12-15T15:49:37.000Z</time>
      </trkpt>
      <trkpt lat="44.61942" lon="4.43246">
        <ele>269.6</ele>
        <time>2019-12-15T15:49:40.000Z</time>
      </trkpt>
      <trkpt lat="44.61951" lon="4.43247">
        <ele>269.3</ele>
        <time>2019-12-15T15:49:44.000Z</time>
      </trkpt>
      <trkpt lat="44.61961" lon="4.43241">
        <ele>269.08</ele>
        <time>2019-12-15T15:49:47.000Z</time>
      </trkpt>
      <trkpt lat="44.61969" lon="4.43228">
        <ele>268.86</ele>
        <time>2019-12-15T15:49:50.000Z</time>
      </trkpt>
      <trkpt lat="44.61976" lon="4.43219">
        <ele>268.64</ele>
        <time>2019-12-15T15:49:53.000Z</time>
      </trkpt>
      <trkpt lat="44.61985" lon="4.43211">
        <ele>268.34</ele>
        <time>2019-12-15T15:49:57.000Z</time>
      </trkpt>
      <trkpt lat="44.61993" lon="4.43205">
        <ele>267.48</ele>
        <time>2019-12-15T15:50:17.000Z</time>
      </trkpt>
      <trkpt lat="44.62002" lon="4.43196">
        <ele>267.01</ele>
        <time>2019-12-15T15:50:23.000Z</time>
      </trkpt>
      <trkpt lat="44.6201" lon="4.43184">
        <ele>265.6</ele>
        <time>2019-12-15T15:50:26.000Z</time>
      </trkpt>
      <trkpt lat="44.62017" lon="4.43169">
        <ele>264.69</ele>
        <time>2019-12-15T15:50:29.000Z</time>
      </trkpt>
      <trkpt lat="44.62022" lon="4.43155">
        <ele>264.09</ele>
        <time>2019-12-15T15:50:32.000Z</time>
      </trkpt>
      <trkpt lat="44.62029" lon="4.43139">
        <ele>263.58</ele>
        <time>2019-12-15T15:50:35.000Z</time>
      </trkpt>
      <trkpt lat="44.62035" lon="4.43126">
        <ele>263.35</ele>
        <time>2019-12-15T15:50:37.000Z</time>
      </trkpt>
      <trkpt lat="44.62042" lon="4.43116">
        <ele>263.14</ele>
        <time>2019-12-15T15:50:39.000Z</time>
      </trkpt>
      <trkpt lat="44.62049" lon="4.43104">
        <ele>262.95</ele>
        <time>2019-12-15T15:50:41.000Z</time>
      </trkpt>
      <trkpt lat="44.62055" lon="4.43091">
        <ele>262.75</ele>
        <time>2019-12-15T15:50:43.000Z</time>
      </trkpt>
      <trkpt lat="44.62061" lon="4.43079">
        <ele>262.6</ele>
        <time>2019-12-15T15:50:45.000Z</time>
      </trkpt>
      <trkpt lat="44.62068" lon="4.43068">
        <ele>262.5</ele>
        <time>2019-12-15T15:50:47.000Z</time>
      </trkpt>
      <trkpt lat="44.62075" lon="4.43056">
        <ele>262.41</ele>
        <time>2019-12-15T15:50:49.000Z</time>
      </trkpt>
      <trkpt lat="44.6208" lon="4.43043">
        <ele>262.3</ele>
        <time>2019-12-15T15:50:51.000Z</time>
      </trkpt>
      <trkpt lat="44.62088" lon="4.43031">
        <ele>262.2</ele>
        <time>2019-12-15T15:50:53.000Z</time>
      </trkpt>
      <trkpt lat="44.62093" lon="4.43018">
        <ele>262.14</ele>
        <time>2019-12-15T15:50:55.000Z</time>
      </trkpt>
      <trkpt lat="44.62099" lon="4.43006">
        <ele>262.09</ele>
        <time>2019-12-15T15:50:57.000Z</time>
      </trkpt>
      <trkpt lat="44.62108" lon="4.42995">
        <ele>261.99</ele>
        <time>2019-12-15T15:50:59.000Z</time>
      </trkpt>
      <trkpt lat="44.62113" lon="4.42985">
        <ele>261.93</ele>
        <time>2019-12-15T15:51:01.000Z</time>
      </trkpt>
      <trkpt lat="44.6212" lon="4.4297">
        <ele>261.83</ele>
        <time>2019-12-15T15:51:04.000Z</time>
      </trkpt>
      <trkpt lat="44.62126" lon="4.42956">
        <ele>261.69</ele>
        <time>2019-12-15T15:51:07.000Z</time>
      </trkpt>
      <trkpt lat="44.62132" lon="4.42944">
        <ele>261.61</ele>
        <time>2019-12-15T15:51:09.000Z</time>
      </trkpt>
      <trkpt lat="44.62137" lon="4.42933">
        <ele>261.53</ele>
        <time>2019-12-15T15:51:11.000Z</time>
      </trkpt>
      <trkpt lat="44.62142" lon="4.42921">
        <ele>261.37</ele>
        <time>2019-12-15T15:51:13.000Z</time>
      </trkpt>
      <trkpt lat="44.62146" lon="4.42909">
        <ele>261.26</ele>
        <time>2019-12-15T15:51:15.000Z</time>
      </trkpt>
      <trkpt lat="44.62151" lon="4.42897">
        <ele>261.15</ele>
        <time>2019-12-15T15:51:17.000Z</time>
      </trkpt>
      <trkpt lat="44.62158" lon="4.42879">
        <ele>260.97</ele>
        <time>2019-12-15T15:51:20.000Z</time>
      </trkpt>
      <trkpt lat="44.62164" lon="4.42862">
        <ele>260.73</ele>
        <time>2019-12-15T15:51:23.000Z</time>
      </trkpt>
      <trkpt lat="44.62169" lon="4.42848">
        <ele>260.61</ele>
        <time>2019-12-15T15:51:25.000Z</time>
      </trkpt>
      <trkpt lat="44.62175" lon="4.42836">
        <ele>260.51</ele>
        <time>2019-12-15T15:51:27.000Z</time>
      </trkpt>
      <trkpt lat="44.62181" lon="4.42823">
        <ele>260.41</ele>
        <time>2019-12-15T15:51:29.000Z</time>
      </trkpt>
      <trkpt lat="44.62187" lon="4.4281">
        <ele>260.31</ele>
        <time>2019-12-15T15:51:31.000Z</time>
      </trkpt>
      <trkpt lat="44.62193" lon="4.42797">
        <ele>260.21</ele>
        <time>2019-12-15T15:51:33.000Z</time>
      </trkpt>
      <trkpt lat="44.62199" lon="4.42782">
        <ele>260.13</ele>
        <time>2019-12-15T15:51:35.000Z</time>
      </trkpt>
      <trkpt lat="44.62205" lon="4.42769">
        <ele>260.07</ele>
        <time>2019-12-15T15:51:37.000Z</time>
      </trkpt>
      <trkpt lat="44.62212" lon="4.42755">
        <ele>260.01</ele>
        <time>2019-12-15T15:51:39.000Z</time>
      </trkpt>
      <trkpt lat="44.62218" lon="4.42742">
        <ele>259.97</ele>
        <time>2019-12-15T15:51:41.000Z</time>
      </trkpt>
      <trkpt lat="44.62224" lon="4.42729">
        <ele>259.93</ele>
        <time>2019-12-15T15:51:43.000Z</time>
      </trkpt>
      <trkpt lat="44.6223" lon="4.42716">
        <ele>259.9</ele>
        <time>2019-12-15T15:51:45.000Z</time>
      </trkpt>
      <trkpt lat="44.62235" lon="4.42703">
        <ele>259.87</ele>
        <time>2019-12-15T15:51:47.000Z</time>
      </trkpt>
      <trkpt lat="44.62242" lon="4.4269">
        <ele>259.84</ele>
        <time>2019-12-15T15:51:49.000Z</time>
      </trkpt>
      <trkpt lat="44.62247" lon="4.42678">
        <ele>259.81</ele>
        <time>2019-12-15T15:51:51.000Z</time>
      </trkpt>
      <trkpt lat="44.62253" lon="4.42665">
        <ele>259.78</ele>
        <time>2019-12-15T15:51:53.000Z</time>
      </trkpt>
      <trkpt lat="44.6226" lon="4.42653">
        <ele>259.76</ele>
        <time>2019-12-15T15:51:55.000Z</time>
      </trkpt>
      <trkpt lat="44.62265" lon="4.42641">
        <ele>259.75</ele>
        <time>2019-12-15T15:51:57.000Z</time>
      </trkpt>
      <trkpt lat="44.62271" lon="4.4263">
        <ele>259.74</ele>
        <time>2019-12-15T15:51:59.000Z</time>
      </trkpt>
      <trkpt lat="44.62276" lon="4.42618">
        <ele>259.73</ele>
        <time>2019-12-15T15:52:01.000Z</time>
      </trkpt>
      <trkpt lat="44.62282" lon="4.42607">
        <ele>259.71</ele>
        <time>2019-12-15T15:52:03.000Z</time>
      </trkpt>
      <trkpt lat="44.62287" lon="4.42595">
        <ele>259.69</ele>
        <time>2019-12-15T15:52:05.000Z</time>
      </trkpt>
      <trkpt lat="44.62293" lon="4.42583">
        <ele>259.67</ele>
        <time>2019-12-15T15:52:07.000Z</time>
      </trkpt>
      <trkpt lat="44.62299" lon="4.4257">
        <ele>259.63</ele>
        <time>2019-12-15T15:52:09.000Z</time>
      </trkpt>
      <trkpt lat="44.62305" lon="4.42556">
        <ele>259.61</ele>
        <time>2019-12-15T15:52:11.000Z</time>
      </trkpt>
      <trkpt lat="44.62311" lon="4.42544">
        <ele>259.58</ele>
        <time>2019-12-15T15:52:13.000Z</time>
      </trkpt>
      <trkpt lat="44.62317" lon="4.42529">
        <ele>259.56</ele>
        <time>2019-12-15T15:52:15.000Z</time>
      </trkpt>
      <trkpt lat="44.62322" lon="4.42515">
        <ele>259.54</ele>
        <time>2019-12-15T15:52:17.000Z</time>
      </trkpt>
      <trkpt lat="44.62328" lon="4.42502">
        <ele>259.51</ele>
        <time>2019-12-15T15:52:19.000Z</time>
      </trkpt>
      <trkpt lat="44.62334" lon="4.42488">
        <ele>259.48</ele>
        <time>2019-12-15T15:52:21.000Z</time>
      </trkpt>
      <trkpt lat="44.62341" lon="4.42476">
        <ele>259.47</ele>
        <time>2019-12-15T15:52:23.000Z</time>
      </trkpt>
      <trkpt lat="44.62347" lon="4.42464">
        <ele>259.45</ele>
        <time>2019-12-15T15:52:25.000Z</time>
      </trkpt>
      <trkpt lat="44.62353" lon="4.42451">
        <ele>259.44</ele>
        <time>2019-12-15T15:52:27.000Z</time>
      </trkpt>
      <trkpt lat="44.62358" lon="4.42438">
        <ele>259.43</ele>
        <time>2019-12-15T15:52:29.000Z</time>
      </trkpt>
      <trkpt lat="44.62363" lon="4.42426">
        <ele>259.42</ele>
        <time>2019-12-15T15:52:31.000Z</time>
      </trkpt>
      <trkpt lat="44.62368" lon="4.42415">
        <ele>259.41</ele>
        <time>2019-12-15T15:52:33.000Z</time>
      </trkpt>
      <trkpt lat="44.62375" lon="4.424">
        <ele>259.37</ele>
        <time>2019-12-15T15:52:36.000Z</time>
      </trkpt>
      <trkpt lat="44.62381" lon="4.42385">
        <ele>259.33</ele>
        <time>2019-12-15T15:52:39.000Z</time>
      </trkpt>
      <trkpt lat="44.62388" lon="4.4237">
        <ele>259.3</ele>
        <time>2019-12-15T15:52:42.000Z</time>
      </trkpt>
      <trkpt lat="44.62393" lon="4.42359">
        <ele>259.27</ele>
        <time>2019-12-15T15:52:44.000Z</time>
      </trkpt>
      <trkpt lat="44.624" lon="4.42343">
        <ele>259.26</ele>
        <time>2019-12-15T15:52:47.000Z</time>
      </trkpt>
      <trkpt lat="44.62405" lon="4.42332">
        <ele>259.25</ele>
        <time>2019-12-15T15:52:49.000Z</time>
      </trkpt>
      <trkpt lat="44.6241" lon="4.42321">
        <ele>259.24</ele>
        <time>2019-12-15T15:52:51.000Z</time>
      </trkpt>
      <trkpt lat="44.62417" lon="4.42306">
        <ele>259.25</ele>
        <time>2019-12-15T15:52:54.000Z</time>
      </trkpt>
      <trkpt lat="44.62422" lon="4.42295">
        <ele>259.26</ele>
        <time>2019-12-15T15:52:56.000Z</time>
      </trkpt>
      <trkpt lat="44.62428" lon="4.42285">
        <ele>259.28</ele>
        <time>2019-12-15T15:52:58.000Z</time>
      </trkpt>
      <trkpt lat="44.62433" lon="4.42273">
        <ele>259.29</ele>
        <time>2019-12-15T15:53:00.000Z</time>
      </trkpt>
      <trkpt lat="44.62439" lon="4.42262">
        <ele>259.29</ele>
        <time>2019-12-15T15:53:02.000Z</time>
      </trkpt>
      <trkpt lat="44.62444" lon="4.42251">
        <ele>259.28</ele>
        <time>2019-12-15T15:53:04.000Z</time>
      </trkpt>
      <trkpt lat="44.6245" lon="4.42241">
        <ele>259.27</ele>
        <time>2019-12-15T15:53:06.000Z</time>
      </trkpt>
      <trkpt lat="44.62454" lon="4.4223">
        <ele>259.27</ele>
        <time>2019-12-15T15:53:08.000Z</time>
      </trkpt>
      <trkpt lat="44.62462" lon="4.42218">
        <ele>259.26</ele>
        <time>2019-12-15T15:53:11.000Z</time>
      </trkpt>
      <trkpt lat="44.62469" lon="4.42202">
        <ele>259.25</ele>
        <time>2019-12-15T15:53:14.000Z</time>
      </trkpt>
      <trkpt lat="44.62474" lon="4.42191">
        <ele>259.24</ele>
        <time>2019-12-15T15:53:16.000Z</time>
      </trkpt>
      <trkpt lat="44.62482" lon="4.42178">
        <ele>259.24</ele>
        <time>2019-12-15T15:53:18.000Z</time>
      </trkpt>
      <trkpt lat="44.62488" lon="4.42168">
        <ele>259.23</ele>
        <time>2019-12-15T15:53:20.000Z</time>
      </trkpt>
      <trkpt lat="44.62495" lon="4.42157">
        <ele>259.23</ele>
        <time>2019-12-15T15:53:22.000Z</time>
      </trkpt>
      <trkpt lat="44.62502" lon="4.42144">
        <ele>259.23</ele>
        <time>2019-12-15T15:53:25.000Z</time>
      </trkpt>
      <trkpt lat="44.62509" lon="4.42133">
        <ele>259.25</ele>
        <time>2019-12-15T15:53:27.000Z</time>
      </trkpt>
      <trkpt lat="44.62515" lon="4.42123">
        <ele>259.26</ele>
        <time>2019-12-15T15:53:29.000Z</time>
      </trkpt>
      <trkpt lat="44.62522" lon="4.4211">
        <ele>259.28</ele>
        <time>2019-12-15T15:53:32.000Z</time>
      </trkpt>
      <trkpt lat="44.6253" lon="4.42096">
        <ele>259.3</ele>
        <time>2019-12-15T15:53:35.000Z</time>
      </trkpt>
      <trkpt lat="44.62538" lon="4.42083">
        <ele>259.32</ele>
        <time>2019-12-15T15:53:38.000Z</time>
      </trkpt>
      <trkpt lat="44.62544" lon="4.42072">
        <ele>259.32</ele>
        <time>2019-12-15T15:53:41.000Z</time>
      </trkpt>
      <trkpt lat="44.6255" lon="4.4206">
        <ele>259.32</ele>
        <time>2019-12-15T15:53:44.000Z</time>
      </trkpt>
      <trkpt lat="44.62556" lon="4.42047">
        <ele>259.32</ele>
        <time>2019-12-15T15:53:47.000Z</time>
      </trkpt>
      <trkpt lat="44.62559" lon="4.42033">
        <ele>259.31</ele>
        <time>2019-12-15T15:53:50.000Z</time>
      </trkpt>
      <trkpt lat="44.6256" lon="4.42015">
        <ele>259.3</ele>
        <time>2019-12-15T15:53:53.000Z</time>
      </trkpt>
      <trkpt lat="44.62559" lon="4.41997">
        <ele>259.3</ele>
        <time>2019-12-15T15:53:56.000Z</time>
      </trkpt>
      <trkpt lat="44.62558" lon="4.4198">
        <ele>259.29</ele>
        <time>2019-12-15T15:53:59.000Z</time>
      </trkpt>
      <trkpt lat="44.62557" lon="4.41963">
        <ele>259.28</ele>
        <time>2019-12-15T15:54:02.000Z</time>
      </trkpt>
      <trkpt lat="44.62558" lon="4.41948">
        <ele>259.28</ele>
        <time>2019-12-15T15:54:05.000Z</time>
      </trkpt>
      <trkpt lat="44.6256" lon="4.41932">
        <ele>259.26</ele>
        <time>2019-12-15T15:54:08.000Z</time>
      </trkpt>
      <trkpt lat="44.62566" lon="4.41921">
        <ele>259.26</ele>
        <time>2019-12-15T15:54:11.000Z</time>
      </trkpt>
      <trkpt lat="44.62576" lon="4.41913">
        <ele>259.25</ele>
        <time>2019-12-15T15:54:15.000Z</time>
      </trkpt>
      <trkpt lat="44.62587" lon="4.4191">
        <ele>259.25</ele>
        <time>2019-12-15T15:54:18.000Z</time>
      </trkpt>
      <trkpt lat="44.62599" lon="4.41912">
        <ele>259.25</ele>
        <time>2019-12-15T15:54:21.000Z</time>
      </trkpt>
      <trkpt lat="44.62611" lon="4.41917">
        <ele>259.19</ele>
        <time>2019-12-15T15:54:24.000Z</time>
      </trkpt>
      <trkpt lat="44.6262" lon="4.41923">
        <ele>259.09</ele>
        <time>2019-12-15T15:54:26.000Z</time>
      </trkpt>
      <trkpt lat="44.62631" lon="4.41929">
        <ele>258.97</ele>
        <time>2019-12-15T15:54:29.000Z</time>
      </trkpt>
      <trkpt lat="44.62642" lon="4.41935">
        <ele>258.81</ele>
        <time>2019-12-15T15:54:32.000Z</time>
      </trkpt>
      <trkpt lat="44.62653" lon="4.41942">
        <ele>258.7</ele>
        <time>2019-12-15T15:54:35.000Z</time>
      </trkpt>
      <trkpt lat="44.62664" lon="4.41948">
        <ele>258.66</ele>
        <time>2019-12-15T15:54:38.000Z</time>
      </trkpt>
      <trkpt lat="44.62675" lon="4.41955">
        <ele>258.62</ele>
        <time>2019-12-15T15:54:41.000Z</time>
      </trkpt>
      <trkpt lat="44.62686" lon="4.41961">
        <ele>258.55</ele>
        <time>2019-12-15T15:54:44.000Z</time>
      </trkpt>
      <trkpt lat="44.62696" lon="4.41967">
        <ele>258.51</ele>
        <time>2019-12-15T15:54:47.000Z</time>
      </trkpt>
      <trkpt lat="44.62706" lon="4.41973">
        <ele>258.46</ele>
        <time>2019-12-15T15:54:50.000Z</time>
      </trkpt>
      <trkpt lat="44.62717" lon="4.4198">
        <ele>258.45</ele>
        <time>2019-12-15T15:54:53.000Z</time>
      </trkpt>
      <trkpt lat="44.62727" lon="4.41984">
        <ele>258.45</ele>
        <time>2019-12-15T15:54:56.000Z</time>
      </trkpt>
      <trkpt lat="44.62736" lon="4.41989">
        <ele>258.44</ele>
        <time>2019-12-15T15:54:59.000Z</time>
      </trkpt>
      <trkpt lat="44.62745" lon="4.41994">
        <ele>258.43</ele>
        <time>2019-12-15T15:55:02.000Z</time>
      </trkpt>
      <trkpt lat="44.62755" lon="4.41998">
        <ele>258.42</ele>
        <time>2019-12-15T15:55:05.000Z</time>
      </trkpt>
      <trkpt lat="44.62764" lon="4.42002">
        <ele>258.42</ele>
        <time>2019-12-15T15:55:08.000Z</time>
      </trkpt>
      <trkpt lat="44.62773" lon="4.42006">
        <ele>258.41</ele>
        <time>2019-12-15T15:55:11.000Z</time>
      </trkpt>
      <trkpt lat="44.62782" lon="4.4201">
        <ele>258.42</ele>
        <time>2019-12-15T15:55:14.000Z</time>
      </trkpt>
      <trkpt lat="44.62793" lon="4.42014">
        <ele>258.44</ele>
        <time>2019-12-15T15:55:18.000Z</time>
      </trkpt>
      <trkpt lat="44.62804" lon="4.42018">
        <ele>258.47</ele>
        <time>2019-12-15T15:55:22.000Z</time>
      </trkpt>
      <trkpt lat="44.62814" lon="4.42022">
        <ele>258.51</ele>
        <time>2019-12-15T15:55:26.000Z</time>
      </trkpt>
      <trkpt lat="44.62822" lon="4.42026">
        <ele>258.56</ele>
        <time>2019-12-15T15:55:32.000Z</time>
      </trkpt>
      <trkpt lat="44.62829" lon="4.42036">
        <ele>258.59</ele>
        <time>2019-12-15T15:55:53.999Z</time>
      </trkpt>
      <trkpt lat="44.62821" lon="4.42028">
        <ele>258.55</ele>
        <time>2019-12-15T15:58:51.999Z</time>
      </trkpt>
      <trkpt lat="44.62831" lon="4.42033">
        <ele>258.51</ele>
        <time>2019-12-15T15:59:08.999Z</time>
      </trkpt>
      <trkpt lat="44.62843" lon="4.42035">
        <ele>258.5</ele>
        <time>2019-12-15T15:59:12.999Z</time>
      </trkpt>
      <trkpt lat="44.62854" lon="4.42036">
        <ele>258.49</ele>
        <time>2019-12-15T15:59:15.999Z</time>
      </trkpt>
      <trkpt lat="44.62866" lon="4.42037">
        <ele>258.49</ele>
        <time>2019-12-15T15:59:18.999Z</time>
      </trkpt>
      <trkpt lat="44.62875" lon="4.42038">
        <ele>258.5</ele>
        <time>2019-12-15T15:59:21.999Z</time>
      </trkpt>
      <trkpt lat="44.62886" lon="4.42038">
        <ele>258.51</ele>
        <time>2019-12-15T15:59:24.999Z</time>
      </trkpt>
      <trkpt lat="44.62897" lon="4.42039">
        <ele>258.51</ele>
        <time>2019-12-15T15:59:27.999Z</time>
      </trkpt>
      <trkpt lat="44.62907" lon="4.4204">
        <ele>258.53</ele>
        <time>2019-12-15T15:59:30.999Z</time>
      </trkpt>
      <trkpt lat="44.62916" lon="4.42042">
        <ele>258.54</ele>
        <time>2019-12-15T15:59:33.999Z</time>
      </trkpt>
      <trkpt lat="44.62926" lon="4.42043">
        <ele>258.56</ele>
        <time>2019-12-15T15:59:36.999Z</time>
      </trkpt>
      <trkpt lat="44.62936" lon="4.42045">
        <ele>258.57</ele>
        <time>2019-12-15T15:59:39.999Z</time>
      </trkpt>
      <trkpt lat="44.62945" lon="4.42046">
        <ele>258.59</ele>
        <time>2019-12-15T15:59:42.999Z</time>
      </trkpt>
      <trkpt lat="44.62957" lon="4.42047">
        <ele>258.62</ele>
        <time>2019-12-15T15:59:46.999Z</time>
      </trkpt>
      <trkpt lat="44.62967" lon="4.42049">
        <ele>258.64</ele>
        <time>2019-12-15T15:59:49.999Z</time>
      </trkpt>
      <trkpt lat="44.62976" lon="4.42053">
        <ele>258.66</ele>
        <time>2019-12-15T15:59:52.999Z</time>
      </trkpt>
      <trkpt lat="44.62987" lon="4.42056">
        <ele>258.68</ele>
        <time>2019-12-15T15:59:55.999Z</time>
      </trkpt>
      <trkpt lat="44.62996" lon="4.42058">
        <ele>258.7</ele>
        <time>2019-12-15T15:59:58.999Z</time>
      </trkpt>
      <trkpt lat="44.63008" lon="4.42061">
        <ele>258.74</ele>
        <time>2019-12-15T16:00:02.999Z</time>
      </trkpt>
      <trkpt lat="44.63018" lon="4.42066">
        <ele>258.77</ele>
        <time>2019-12-15T16:00:05.999Z</time>
      </trkpt>
      <trkpt lat="44.63028" lon="4.42069">
        <ele>258.81</ele>
        <time>2019-12-15T16:00:08.999Z</time>
      </trkpt>
      <trkpt lat="44.63038" lon="4.42071">
        <ele>258.84</ele>
        <time>2019-12-15T16:00:11.999Z</time>
      </trkpt>
      <trkpt lat="44.63048" lon="4.42074">
        <ele>258.88</ele>
        <time>2019-12-15T16:00:14.999Z</time>
      </trkpt>
      <trkpt lat="44.63057" lon="4.42078">
        <ele>258.93</ele>
        <time>2019-12-15T16:00:17.999Z</time>
      </trkpt>
      <trkpt lat="44.63066" lon="4.42081">
        <ele>258.99</ele>
        <time>2019-12-15T16:00:21.999Z</time>
      </trkpt>
      <trkpt lat="44.63076" lon="4.42087">
        <ele>259.05</ele>
        <time>2019-12-15T16:00:24.999Z</time>
      </trkpt>
      <trkpt lat="44.63086" lon="4.4209">
        <ele>259.1</ele>
        <time>2019-12-15T16:00:27.999Z</time>
      </trkpt>
      <trkpt lat="44.63095" lon="4.42093">
        <ele>259.17</ele>
        <time>2019-12-15T16:00:30.999Z</time>
      </trkpt>
      <trkpt lat="44.63104" lon="4.42098">
        <ele>259.24</ele>
        <time>2019-12-15T16:00:33.999Z</time>
      </trkpt>
      <trkpt lat="44.63113" lon="4.42101">
        <ele>259.31</ele>
        <time>2019-12-15T16:00:36.999Z</time>
      </trkpt>
      <trkpt lat="44.63124" lon="4.42105">
        <ele>259.38</ele>
        <time>2019-12-15T16:00:39.999Z</time>
      </trkpt>
      <trkpt lat="44.63133" lon="4.42109">
        <ele>259.46</ele>
        <time>2019-12-15T16:00:42.999Z</time>
      </trkpt>
      <trkpt lat="44.63142" lon="4.42113">
        <ele>259.55</ele>
        <time>2019-12-15T16:00:45.999Z</time>
      </trkpt>
      <trkpt lat="44.63151" lon="4.42118">
        <ele>259.65</ele>
        <time>2019-12-15T16:00:48.999Z</time>
      </trkpt>
      <trkpt lat="44.6316" lon="4.42125">
        <ele>259.76</ele>
        <time>2019-12-15T16:00:51.999Z</time>
      </trkpt>
      <trkpt lat="44.63169" lon="4.42133">
        <ele>259.92</ele>
        <time>2019-12-15T16:00:55.999Z</time>
      </trkpt>
      <trkpt lat="44.63179" lon="4.42142">
        <ele>260.11</ele>
        <time>2019-12-15T16:00:59.999Z</time>
      </trkpt>
      <trkpt lat="44.63188" lon="4.42149">
        <ele>260.25</ele>
        <time>2019-12-15T16:01:02.999Z</time>
      </trkpt>
      <trkpt lat="44.63197" lon="4.42157">
        <ele>260.41</ele>
        <time>2019-12-15T16:01:05.999Z</time>
      </trkpt>
      <trkpt lat="44.63205" lon="4.42166">
        <ele>260.61</ele>
        <time>2019-12-15T16:01:09.999Z</time>
      </trkpt>
      <trkpt lat="44.63213" lon="4.42176">
        <ele>260.81</ele>
        <time>2019-12-15T16:01:13.999Z</time>
      </trkpt>
      <trkpt lat="44.63224" lon="4.42179">
        <ele>260.97</ele>
        <time>2019-12-15T16:01:16.999Z</time>
      </trkpt>
      <trkpt lat="44.63233" lon="4.42182">
        <ele>261.12</ele>
        <time>2019-12-15T16:01:19.999Z</time>
      </trkpt>
      <trkpt lat="44.63243" lon="4.42186">
        <ele>261.26</ele>
        <time>2019-12-15T16:01:22.999Z</time>
      </trkpt>
      <trkpt lat="44.63252" lon="4.42191">
        <ele>261.4</ele>
        <time>2019-12-15T16:01:25.999Z</time>
      </trkpt>
      <trkpt lat="44.63261" lon="4.42199">
        <ele>261.54</ele>
        <time>2019-12-15T16:01:28.999Z</time>
      </trkpt>
      <trkpt lat="44.6327" lon="4.42204">
        <ele>261.67</ele>
        <time>2019-12-15T16:01:31.999Z</time>
      </trkpt>
      <trkpt lat="44.63282" lon="4.42211">
        <ele>262.48</ele>
        <time>2019-12-15T16:01:34.999Z</time>
      </trkpt>
      <trkpt lat="44.63291" lon="4.42219">
        <ele>262.57</ele>
        <time>2019-12-15T16:01:37.999Z</time>
      </trkpt>
      <trkpt lat="44.63301" lon="4.42226">
        <ele>262.65</ele>
        <time>2019-12-15T16:01:40.999Z</time>
      </trkpt>
      <trkpt lat="44.63312" lon="4.42234">
        <ele>262.74</ele>
        <time>2019-12-15T16:01:43.999Z</time>
      </trkpt>
      <trkpt lat="44.63321" lon="4.42243">
        <ele>263.09</ele>
        <time>2019-12-15T16:01:46.999Z</time>
      </trkpt>
      <trkpt lat="44.6333" lon="4.42248">
        <ele>263.35</ele>
        <time>2019-12-15T16:01:48.999Z</time>
      </trkpt>
      <trkpt lat="44.63341" lon="4.42255">
        <ele>263.59</ele>
        <time>2019-12-15T16:01:51.999Z</time>
      </trkpt>
      <trkpt lat="44.6335" lon="4.42259">
        <ele>263.63</ele>
        <time>2019-12-15T16:01:53.999Z</time>
      </trkpt>
      <trkpt lat="44.63362" lon="4.42266">
        <ele>263.99</ele>
        <time>2019-12-15T16:01:56.999Z</time>
      </trkpt>
      <trkpt lat="44.63373" lon="4.42274">
        <ele>264.17</ele>
        <time>2019-12-15T16:01:59.999Z</time>
      </trkpt>
      <trkpt lat="44.63384" lon="4.42279">
        <ele>264.22</ele>
        <time>2019-12-15T16:02:02.999Z</time>
      </trkpt>
      <trkpt lat="44.63394" lon="4.42288">
        <ele>264.57</ele>
        <time>2019-12-15T16:02:05.999Z</time>
      </trkpt>
      <trkpt lat="44.63405" lon="4.42296">
        <ele>264.87</ele>
        <time>2019-12-15T16:02:08.999Z</time>
      </trkpt>
      <trkpt lat="44.63415" lon="4.42304">
        <ele>265.04</ele>
        <time>2019-12-15T16:02:11.999Z</time>
      </trkpt>
      <trkpt lat="44.63426" lon="4.42311">
        <ele>265.33</ele>
        <time>2019-12-15T16:02:14.999Z</time>
      </trkpt>
      <trkpt lat="44.63437" lon="4.4232">
        <ele>265.56</ele>
        <time>2019-12-15T16:02:17.999Z</time>
      </trkpt>
      <trkpt lat="44.63448" lon="4.42328">
        <ele>265.78</ele>
        <time>2019-12-15T16:02:20.999Z</time>
      </trkpt>
      <trkpt lat="44.6346" lon="4.42335">
        <ele>265.9</ele>
        <time>2019-12-15T16:02:23.999Z</time>
      </trkpt>
      <trkpt lat="44.6347" lon="4.42341">
        <ele>266.04</ele>
        <time>2019-12-15T16:02:26.999Z</time>
      </trkpt>
      <trkpt lat="44.63479" lon="4.42346">
        <ele>266.25</ele>
        <time>2019-12-15T16:02:28.999Z</time>
      </trkpt>
      <trkpt lat="44.63491" lon="4.42354">
        <ele>266.52</ele>
        <time>2019-12-15T16:02:31.999Z</time>
      </trkpt>
      <trkpt lat="44.63503" lon="4.42361">
        <ele>266.69</ele>
        <time>2019-12-15T16:02:34.999Z</time>
      </trkpt>
      <trkpt lat="44.63513" lon="4.42369">
        <ele>266.98</ele>
        <time>2019-12-15T16:02:37.999Z</time>
      </trkpt>
      <trkpt lat="44.63523" lon="4.42376">
        <ele>268.47</ele>
        <time>2019-12-15T16:02:40.999Z</time>
      </trkpt>
      <trkpt lat="44.63533" lon="4.42383">
        <ele>268.57</ele>
        <time>2019-12-15T16:02:43.999Z</time>
      </trkpt>
      <trkpt lat="44.63544" lon="4.42389">
        <ele>268.75</ele>
        <time>2019-12-15T16:02:46.999Z</time>
      </trkpt>
      <trkpt lat="44.63554" lon="4.42393">
        <ele>269.36</ele>
        <time>2019-12-15T16:02:48.999Z</time>
      </trkpt>
      <trkpt lat="44.63564" lon="4.42399">
        <ele>270.34</ele>
        <time>2019-12-15T16:02:50.999Z</time>
      </trkpt>
      <trkpt lat="44.63572" lon="4.42405">
        <ele>270.99</ele>
        <time>2019-12-15T16:02:52.999Z</time>
      </trkpt>
      <trkpt lat="44.63583" lon="4.42413">
        <ele>271.83</ele>
        <time>2019-12-15T16:02:55.999Z</time>
      </trkpt>
      <trkpt lat="44.63593" lon="4.42422">
        <ele>273.31</ele>
        <time>2019-12-15T16:02:58.999Z</time>
      </trkpt>
      <trkpt lat="44.63605" lon="4.42427">
        <ele>274.75</ele>
        <time>2019-12-15T16:03:01.999Z</time>
      </trkpt>
      <trkpt lat="44.63616" lon="4.42434">
        <ele>277.05</ele>
        <time>2019-12-15T16:03:04.999Z</time>
      </trkpt>
      <trkpt lat="44.63627" lon="4.42441">
        <ele>277.32</ele>
        <time>2019-12-15T16:03:07.999Z</time>
      </trkpt>
      <trkpt lat="44.63636" lon="4.42447">
        <ele>278.45</ele>
        <time>2019-12-15T16:03:10.999Z</time>
      </trkpt>
      <trkpt lat="44.63648" lon="4.42455">
        <ele>279.41</ele>
        <time>2019-12-15T16:03:13.999Z</time>
      </trkpt>
      <trkpt lat="44.63658" lon="4.42463">
        <ele>281.23</ele>
        <time>2019-12-15T16:03:16.999Z</time>
      </trkpt>
      <trkpt lat="44.63669" lon="4.42471">
        <ele>282.22</ele>
        <time>2019-12-15T16:03:19.999Z</time>
      </trkpt>
      <trkpt lat="44.6368" lon="4.42478">
        <ele>283.02</ele>
        <time>2019-12-15T16:03:22.999Z</time>
      </trkpt>
      <trkpt lat="44.63692" lon="4.42488">
        <ele>283.55</ele>
        <time>2019-12-15T16:03:26.999Z</time>
      </trkpt>
      <trkpt lat="44.63691" lon="4.42502">
        <ele>283.6</ele>
        <time>2019-12-15T16:03:29.999Z</time>
      </trkpt>
      <trkpt lat="44.63687" lon="4.42515">
        <ele>283.67</ele>
        <time>2019-12-15T16:03:33.999Z</time>
      </trkpt>
      <trkpt lat="44.63691" lon="4.42527">
        <ele>283.75</ele>
        <time>2019-12-15T16:03:36.999Z</time>
      </trkpt>
      <trkpt lat="44.63699" lon="4.42535">
        <ele>283.9</ele>
        <time>2019-12-15T16:03:40.999Z</time>
      </trkpt>
      <trkpt lat="44.63707" lon="4.42544">
        <ele>284.08</ele>
        <time>2019-12-15T16:03:44.999Z</time>
      </trkpt>
      <trkpt lat="44.63716" lon="4.42554">
        <ele>284.26</ele>
        <time>2019-12-15T16:03:48.999Z</time>
      </trkpt>
      <trkpt lat="44.63726" lon="4.42561">
        <ele>284.47</ele>
        <time>2019-12-15T16:03:52.999Z</time>
      </trkpt>
      <trkpt lat="44.63734" lon="4.42569">
        <ele>284.72</ele>
        <time>2019-12-15T16:03:56.999Z</time>
      </trkpt>
      <trkpt lat="44.63743" lon="4.42577">
        <ele>285.08</ele>
        <time>2019-12-15T16:04:01.999Z</time>
      </trkpt>
      <trkpt lat="44.63751" lon="4.42585">
        <ele>285.39</ele>
        <time>2019-12-15T16:04:05.999Z</time>
      </trkpt>
      <trkpt lat="44.63759" lon="4.42593">
        <ele>285.69</ele>
        <time>2019-12-15T16:04:09.999Z</time>
      </trkpt>
      <trkpt lat="44.63767" lon="4.42601">
        <ele>286.06</ele>
        <time>2019-12-15T16:04:14.999Z</time>
      </trkpt>
      <trkpt lat="44.63776" lon="4.42609">
        <ele>286.39</ele>
        <time>2019-12-15T16:04:19.999Z</time>
      </trkpt>
      <trkpt lat="44.63785" lon="4.42616">
        <ele>286.65</ele>
        <time>2019-12-15T16:04:23.999Z</time>
      </trkpt>
      <trkpt lat="44.63794" lon="4.42624">
        <ele>286.9</ele>
        <time>2019-12-15T16:04:27.999Z</time>
      </trkpt>
      <trkpt lat="44.63803" lon="4.42632">
        <ele>287.21</ele>
        <time>2019-12-15T16:04:32.999Z</time>
      </trkpt>
      <trkpt lat="44.63811" lon="4.4264">
        <ele>287.46</ele>
        <time>2019-12-15T16:04:36.999Z</time>
      </trkpt>
      <trkpt lat="44.6382" lon="4.42648">
        <ele>287.7</ele>
        <time>2019-12-15T16:04:40.999Z</time>
      </trkpt>
      <trkpt lat="44.63828" lon="4.42657">
        <ele>287.95</ele>
        <time>2019-12-15T16:04:44.999Z</time>
      </trkpt>
      <trkpt lat="44.63837" lon="4.42667">
        <ele>288.2</ele>
        <time>2019-12-15T16:04:48.999Z</time>
      </trkpt>
      <trkpt lat="44.63846" lon="4.42676">
        <ele>288.45</ele>
        <time>2019-12-15T16:04:52.999Z</time>
      </trkpt>
      <trkpt lat="44.63855" lon="4.42685">
        <ele>288.7</ele>
        <time>2019-12-15T16:04:56.999Z</time>
      </trkpt>
      <trkpt lat="44.63864" lon="4.42695">
        <ele>288.93</ele>
        <time>2019-12-15T16:05:00.999Z</time>
      </trkpt>
      <trkpt lat="44.63871" lon="4.42701">
        <ele>289.11</ele>
        <time>2019-12-15T16:05:03.999Z</time>
      </trkpt>
      <trkpt lat="44.63881" lon="4.42709">
        <ele>289.34</ele>
        <time>2019-12-15T16:05:07.999Z</time>
      </trkpt>
      <trkpt lat="44.63889" lon="4.42717">
        <ele>289.51</ele>
        <time>2019-12-15T16:05:10.999Z</time>
      </trkpt>
      <trkpt lat="44.63897" lon="4.42724">
        <ele>289.67</ele>
        <time>2019-12-15T16:05:13.999Z</time>
      </trkpt>
      <trkpt lat="44.63905" lon="4.42731">
        <ele>289.83</ele>
        <time>2019-12-15T16:05:16.999Z</time>
      </trkpt>
      <trkpt lat="44.63914" lon="4.42738">
        <ele>289.99</ele>
        <time>2019-12-15T16:05:19.999Z</time>
      </trkpt>
      <trkpt lat="44.63923" lon="4.42743">
        <ele>290.14</ele>
        <time>2019-12-15T16:05:22.999Z</time>
      </trkpt>
      <trkpt lat="44.63931" lon="4.42752">
        <ele>290.77</ele>
        <time>2019-12-15T16:05:26.999Z</time>
      </trkpt>
      <trkpt lat="44.63939" lon="4.42762">
        <ele>290.88</ele>
        <time>2019-12-15T16:05:29.999Z</time>
      </trkpt>
      <trkpt lat="44.63947" lon="4.42773">
        <ele>291.07</ele>
        <time>2019-12-15T16:05:34.999Z</time>
      </trkpt>
      <trkpt lat="44.63954" lon="4.42781">
        <ele>291.21</ele>
        <time>2019-12-15T16:05:38.999Z</time>
      </trkpt>
      <trkpt lat="44.63961" lon="4.42793">
        <ele>291.35</ele>
        <time>2019-12-15T16:05:42.999Z</time>
      </trkpt>
      <trkpt lat="44.63969" lon="4.42806">
        <ele>291.49</ele>
        <time>2019-12-15T16:05:46.999Z</time>
      </trkpt>
      <trkpt lat="44.63975" lon="4.42816">
        <ele>291.59</ele>
        <time>2019-12-15T16:05:49.999Z</time>
      </trkpt>
      <trkpt lat="44.63982" lon="4.42827">
        <ele>291.68</ele>
        <time>2019-12-15T16:05:52.999Z</time>
      </trkpt>
      <trkpt lat="44.63988" lon="4.42838">
        <ele>291.77</ele>
        <time>2019-12-15T16:05:55.999Z</time>
      </trkpt>
      <trkpt lat="44.63995" lon="4.4285">
        <ele>291.86</ele>
        <time>2019-12-15T16:05:58.999Z</time>
      </trkpt>
      <trkpt lat="44.64003" lon="4.42861">
        <ele>292.2</ele>
        <time>2019-12-15T16:06:01.999Z</time>
      </trkpt>
      <trkpt lat="44.64012" lon="4.42872">
        <ele>292.79</ele>
        <time>2019-12-15T16:06:04.999Z</time>
      </trkpt>
      <trkpt lat="44.64021" lon="4.42884">
        <ele>293.15</ele>
        <time>2019-12-15T16:06:07.999Z</time>
      </trkpt>
      <trkpt lat="44.64031" lon="4.42896">
        <ele>293.37</ele>
        <time>2019-12-15T16:06:10.999Z</time>
      </trkpt>
      <trkpt lat="44.64038" lon="4.42906">
        <ele>293.46</ele>
        <time>2019-12-15T16:06:12.999Z</time>
      </trkpt>
      <trkpt lat="44.64047" lon="4.42918">
        <ele>293.56</ele>
        <time>2019-12-15T16:06:15.999Z</time>
      </trkpt>
      <trkpt lat="44.64057" lon="4.42931">
        <ele>293.64</ele>
        <time>2019-12-15T16:06:18.999Z</time>
      </trkpt>
      <trkpt lat="44.64067" lon="4.42944">
        <ele>293.69</ele>
        <time>2019-12-15T16:06:21.999Z</time>
      </trkpt>
      <trkpt lat="44.64077" lon="4.42956">
        <ele>293.75</ele>
        <time>2019-12-15T16:06:24.999Z</time>
      </trkpt>
      <trkpt lat="44.64083" lon="4.42965">
        <ele>293.81</ele>
        <time>2019-12-15T16:06:26.999Z</time>
      </trkpt>
      <trkpt lat="44.6409" lon="4.42974">
        <ele>293.87</ele>
        <time>2019-12-15T16:06:28.999Z</time>
      </trkpt>
      <trkpt lat="44.64098" lon="4.42984">
        <ele>293.95</ele>
        <time>2019-12-15T16:06:30.999Z</time>
      </trkpt>
      <trkpt lat="44.64107" lon="4.42996">
        <ele>294.07</ele>
        <time>2019-12-15T16:06:33.999Z</time>
      </trkpt>
      <trkpt lat="44.64117" lon="4.43008">
        <ele>294.19</ele>
        <time>2019-12-15T16:06:36.999Z</time>
      </trkpt>
      <trkpt lat="44.64127" lon="4.4302">
        <ele>294.3</ele>
        <time>2019-12-15T16:06:39.999Z</time>
      </trkpt>
      <trkpt lat="44.64136" lon="4.43031">
        <ele>294.43</ele>
        <time>2019-12-15T16:06:42.999Z</time>
      </trkpt>
      <trkpt lat="44.64146" lon="4.43042">
        <ele>294.54</ele>
        <time>2019-12-15T16:06:45.999Z</time>
      </trkpt>
      <trkpt lat="44.64156" lon="4.43054">
        <ele>294.65</ele>
        <time>2019-12-15T16:06:48.999Z</time>
      </trkpt>
      <trkpt lat="44.64165" lon="4.43065">
        <ele>294.73</ele>
        <time>2019-12-15T16:06:51.999Z</time>
      </trkpt>
      <trkpt lat="44.64174" lon="4.43075">
        <ele>294.75</ele>
        <time>2019-12-15T16:06:54.999Z</time>
      </trkpt>
      <trkpt lat="44.64182" lon="4.43085">
        <ele>294.77</ele>
        <time>2019-12-15T16:06:57.999Z</time>
      </trkpt>
      <trkpt lat="44.6419" lon="4.43095">
        <ele>294.79</ele>
        <time>2019-12-15T16:07:00.999Z</time>
      </trkpt>
      <trkpt lat="44.642" lon="4.43106">
        <ele>294.96</ele>
        <time>2019-12-15T16:07:03.999Z</time>
      </trkpt>
      <trkpt lat="44.64209" lon="4.43116">
        <ele>295.1</ele>
        <time>2019-12-15T16:07:06.999Z</time>
      </trkpt>
      <trkpt lat="44.64217" lon="4.43124">
        <ele>295.12</ele>
        <time>2019-12-15T16:07:09.999Z</time>
      </trkpt>
      <trkpt lat="44.64226" lon="4.43135">
        <ele>295.21</ele>
        <time>2019-12-15T16:07:12.999Z</time>
      </trkpt>
      <trkpt lat="44.64234" lon="4.43148">
        <ele>295.36</ele>
        <time>2019-12-15T16:07:15.999Z</time>
      </trkpt>
      <trkpt lat="44.64242" lon="4.43158">
        <ele>295.38</ele>
        <time>2019-12-15T16:07:18.999Z</time>
      </trkpt>
      <trkpt lat="44.64251" lon="4.43168">
        <ele>295.4</ele>
        <time>2019-12-15T16:07:21.999Z</time>
      </trkpt>
      <trkpt lat="44.6426" lon="4.43179">
        <ele>295.57</ele>
        <time>2019-12-15T16:07:24.999Z</time>
      </trkpt>
      <trkpt lat="44.64269" lon="4.43189">
        <ele>295.59</ele>
        <time>2019-12-15T16:07:27.999Z</time>
      </trkpt>
      <trkpt lat="44.64278" lon="4.432">
        <ele>295.75</ele>
        <time>2019-12-15T16:07:30.999Z</time>
      </trkpt>
      <trkpt lat="44.64287" lon="4.43211">
        <ele>295.87</ele>
        <time>2019-12-15T16:07:33.999Z</time>
      </trkpt>
      <trkpt lat="44.64295" lon="4.43222">
        <ele>295.92</ele>
        <time>2019-12-15T16:07:36.999Z</time>
      </trkpt>
      <trkpt lat="44.64304" lon="4.43232">
        <ele>295.94</ele>
        <time>2019-12-15T16:07:39.999Z</time>
      </trkpt>
      <trkpt lat="44.64312" lon="4.43243">
        <ele>296</ele>
        <time>2019-12-15T16:07:42.999Z</time>
      </trkpt>
      <trkpt lat="44.64319" lon="4.43252">
        <ele>296.02</ele>
        <time>2019-12-15T16:07:45.999Z</time>
      </trkpt>
      <trkpt lat="44.64328" lon="4.43262">
        <ele>296.04</ele>
        <time>2019-12-15T16:07:48.999Z</time>
      </trkpt>
      <trkpt lat="44.64337" lon="4.43272">
        <ele>296.2</ele>
        <time>2019-12-15T16:07:51.999Z</time>
      </trkpt>
      <trkpt lat="44.64346" lon="4.43282">
        <ele>296.27</ele>
        <time>2019-12-15T16:07:54.999Z</time>
      </trkpt>
      <trkpt lat="44.64353" lon="4.43293">
        <ele>296.28</ele>
        <time>2019-12-15T16:07:57.999Z</time>
      </trkpt>
      <trkpt lat="44.64361" lon="4.43304">
        <ele>296.41</ele>
        <time>2019-12-15T16:08:00.999Z</time>
      </trkpt>
      <trkpt lat="44.64368" lon="4.43313">
        <ele>296.48</ele>
        <time>2019-12-15T16:08:03.999Z</time>
      </trkpt>
      <trkpt lat="44.64377" lon="4.43324">
        <ele>296.5</ele>
        <time>2019-12-15T16:08:06.999Z</time>
      </trkpt>
      <trkpt lat="44.64385" lon="4.43335">
        <ele>296.65</ele>
        <time>2019-12-15T16:08:09.999Z</time>
      </trkpt>
      <trkpt lat="44.64393" lon="4.43346">
        <ele>296.68</ele>
        <time>2019-12-15T16:08:12.999Z</time>
      </trkpt>
      <trkpt lat="44.64401" lon="4.43356">
        <ele>296.71</ele>
        <time>2019-12-15T16:08:15.999Z</time>
      </trkpt>
      <trkpt lat="44.6441" lon="4.43366">
        <ele>296.85</ele>
        <time>2019-12-15T16:08:18.999Z</time>
      </trkpt>
      <trkpt lat="44.64417" lon="4.43378">
        <ele>297.12</ele>
        <time>2019-12-15T16:08:21.999Z</time>
      </trkpt>
      <trkpt lat="44.64425" lon="4.43387">
        <ele>297.16</ele>
        <time>2019-12-15T16:08:24.999Z</time>
      </trkpt>
      <trkpt lat="44.64433" lon="4.43396">
        <ele>297.21</ele>
        <time>2019-12-15T16:08:27.999Z</time>
      </trkpt>
      <trkpt lat="44.64441" lon="4.43407">
        <ele>297.69</ele>
        <time>2019-12-15T16:08:30.999Z</time>
      </trkpt>
      <trkpt lat="44.64449" lon="4.43416">
        <ele>297.72</ele>
        <time>2019-12-15T16:08:33.999Z</time>
      </trkpt>
      <trkpt lat="44.64458" lon="4.43426">
        <ele>297.87</ele>
        <time>2019-12-15T16:08:36.999Z</time>
      </trkpt>
      <trkpt lat="44.64465" lon="4.43435">
        <ele>298.06</ele>
        <time>2019-12-15T16:08:39.999Z</time>
      </trkpt>
      <trkpt lat="44.64474" lon="4.43447">
        <ele>298.1</ele>
        <time>2019-12-15T16:08:42.999Z</time>
      </trkpt>
      <trkpt lat="44.64482" lon="4.43458">
        <ele>298.16</ele>
        <time>2019-12-15T16:08:45.999Z</time>
      </trkpt>
      <trkpt lat="44.64489" lon="4.4347">
        <ele>298.22</ele>
        <time>2019-12-15T16:08:48.999Z</time>
      </trkpt>
      <trkpt lat="44.64497" lon="4.43482">
        <ele>298.29</ele>
        <time>2019-12-15T16:08:51.999Z</time>
      </trkpt>
      <trkpt lat="44.64503" lon="4.43493">
        <ele>298.61</ele>
        <time>2019-12-15T16:08:54.999Z</time>
      </trkpt>
      <trkpt lat="44.64511" lon="4.43504">
        <ele>298.88</ele>
        <time>2019-12-15T16:08:57.999Z</time>
      </trkpt>
      <trkpt lat="44.64517" lon="4.43515">
        <ele>299.13</ele>
        <time>2019-12-15T16:09:00.999Z</time>
      </trkpt>
      <trkpt lat="44.64524" lon="4.43527">
        <ele>299.19</ele>
        <time>2019-12-15T16:09:03.999Z</time>
      </trkpt>
      <trkpt lat="44.64532" lon="4.43539">
        <ele>299.27</ele>
        <time>2019-12-15T16:09:07.999Z</time>
      </trkpt>
      <trkpt lat="44.64538" lon="4.4355">
        <ele>299.37</ele>
        <time>2019-12-15T16:09:10.999Z</time>
      </trkpt>
      <trkpt lat="44.64546" lon="4.43564">
        <ele>299.45</ele>
        <time>2019-12-15T16:09:13.999Z</time>
      </trkpt>
      <trkpt lat="44.64553" lon="4.43579">
        <ele>300.18</ele>
        <time>2019-12-15T16:09:16.999Z</time>
      </trkpt>
      <trkpt lat="44.64559" lon="4.43592">
        <ele>300.01</ele>
        <time>2019-12-15T16:09:18.999Z</time>
      </trkpt>
      <trkpt lat="44.64566" lon="4.43606">
        <ele>299.4</ele>
        <time>2019-12-15T16:09:21.999Z</time>
      </trkpt>
      <trkpt lat="44.64574" lon="4.43616">
        <ele>298.61</ele>
        <time>2019-12-15T16:09:23.999Z</time>
      </trkpt>
      <trkpt lat="44.6458" lon="4.43627">
        <ele>298.32</ele>
        <time>2019-12-15T16:09:25.999Z</time>
      </trkpt>
      <trkpt lat="44.64589" lon="4.43638">
        <ele>298.68</ele>
        <time>2019-12-15T16:09:28.999Z</time>
      </trkpt>
      <trkpt lat="44.64598" lon="4.43653">
        <ele>298.91</ele>
        <time>2019-12-15T16:09:31.999Z</time>
      </trkpt>
      <trkpt lat="44.64605" lon="4.43664">
        <ele>299.36</ele>
        <time>2019-12-15T16:09:33.999Z</time>
      </trkpt>
      <trkpt lat="44.64611" lon="4.43676">
        <ele>300.1</ele>
        <time>2019-12-15T16:09:35.999Z</time>
      </trkpt>
      <trkpt lat="44.64617" lon="4.43688">
        <ele>300.82</ele>
        <time>2019-12-15T16:09:37.999Z</time>
      </trkpt>
      <trkpt lat="44.64624" lon="4.437">
        <ele>301.38</ele>
        <time>2019-12-15T16:09:39.999Z</time>
      </trkpt>
      <trkpt lat="44.64631" lon="4.43711">
        <ele>301.87</ele>
        <time>2019-12-15T16:09:41.999Z</time>
      </trkpt>
      <trkpt lat="44.64638" lon="4.43723">
        <ele>302.47</ele>
        <time>2019-12-15T16:09:43.999Z</time>
      </trkpt>
      <trkpt lat="44.64646" lon="4.43735">
        <ele>303.05</ele>
        <time>2019-12-15T16:09:45.999Z</time>
      </trkpt>
      <trkpt lat="44.64652" lon="4.43749">
        <ele>303.59</ele>
        <time>2019-12-15T16:09:47.999Z</time>
      </trkpt>
      <trkpt lat="44.6466" lon="4.43763">
        <ele>304.29</ele>
        <time>2019-12-15T16:09:49.999Z</time>
      </trkpt>
      <trkpt lat="44.64669" lon="4.43775">
        <ele>304.98</ele>
        <time>2019-12-15T16:09:51.999Z</time>
      </trkpt>
      <trkpt lat="44.64679" lon="4.43788">
        <ele>305.69</ele>
        <time>2019-12-15T16:09:53.999Z</time>
      </trkpt>
      <trkpt lat="44.64689" lon="4.438">
        <ele>306.42</ele>
        <time>2019-12-15T16:09:55.999Z</time>
      </trkpt>
      <trkpt lat="44.64698" lon="4.43813">
        <ele>307.45</ele>
        <time>2019-12-15T16:09:57.999Z</time>
      </trkpt>
      <trkpt lat="44.64707" lon="4.43823">
        <ele>308.31</ele>
        <time>2019-12-15T16:09:59.999Z</time>
      </trkpt>
      <trkpt lat="44.64716" lon="4.43834">
        <ele>308.91</ele>
        <time>2019-12-15T16:10:01.999Z</time>
      </trkpt>
      <trkpt lat="44.64725" lon="4.43843">
        <ele>309.58</ele>
        <time>2019-12-15T16:10:03.999Z</time>
      </trkpt>
      <trkpt lat="44.64735" lon="4.43853">
        <ele>310.18</ele>
        <time>2019-12-15T16:10:05.999Z</time>
      </trkpt>
      <trkpt lat="44.64743" lon="4.43864">
        <ele>310.78</ele>
        <time>2019-12-15T16:10:07.999Z</time>
      </trkpt>
      <trkpt lat="44.64752" lon="4.43873">
        <ele>311.41</ele>
        <time>2019-12-15T16:10:09.999Z</time>
      </trkpt>
      <trkpt lat="44.6476" lon="4.43882">
        <ele>312.16</ele>
        <time>2019-12-15T16:10:11.999Z</time>
      </trkpt>
      <trkpt lat="44.64768" lon="4.43891">
        <ele>312.94</ele>
        <time>2019-12-15T16:10:13.999Z</time>
      </trkpt>
      <trkpt lat="44.64776" lon="4.43901">
        <ele>313.8</ele>
        <time>2019-12-15T16:10:15.999Z</time>
      </trkpt>
      <trkpt lat="44.64784" lon="4.4391">
        <ele>314.74</ele>
        <time>2019-12-15T16:10:17.999Z</time>
      </trkpt>
      <trkpt lat="44.64791" lon="4.4392">
        <ele>315.76</ele>
        <time>2019-12-15T16:10:19.999Z</time>
      </trkpt>
      <trkpt lat="44.64799" lon="4.43929">
        <ele>316.81</ele>
        <time>2019-12-15T16:10:21.999Z</time>
      </trkpt>
      <trkpt lat="44.64807" lon="4.43937">
        <ele>317.69</ele>
        <time>2019-12-15T16:10:23.999Z</time>
      </trkpt>
      <trkpt lat="44.64816" lon="4.43945">
        <ele>318.4</ele>
        <time>2019-12-15T16:10:25.999Z</time>
      </trkpt>
      <trkpt lat="44.64824" lon="4.43953">
        <ele>319.01</ele>
        <time>2019-12-15T16:10:27.999Z</time>
      </trkpt>
      <trkpt lat="44.64833" lon="4.43962">
        <ele>319.58</ele>
        <time>2019-12-15T16:10:29.999Z</time>
      </trkpt>
      <trkpt lat="44.64842" lon="4.43972">
        <ele>320.11</ele>
        <time>2019-12-15T16:10:31.999Z</time>
      </trkpt>
      <trkpt lat="44.64849" lon="4.43981">
        <ele>320.62</ele>
        <time>2019-12-15T16:10:33.999Z</time>
      </trkpt>
      <trkpt lat="44.64857" lon="4.4399">
        <ele>321.06</ele>
        <time>2019-12-15T16:10:35.999Z</time>
      </trkpt>
      <trkpt lat="44.64866" lon="4.43998">
        <ele>321.35</ele>
        <time>2019-12-15T16:10:37.999Z</time>
      </trkpt>
      <trkpt lat="44.64874" lon="4.44006">
        <ele>321.55</ele>
        <time>2019-12-15T16:10:39.999Z</time>
      </trkpt>
      <trkpt lat="44.64882" lon="4.44016">
        <ele>321.66</ele>
        <time>2019-12-15T16:10:41.999Z</time>
      </trkpt>
      <trkpt lat="44.6489" lon="4.44023">
        <ele>321.76</ele>
        <time>2019-12-15T16:10:43.999Z</time>
      </trkpt>
      <trkpt lat="44.64896" lon="4.44032">
        <ele>321.81</ele>
        <time>2019-12-15T16:10:45.999Z</time>
      </trkpt>
      <trkpt lat="44.64904" lon="4.44041">
        <ele>321.88</ele>
        <time>2019-12-15T16:10:47.999Z</time>
      </trkpt>
      <trkpt lat="44.64912" lon="4.44047">
        <ele>321.91</ele>
        <time>2019-12-15T16:10:49.999Z</time>
      </trkpt>
      <trkpt lat="44.6492" lon="4.44054">
        <ele>321.92</ele>
        <time>2019-12-15T16:10:51.999Z</time>
      </trkpt>
      <trkpt lat="44.64927" lon="4.44062">
        <ele>321.93</ele>
        <time>2019-12-15T16:10:53.999Z</time>
      </trkpt>
      <trkpt lat="44.64937" lon="4.44071">
        <ele>321.92</ele>
        <time>2019-12-15T16:10:56.999Z</time>
      </trkpt>
      <trkpt lat="44.64946" lon="4.44079">
        <ele>321.91</ele>
        <time>2019-12-15T16:10:59.999Z</time>
      </trkpt>
      <trkpt lat="44.64954" lon="4.44086">
        <ele>321.91</ele>
        <time>2019-12-15T16:11:02.999Z</time>
      </trkpt>
      <trkpt lat="44.64962" lon="4.44094">
        <ele>321.92</ele>
        <time>2019-12-15T16:11:05.999Z</time>
      </trkpt>
      <trkpt lat="44.6497" lon="4.44103">
        <ele>321.92</ele>
        <time>2019-12-15T16:11:08.999Z</time>
      </trkpt>
      <trkpt lat="44.64978" lon="4.44111">
        <ele>321.92</ele>
        <time>2019-12-15T16:11:11.999Z</time>
      </trkpt>
      <trkpt lat="44.64987" lon="4.4412">
        <ele>321.92</ele>
        <time>2019-12-15T16:11:14.999Z</time>
      </trkpt>
      <trkpt lat="44.64995" lon="4.44128">
        <ele>321.93</ele>
        <time>2019-12-15T16:11:17.999Z</time>
      </trkpt>
      <trkpt lat="44.65003" lon="4.44137">
        <ele>321.94</ele>
        <time>2019-12-15T16:11:20.999Z</time>
      </trkpt>
      <trkpt lat="44.6501" lon="4.44146">
        <ele>321.96</ele>
        <time>2019-12-15T16:11:23.999Z</time>
      </trkpt>
      <trkpt lat="44.65017" lon="4.44154">
        <ele>321.97</ele>
        <time>2019-12-15T16:11:26.999Z</time>
      </trkpt>
      <trkpt lat="44.65025" lon="4.44162">
        <ele>321.99</ele>
        <time>2019-12-15T16:11:29.999Z</time>
      </trkpt>
      <trkpt lat="44.65034" lon="4.44171">
        <ele>322.01</ele>
        <time>2019-12-15T16:11:33.999Z</time>
      </trkpt>
      <trkpt lat="44.65043" lon="4.4418">
        <ele>322.03</ele>
        <time>2019-12-15T16:11:37.999Z</time>
      </trkpt>
      <trkpt lat="44.65051" lon="4.44188">
        <ele>322.05</ele>
        <time>2019-12-15T16:11:40.999Z</time>
      </trkpt>
      <trkpt lat="44.6506" lon="4.44198">
        <ele>322.07</ele>
        <time>2019-12-15T16:11:44.999Z</time>
      </trkpt>
      <trkpt lat="44.65068" lon="4.44205">
        <ele>322.09</ele>
        <time>2019-12-15T16:11:47.999Z</time>
      </trkpt>
      <trkpt lat="44.65076" lon="4.44212">
        <ele>322.11</ele>
        <time>2019-12-15T16:11:50.999Z</time>
      </trkpt>
      <trkpt lat="44.65084" lon="4.4422">
        <ele>322.13</ele>
        <time>2019-12-15T16:11:53.999Z</time>
      </trkpt>
      <trkpt lat="44.65092" lon="4.4423">
        <ele>322.16</ele>
        <time>2019-12-15T16:11:57.999Z</time>
      </trkpt>
      <trkpt lat="44.65102" lon="4.44238">
        <ele>322.2</ele>
        <time>2019-12-15T16:12:01.999Z</time>
      </trkpt>
      <trkpt lat="44.65112" lon="4.44246">
        <ele>322.25</ele>
        <time>2019-12-15T16:12:05.999Z</time>
      </trkpt>
      <trkpt lat="44.6512" lon="4.44255">
        <ele>322.29</ele>
        <time>2019-12-15T16:12:08.999Z</time>
      </trkpt>
      <trkpt lat="44.65128" lon="4.44264">
        <ele>322.33</ele>
        <time>2019-12-15T16:12:11.999Z</time>
      </trkpt>
      <trkpt lat="44.65138" lon="4.44273">
        <ele>322.38</ele>
        <time>2019-12-15T16:12:15.999Z</time>
      </trkpt>
      <trkpt lat="44.65145" lon="4.4428">
        <ele>322.43</ele>
        <time>2019-12-15T16:12:18.999Z</time>
      </trkpt>
      <trkpt lat="44.65154" lon="4.4429">
        <ele>322.49</ele>
        <time>2019-12-15T16:12:22.999Z</time>
      </trkpt>
      <trkpt lat="44.65161" lon="4.44297">
        <ele>322.54</ele>
        <time>2019-12-15T16:12:25.999Z</time>
      </trkpt>
      <trkpt lat="44.6517" lon="4.44307">
        <ele>322.61</ele>
        <time>2019-12-15T16:12:29.999Z</time>
      </trkpt>
      <trkpt lat="44.65177" lon="4.44315">
        <ele>322.66</ele>
        <time>2019-12-15T16:12:32.999Z</time>
      </trkpt>
      <trkpt lat="44.65186" lon="4.44323">
        <ele>322.71</ele>
        <time>2019-12-15T16:12:35.999Z</time>
      </trkpt>
      <trkpt lat="44.65197" lon="4.44332">
        <ele>322.79</ele>
        <time>2019-12-15T16:12:39.999Z</time>
      </trkpt>
      <trkpt lat="44.65207" lon="4.44342">
        <ele>322.87</ele>
        <time>2019-12-15T16:12:43.999Z</time>
      </trkpt>
      <trkpt lat="44.65216" lon="4.44352">
        <ele>322.95</ele>
        <time>2019-12-15T16:12:47.999Z</time>
      </trkpt>
      <trkpt lat="44.65225" lon="4.44362">
        <ele>323.03</ele>
        <time>2019-12-15T16:12:51.999Z</time>
      </trkpt>
      <trkpt lat="44.65232" lon="4.4437">
        <ele>323.11</ele>
        <time>2019-12-15T16:12:55.999Z</time>
      </trkpt>
      <trkpt lat="44.6524" lon="4.4438">
        <ele>323.19</ele>
        <time>2019-12-15T16:12:59.999Z</time>
      </trkpt>
      <trkpt lat="44.65246" lon="4.44391">
        <ele>323.25</ele>
        <time>2019-12-15T16:13:02.999Z</time>
      </trkpt>
      <trkpt lat="44.65253" lon="4.44403">
        <ele>323.34</ele>
        <time>2019-12-15T16:13:06.999Z</time>
      </trkpt>
      <trkpt lat="44.65261" lon="4.44413">
        <ele>323.45</ele>
        <time>2019-12-15T16:13:11.999Z</time>
      </trkpt>
      <trkpt lat="44.65268" lon="4.4442">
        <ele>323.6</ele>
        <time>2019-12-15T16:13:18.999Z</time>
      </trkpt>
      <trkpt lat="44.65274" lon="4.44411">
        <ele>327.11</ele>
        <time>2019-12-15T16:16:45.000Z</time>
      </trkpt>
      <trkpt lat="44.65283" lon="4.44404">
        <ele>327.5</ele>
        <time>2019-12-15T16:16:52.000Z</time>
      </trkpt>
      <trkpt lat="44.65289" lon="4.44394">
        <ele>328.78</ele>
        <time>2019-12-15T16:17:26.000Z</time>
      </trkpt>
      <trkpt lat="44.65298" lon="4.44392">
        <ele>329.74</ele>
        <time>2019-12-15T16:18:06.000Z</time>
      </trkpt>
      <trkpt lat="44.65307" lon="4.44388">
        <ele>329.99</ele>
        <time>2019-12-15T16:18:19.000Z</time>
      </trkpt>
      <trkpt lat="44.65298" lon="4.44396">
        <ele>330.24</ele>
        <time>2019-12-15T16:18:40.000Z</time>
      </trkpt>
      <trkpt lat="44.65289" lon="4.44403">
        <ele>330.35</ele>
        <time>2019-12-15T16:18:46.000Z</time>
      </trkpt>
      <trkpt lat="44.65279" lon="4.44402">
        <ele>330.45</ele>
        <time>2019-12-15T16:18:52.000Z</time>
      </trkpt>
      <trkpt lat="44.6527" lon="4.44397">
        <ele>330.56</ele>
        <time>2019-12-15T16:18:58.000Z</time>
      </trkpt>
      <trkpt lat="44.65262" lon="4.44404">
        <ele>330.69</ele>
        <time>2019-12-15T16:19:05.000Z</time>
      </trkpt>
      <trkpt lat="44.65266" lon="4.44416">
        <ele>330.85</ele>
        <time>2019-12-15T16:19:14.000Z</time>
      </trkpt>
      <trkpt lat="44.65272" lon="4.44426">
        <ele>331.89</ele>
        <time>2019-12-15T16:21:21.000Z</time>
      </trkpt>
    </trkseg>
  </trk>
</gpx>